GFSSW_925_rhum_000.txt.gz
RH
96 83 69 90 90 92 94 94 93 94 94 91 89 86 82 85 90 99 97 67 60 55 70 65 52 57 57 61 64 62 84 89 74 66 54 37 37 30 25 26 28 26 27 27 26
91 98 82 74 91 91 93 95 94 94 91 82 94 92 92 93 97 97 72 69 85 84 78 65 64 64 72 69 66 84 96 78 63 56 48 44 41 39 32 34 33 31 27 32 40
82 96 93 76 90 85 93 95 95 85 82 82 81 96 99 100 90 80 64 80 86 85 83 72 70 65 71 72 76 80 86 68 61 53 49 50 45 38 38 46 38 32 31 33 52
95 85 97 98 91 84 89 95 85 84 80 79 84 81 91 95 92 64 74 77 79 87 81 79 74 73 79 83 74 88 79 73 61 56 60 59 53 49 42 41 30 32 32 32 45
87 85 93 91 92 86 90 93 90 87 78 82 81 82 94 92 86 59 69 72 80 85 81 71 88 78 80 76 70 82 79 68 63 65 68 65 68 70 60 47 41 41 35 37 37
94 81 84 89 90 86 87 86 96 88 88 75 81 86 85 96 54 59 64 62 81 83 88 84 87 83 83 82 75 69 71 71 62 66 64 65 64 61 54 48 46 44 41 39 40
99 88 84 88 89 86 81 80 82 71 78 76 78 85 92 80 55 55 52 56 56 62 83 85 79 85 85 87 71 72 80 73 67 61 64 60 67 65 51 51 51 48 45 42 40
95 98 88 90 87 91 75 75 85 92 87 82 80 89 94 61 63 58 54 48 52 54 53 62 70 80 84 70 68 75 78 92 62 64 61 61 74 51 44 47 49 48 49 46 41
93 97 97 89 95 90 76 75 82 79 81 90 83 80 88 62 68 52 56 51 53 53 51 49 48 61 65 82 83 84 91 86 70 56 61 69 64 53 48 47 52 53 51 47 45
88 92 98 90 99 94 78 82 84 83 91 84 86 89 76 68 61 59 60 51 54 57 56 56 68 81 83 86 94 86 86 72 67 59 67 76 74 61 54 58 61 58 55 51 49
85 90 85 99 95 96 85 90 89 93 93 84 80 75 61 61 57 62 62 58 60 65 85 71 94 88 76 76 72 85 91 93 75 59 67 72 69 59 56 60 64 56 61 54 53
84 93 90 98 98 98 83 84 77 65 93 84 84 80 68 63 71 66 60 71 75 90 79 81 90 77 71 76 79 83 86 85 75 60 62 63 62 53 51 54 59 59 55 58 52
87 95 93 94 100 100 84 76 67 66 83 76 82 83 76 66 72 76 64 73 83 94 85 87 67 66 76 82 87 90 92 86 84 63 55 61 60 48 40 39 39 41 41 46 48
90 93 96 86 100 99 90 75 70 60 90 70 97 85 80 67 78 59 60 70 80 87 88 93 74 74 79 84 83 93 77 77 79 84 94 61 76 50 44 50 42 39 42 53 51
91 95 98 83 100 94 85 77 68 54 88 72 93 66 74 70 65 78 59 62 89 87 80 78 84 85 84 76 73 72 69 77 79 89 90 82 88 67 48 48 44 50 58 57 50
99 99 98 91 100 87 84 77 67 83 88 91 86 91 91 77 71 76 68 58 62 74 76 74 69 73 75 64 64 61 72 73 75 78 93 72 84 59 48 41 53 46 50 53 53
98 99 98 89 99 87 85 80 94 90 70 90 80 84 79 84 79 79 81 89 93 99 98 96 90 75 74 79 72 72 79 97 99 97 87 64 75 53 43 40 43 47 46 43 53
98 94 91 87 95 92 81 89 91 67 83 72 67 74 84 78 73 82 89 94 82 92 99 97 95 89 76 74 83 79 75 91 88 92 84 57 74 61 45 35 31 29 40 47 59
91 96 97 74 100 86 80 85 78 69 79 88 77 84 86 79 78 85 88 80 68 91 97 96 93 79 80 69 66 97 96 67 72 61 88 78 68 52 54 55 45 44 38 52 63
100 97 98 79 100 87 79 81 66 66 78 76 88 79 86 83 90 95 83 68 72 73 73 81 96 77 80 71 68 88 73 97 96 96 93 75 64 66 50 51 45 38 29 55 64
93 97 89 66 93 96 98 82 68 76 71 77 80 85 67 72 80 85 70 65 71 70 76 87 95 88 92 94 82 92 98 96 77 87 92 86 57 54 43 48 52 46 45 54 62
97 97 99 100 98 98 94 68 60 90 79 76 70 66 75 83 95 89 86 72 66 76 87 80 98 95 85 72 64 64 70 75 86 84 84 88 58 42 65 57 52 54 53 60 66
98 96 100 85 100 99 79 72 71 92 92 85 83 72 72 81 87 89 80 60 69 78 87 80 99 98 95 88 84 94 79 64 66 77 83 84 50 29 40 48 55 64 66 79 81
96 100 98 97 90 76 76 77 79 66 76 73 77 75 82 86 82 82 83 62 68 70 65 68 100 97 86 94 96 99 88 78 74 94 74 69 55 40 54 52 54 70 73 85 82
94 98 91 99 97 73 67 75 80 82 75 74 85 80 90 99 89 92 77 69 70 64 76 92 100 100 94 81 99 100 97 85 93 77 76 55 52 52 50 59 59 58 77 82 80
99 95 89 86 74 73 78 87 82 76 82 86 87 76 86 96 79 71 77 76 80 72 81 92 98 100 98 96 96 100 95 97 94 73 66 59 59 48 56 51 55 61 71 77 79
91 94 75 79 82 81 82 80 76 73 73 77 81 87 90 80 74 70 63 71 72 78 96 98 100 100 94 92 98 98 89 80 77 79 61 73 58 44 59 65 60 65 62 68 74

GFSSW_925_rhum_003.txt.gz
RH
88 90 95 97 82 80 91 86 93 95 96 73 89 90 82 83 98 98 94 68 62 69 81 66 52 57 60 64 68 62 77 77 64 60 48 39 38 33 27 26 28 27 25 28 34
93 95 94 95 90 87 92 88 96 95 91 71 84 97 84 93 93 98 68 68 82 81 77 65 63 60 68 70 68 76 86 76 61 53 49 42 42 39 36 34 34 31 28 29 42
96 95 94 93 89 95 90 93 91 82 85 81 80 84 94 98 94 81 73 89 86 88 80 72 66 61 68 76 73 80 76 68 61 51 49 52 49 42 40 44 38 35 30 30 43
100 95 95 86 97 97 89 86 84 78 85 79 76 78 97 97 86 68 82 78 86 88 79 79 70 68 75 82 74 84 78 74 64 57 62 62 56 60 46 43 35 32 34 33 31
97 99 96 91 92 89 87 89 85 80 88 71 73 77 94 92 83 62 70 73 77 88 73 76 82 72 75 75 70 83 78 70 65 66 66 65 68 64 64 46 43 44 45 40 35
91 97 99 91 87 88 88 83 80 88 90 80 76 84 83 95 61 65 65 73 85 82 79 72 86 79 78 80 73 69 72 69 63 60 61 63 59 63 54 52 52 48 42 37 37
85 98 95 95 90 95 89 77 72 83 89 84 72 81 86 78 56 54 56 58 67 77 90 84 77 81 84 89 73 72 78 69 65 59 58 57 66 68 48 50 50 48 44 42 38
76 84 97 98 94 97 86 77 71 88 88 80 82 80 90 64 65 58 54 49 51 58 57 74 77 81 84 74 67 74 75 86 61 61 58 54 62 53 45 48 50 48 48 45 40
78 76 88 87 100 96 93 78 77 89 77 94 82 75 84 63 72 62 55 49 52 54 51 55 52 62 75 82 81 82 82 88 69 57 56 65 68 51 46 51 52 48 46 47 42
71 74 84 93 92 99 100 85 82 87 91 92 86 85 77 67 65 64 56 50 55 58 57 60 72 82 83 84 74 80 96 78 71 58 62 67 68 55 52 50 48 50 50 50 46
74 78 87 91 92 98 100 96 93 96 95 84 79 76 66 63 60 65 61 58 60 66 85 74 91 94 80 78 67 81 86 81 66 60 68 64 61 53 48 51 50 47 44 44 47
80 87 88 92 92 96 100 89 73 60 94 86 85 81 73 64 73 68 61 71 74 89 81 84 90 73 70 74 77 78 82 78 58 63 63 63 63 50 46 46 44 43 45 49 50
90 85 87 90 94 100 98 82 55 45 72 74 84 85 76 67 73 78 64 75 83 93 89 89 73 67 73 82 78 71 76 65 66 64 60 62 55 38 30 31 37 39 38 36 36
95 78 94 90 90 90 96 84 65 40 83 68 92 87 79 66 73 61 60 69 81 86 72 75 66 76 88 89 81 84 73 75 78 84 83 60 71 39 38 36 34 37 36 35 38
95 97 95 88 86 96 90 75 60 49 75 73 93 68 75 72 64 78 60 59 89 88 86 77 84 94 84 80 76 74 69 75 80 88 92 72 84 54 46 45 40 36 41 41 39
89 93 97 87 96 91 96 86 69 84 84 92 90 94 90 78 77 74 71 57 62 74 76 73 68 70 73 68 67 64 74 71 74 78 92 66 73 55 38 35 36 37 35 41 38
90 92 97 98 79 73 100 93 98 92 68 97 90 91 77 86 82 77 83 88 91 99 95 76 77 76 72 77 73 70 98 94 95 96 81 59 75 52 37 33 33 30 35 40 41
91 99 91 98 78 99 92 98 97 71 81 66 65 82 86 69 74 81 83 90 80 91 92 96 87 75 76 70 80 82 80 91 88 83 72 64 77 56 42 34 33 30 27 27 38
99 96 96 100 81 92 96 98 82 73 80 74 69 84 88 74 71 77 86 85 74 84 96 97 90 77 81 72 63 99 97 68 95 87 93 68 58 41 37 34 36 35 31 31 33
97 94 99 89 83 94 98 98 68 74 72 71 87 73 83 83 90 86 87 74 73 69 66 78 93 77 79 73 72 81 78 96 97 95 90 64 61 58 37 25 30 40 40 37 35
92 92 87 76 95 97 100 92 70 75 68 75 81 86 75 82 84 94 77 62 73 80 73 81 96 88 90 91 80 93 98 100 98 96 87 69 45 41 34 35 44 47 43 44 42
95 98 91 91 98 99 100 69 64 83 77 78 69 71 76 73 85 84 81 68 66 80 93 78 90 98 83 70 65 64 72 72 90 88 88 83 60 31 33 56 50 48 50 56 59
97 95 94 81 99 100 88 78 75 90 88 78 80 75 74 81 90 86 82 64 74 75 87 85 99 97 88 87 77 97 80 71 69 77 86 84 58 28 32 54 50 55 58 67 78
96 100 99 94 91 90 80 82 81 72 86 78 81 76 84 87 75 87 87 66 69 72 66 71 94 94 77 78 98 99 82 85 96 94 74 72 60 44 39 46 50 47 55 72 79
98 99 90 99 98 76 72 73 85 85 74 74 82 76 81 93 88 97 89 76 74 70 74 84 98 97 93 79 94 100 95 86 98 81 79 57 57 45 41 50 53 59 61 79 82
99 95 90 95 81 70 79 78 78 78 81 87 83 74 79 89 70 82 78 80 75 78 84 86 99 100 97 94 97 99 98 92 84 78 74 66 66 44 41 48 75 76 66 79 82
92 91 94 81 79 78 83 80 82 74 72 78 77 79 87 80 68 69 68 68 72 75 87 98 99 100 91 90 100 97 93 94 88 78 76 84 60 47 50 66 80 70 68 76 81

GFSSW_925_rhum_006.txt.gz
RH
98 95 94 92 96 92 88 90 82 92 95 96 89 96 88 87 89 99 76 62 66 70 74 60 51 49 49 43 47 46 43 39 35 35 28 27 29 24 21 21 21 20 20 22 34
99 99 96 89 92 90 91 91 89 96 94 93 90 92 90 89 87 82 73 70 67 82 63 52 46 44 42 45 46 46 45 35 27 31 31 28 29 25 28 26 24 23 20 24 32
97 98 98 96 90 96 90 88 90 92 90 88 83 85 93 95 91 75 76 89 87 84 69 58 51 44 46 48 47 47 48 32 43 38 35 34 36 30 31 30 26 24 22 24 26
85 96 98 99 97 88 91 89 88 91 79 80 76 77 95 100 92 71 87 81 89 82 76 64 51 50 50 55 46 56 46 42 41 43 48 48 40 42 35 28 22 26 25 29 29
81 84 96 97 97 90 94 91 90 92 82 77 72 75 96 84 77 64 70 72 82 84 73 64 56 48 53 48 53 59 44 48 46 53 49 44 46 45 40 33 33 32 33 34 31
70 79 89 97 97 95 91 85 93 96 87 86 69 79 70 83 64 66 63 75 75 80 70 67 59 52 52 51 53 49 55 51 48 46 44 49 44 40 38 32 33 31 30 30 29
68 83 80 87 97 98 94 94 92 94 86 86 73 82 70 49 55 54 60 63 71 74 73 74 64 59 56 61 57 55 60 44 42 43 46 44 49 43 31 29 31 32 27 26 25
61 79 79 79 95 94 99 98 79 89 89 88 74 75 58 65 66 54 54 53 61 63 71 74 73 59 56 59 53 58 57 58 41 44 39 41 46 30 35 34 34 32 28 26 25
67 66 77 76 90 92 100 100 81 84 85 95 78 62 65 67 67 61 52 50 51 51 57 64 49 51 58 58 57 54 49 58 46 40 43 46 45 36 30 36 37 30 29 29 29
70 68 71 84 89 88 96 100 94 97 94 90 84 77 67 59 64 65 57 50 48 50 53 54 57 60 58 62 49 42 58 48 43 39 47 48 44 36 34 35 34 31 30 31 33
77 76 82 89 88 93 86 99 99 96 79 60 63 59 60 62 62 60 53 50 47 51 65 62 73 76 53 52 43 47 51 50 42 41 50 44 42 36 32 32 33 33 31 28 28
91 92 87 84 91 92 99 96 69 58 85 69 63 63 65 58 64 61 54 53 56 63 60 71 81 50 50 51 57 54 54 50 41 39 46 42 42 35 32 32 30 29 28 27 26
80 86 80 93 86 89 97 95 70 67 66 86 70 68 63 59 59 66 52 55 58 68 66 62 57 54 59 61 65 58 59 54 53 43 42 49 46 27 22 21 22 24 24 23 23
83 94 89 93 84 78 81 78 92 86 98 79 85 71 64 57 65 54 50 53 66 62 63 62 48 63 63 64 57 62 45 51 59 61 63 45 53 29 24 23 23 24 24 24 24
86 91 89 90 98 77 79 72 99 82 96 68 84 66 60 55 59 73 55 54 65 65 65 60 70 73 76 65 57 58 52 53 54 60 62 53 84 36 30 30 27 23 20 19 20
78 88 91 89 87 80 87 97 87 98 94 89 86 90 87 64 68 69 67 51 50 60 63 55 53 55 54 55 56 52 58 58 57 62 87 52 50 41 28 24 21 21 20 17 21
83 90 88 88 91 83 96 94 99 97 64 95 84 81 71 72 77 69 80 83 76 95 92 65 64 57 54 62 58 59 71 73 82 90 63 29 41 40 25 24 22 20 16 17 19
88 100 99 100 94 94 99 99 97 75 62 61 70 67 70 64 77 72 82 90 68 71 76 78 69 62 60 62 56 66 62 64 58 43 40 32 53 34 21 22 22 21 20 18 20
93 94 99 99 92 95 97 99 91 58 59 66 74 79 80 60 64 72 76 68 58 64 86 86 80 59 59 54 56 71 91 55 75 68 89 46 42 28 24 28 24 21 19 28 28
86 87 88 96 99 93 98 100 76 59 54 55 69 57 70 70 69 67 72 56 58 56 49 62 83 55 56 63 61 66 57 87 95 82 69 43 46 35 24 22 18 19 26 29 30
84 95 88 93 86 97 100 100 76 57 52 60 66 64 56 67 62 62 60 54 54 59 54 58 66 72 76 82 62 82 91 95 77 75 67 54 32 20 25 29 36 33 30 34 38
91 100 94 97 98 98 100 93 66 68 67 63 54 55 57 62 68 64 64 53 46 60 76 59 72 88 71 44 45 45 57 62 94 88 88 62 50 20 23 21 32 32 33 34 42
96 95 89 98 99 100 90 86 77 75 74 66 68 58 56 62 73 60 60 51 54 58 61 62 97 87 69 70 60 73 59 59 92 92 88 80 47 25 27 25 24 25 28 35 47
99 100 96 93 76 79 68 74 80 69 76 66 69 64 64 65 61 70 69 60 53 54 60 59 68 87 67 68 61 100 73 87 97 93 65 64 52 37 32 31 28 28 36 47 45
95 98 88 100 80 60 60 68 74 75 70 64 70 62 64 70 72 73 67 64 62 62 62 65 100 91 76 69 78 92 92 95 99 76 79 53 45 36 32 32 33 34 38 51 51
98 99 72 83 66 60 72 67 68 76 66 72 69 67 64 64 65 69 69 69 62 60 66 70 92 99 97 79 77 96 94 96 96 84 64 57 57 41 37 35 43 60 68 58 56
91 91 88 90 79 61 69 64 64 62 67 71 64 71 73 70 60 57 56 57 61 63 72 88 100 100 89 64 70 97 96 95 95 83 67 73 54 39 44 55 73 75 59 59 56

GFSSW_925_rhum_009.txt.gz
RH
93 99 100 98 93 92 98 89 93 84 90 96 96 83 90 92 87 94 69 60 57 69 65 50 44 40 38 35 31 36 44 37 31 24 21 16 19 18 16 17 14 14 15 20 28
86 91 97 100 99 96 93 88 95 90 95 96 94 79 94 90 76 68 59 63 64 71 63 47 39 36 37 36 38 43 42 33 20 18 20 20 22 20 23 21 17 17 16 20 24
70 82 89 97 100 100 96 99 96 94 96 96 87 72 92 86 64 56 59 69 82 77 57 44 38 34 37 34 37 38 43 25 22 29 28 27 23 20 23 26 20 18 17 17 21
67 67 82 89 98 100 98 98 98 96 95 90 76 69 81 93 94 66 77 81 88 76 57 50 43 45 43 43 34 41 32 29 27 26 36 36 27 27 26 24 18 17 17 18 22
63 64 79 82 89 97 99 96 100 93 96 86 71 67 89 96 82 65 68 72 79 81 62 52 48 43 47 38 37 43 39 28 30 34 35 34 37 34 33 27 23 22 24 25 24
64 59 70 79 81 87 98 99 99 93 96 86 68 73 75 89 65 60 54 61 57 74 63 56 52 40 45 39 44 36 39 37 36 37 37 42 37 34 30 26 26 26 26 25 25
65 64 64 70 74 81 94 99 98 97 94 90 68 78 58 54 48 52 55 54 60 67 66 63 63 55 46 51 40 45 52 40 36 36 38 35 43 39 29 26 26 24 24 23 22
68 66 68 69 73 78 88 98 97 96 87 94 67 64 54 58 49 49 51 56 60 60 59 65 65 54 50 47 47 51 45 50 32 33 30 34 45 26 24 26 28 24 21 21 20
69 70 75 72 71 79 89 96 94 98 86 92 74 59 54 63 57 46 46 50 49 54 59 60 61 51 49 54 47 45 47 42 37 29 33 38 39 25 26 26 25 24 24 22 22
70 75 84 83 80 87 93 96 91 98 94 90 75 69 54 54 54 51 46 46 44 44 50 48 48 52 51 49 51 42 48 38 34 25 35 38 35 26 23 25 28 27 24 22 22
83 86 85 88 84 93 89 91 99 100 95 63 59 50 52 53 57 52 45 45 43 47 60 56 68 67 45 42 40 38 39 35 28 25 34 35 32 26 22 22 25 25 24 24 22
86 78 92 79 83 85 90 94 95 86 94 55 50 49 50 49 60 50 44 49 55 65 51 73 80 47 39 40 43 44 45 41 32 29 34 36 36 28 25 24 22 22 23 22 21
86 77 91 93 75 76 75 84 99 90 84 74 54 56 57 52 51 60 44 43 51 54 53 61 48 45 45 50 51 45 47 43 41 35 35 39 40 27 21 21 20 19 20 20 20
85 77 78 86 74 82 73 79 92 94 100 97 85 60 58 50 59 47 43 45 53 54 53 55 40 50 48 53 45 52 35 38 45 51 52 38 49 26 17 18 18 18 18 18 18
74 80 90 90 82 75 75 91 86 92 97 87 77 51 52 50 56 61 43 51 54 50 50 55 55 55 59 50 43 50 47 47 48 54 56 45 55 33 18 18 14 14 18 18 17
73 81 87 78 78 73 80 92 83 99 97 97 83 81 73 50 59 58 58 46 40 48 49 44 42 47 47 44 45 46 51 53 52 64 80 46 38 31 20 14 14 14 15 15 14
86 91 95 85 78 69 86 94 99 97 78 94 77 74 70 64 66 70 72 72 68 90 78 59 54 48 44 55 50 53 66 68 78 91 64 24 30 26 17 15 14 16 16 15 14
93 77 92 96 98 80 94 100 97 78 69 56 72 68 79 62 57 58 66 75 53 53 63 76 74 56 53 55 53 62 58 58 53 40 34 26 35 25 17 15 16 16 16 16 16
94 83 81 100 96 91 98 93 75 65 56 69 67 79 79 62 67 62 60 65 51 50 76 69 70 46 47 46 47 58 77 48 69 53 65 40 29 22 18 18 17 17 18 17 15
99 83 82 88 84 93 99 100 95 46 49 52 67 61 74 65 75 63 62 48 55 46 42 54 74 48 46 51 49 54 46 83 91 79 56 33 29 28 21 19 16 16 18 16 19
97 91 98 96 83 95 95 100 80 45 46 52 53 54 53 57 52 57 56 48 41 46 43 48 55 68 65 69 52 66 75 90 62 70 74 66 40 20 21 23 26 30 26 26 28
85 99 99 82 98 97 100 95 70 56 60 52 44 41 44 46 50 47 49 45 40 44 60 48 62 80 64 42 39 44 58 58 90 68 80 68 58 25 21 21 19 24 24 23 21
85 94 91 98 99 100 95 90 60 70 68 54 54 44 40 46 56 47 47 42 41 48 51 52 78 82 77 57 44 54 48 47 62 81 92 88 53 21 23 24 23 21 20 21 27
96 100 97 96 83 68 95 93 79 71 61 54 54 46 47 49 50 52 56 55 44 46 62 49 61 83 62 69 52 88 72 65 86 96 69 62 52 38 31 29 26 24 23 26 28
97 94 77 94 81 77 70 73 80 74 58 50 55 49 47 54 54 56 52 56 54 54 52 56 100 80 66 58 64 70 72 72 98 94 96 61 48 40 35 34 33 29 27 37 43
97 97 82 69 51 50 57 59 62 63 55 56 53 50 48 49 50 60 54 53 56 56 59 64 88 94 92 68 66 80 66 80 91 91 96 94 84 48 37 33 38 48 47 58 55
89 86 97 87 57 51 55 54 57 56 63 57 54 55 59 58 54 54 51 49 51 56 64 76 97 97 80 54 60 88 84 95 95 84 89 94 74 47 41 47 65 67 68 66 55

GFSSW_925_rhum_012.txt.gz
RH
73 77 88 94 99 100 96 95 98 95 92 89 96 90 90 93 87 96 92 66 68 67 51 61 48 42 38 41 36 34 54 53 42 34 29 19 20 16 16 20 18 16 16 28 37
71 72 73 87 92 98 100 99 98 98 95 94 95 86 90 92 88 77 70 62 65 71 58 51 44 39 45 44 42 48 63 53 33 26 26 27 20 20 22 23 21 21 16 22 27
67 68 68 75 86 93 98 100 97 99 97 95 95 82 74 95 87 54 54 69 74 64 65 50 38 35 48 41 42 47 56 36 29 24 26 34 33 23 25 30 24 22 18 21 22
68 66 65 67 78 83 93 99 99 99 97 95 83 77 71 96 88 64 68 76 68 78 67 49 42 47 49 47 36 47 37 35 33 29 30 36 33 33 30 27 23 23 22 20 24
66 67 66 65 68 74 84 92 99 98 98 89 80 73 84 94 76 71 67 71 80 77 68 46 50 48 53 42 36 42 38 30 29 31 32 34 40 41 38 31 27 26 25 28 26
70 70 70 68 68 70 76 86 99 99 99 92 72 72 86 92 64 56 56 59 67 78 68 53 53 49 47 44 40 36 38 38 36 34 35 40 41 41 35 30 29 29 30 29 29
76 73 73 72 72 72 70 84 93 99 100 96 74 80 62 64 50 59 56 51 53 67 73 56 56 56 53 54 43 41 56 47 43 40 41 36 46 45 35 32 32 30 29 28 28
75 75 73 72 76 73 75 76 93 100 98 92 85 75 66 48 46 47 56 59 58 64 67 61 62 59 54 47 46 54 55 66 36 36 36 41 56 35 28 32 33 31 28 26 27
80 81 80 82 83 83 80 84 92 98 97 91 83 71 63 58 53 43 47 51 54 58 69 63 59 57 51 60 59 55 64 57 44 35 34 39 47 34 28 28 31 31 28 27 24
82 84 83 85 86 88 88 90 92 96 99 93 72 74 55 58 49 46 44 47 46 54 54 58 57 61 58 64 71 54 58 48 44 34 34 41 43 34 29 27 30 30 32 30 28
85 85 73 80 93 79 76 86 96 100 97 86 70 51 46 49 53 45 44 45 42 54 63 54 69 76 55 52 47 47 50 48 35 27 34 35 34 31 27 27 25 27 28 28 28
86 88 75 84 78 83 71 78 86 100 98 82 52 49 50 51 60 50 44 52 55 67 55 69 80 49 41 40 45 48 54 52 39 30 35 40 41 34 31 29 26 25 24 24 25
87 85 86 86 84 77 81 73 73 93 98 82 60 53 55 47 57 58 44 47 57 64 66 65 52 45 49 48 53 52 54 50 47 41 39 42 46 40 26 29 27 25 23 22 23
86 78 79 87 78 74 71 85 78 84 100 99 86 58 54 54 57 45 42 43 53 65 53 53 45 44 48 53 48 56 42 43 44 55 67 45 76 42 30 22 23 24 25 24 23
78 77 78 84 85 71 86 98 97 91 98 95 84 49 53 59 60 61 44 45 54 54 54 62 53 56 59 49 43 49 48 50 51 61 71 58 72 46 29 29 21 18 21 24 23
85 88 92 95 86 74 81 89 83 99 98 99 88 76 74 57 56 56 53 45 41 47 45 50 42 45 49 43 44 46 51 52 55 64 96 66 55 40 29 25 20 15 17 20 18
88 94 98 96 84 64 78 91 99 97 93 100 97 75 64 66 69 64 71 73 75 86 76 58 56 49 45 55 50 52 63 93 96 98 88 37 49 37 25 22 19 18 20 17 18
88 81 85 94 95 68 84 99 98 79 98 64 81 72 71 62 70 72 75 82 60 60 75 87 84 57 50 57 63 66 63 89 76 82 68 43 65 37 19 18 17 17 19 20 21
92 82 90 99 100 77 94 98 96 77 63 74 86 99 95 63 66 68 73 68 56 50 81 79 71 48 51 49 52 66 82 56 78 68 89 58 34 26 22 22 21 20 20 22 22
99 79 89 95 84 78 96 93 78 90 55 58 71 58 78 69 69 67 68 52 50 46 46 55 80 50 51 47 50 57 47 84 92 97 80 50 41 40 28 27 26 25 24 27 27
92 88 92 86 78 94 99 100 85 67 46 52 59 56 52 71 62 60 54 46 44 47 41 46 59 68 64 70 68 69 74 79 74 87 94 80 52 26 31 26 26 29 29 27 28
82 98 90 78 95 100 98 98 87 62 56 46 40 44 49 52 60 56 53 46 40 44 57 46 61 93 80 52 50 52 65 65 90 81 81 82 68 33 32 28 27 27 26 24 27
90 96 85 89 92 94 91 91 77 70 67 51 48 42 40 47 55 49 49 41 42 47 53 50 84 93 88 63 48 58 54 53 63 75 90 93 65 27 30 30 30 28 29 26 26
91 93 88 86 88 79 97 92 92 78 56 48 48 43 43 47 48 54 58 52 43 47 55 51 64 85 90 78 67 97 80 64 72 98 81 76 66 48 40 37 49 54 50 44 35
95 87 79 94 86 80 87 83 88 82 56 48 53 47 46 54 53 53 49 58 50 58 51 57 97 84 75 64 66 73 73 69 89 94 98 80 80 66 59 55 45 41 54 54 61
97 96 89 64 67 88 71 91 72 57 57 52 52 45 43 49 58 51 53 52 62 57 60 61 97 98 93 71 70 80 72 70 67 76 96 95 94 67 63 53 52 68 68 68 69
85 89 97 73 58 54 60 54 59 56 61 60 51 52 60 68 59 58 56 51 53 61 66 83 99 96 90 64 73 87 74 79 79 82 87 97 83 66 61 54 65 75 79 76 70

GFSSW_925_rhum_015.txt.gz
RH
71 71 72 74 80 95 98 100 99 96 99 92 90 96 96 93 92 95 90 83 64 70 72 62 64 50 46 46 42 40 69 74 59 50 39 28 31 19 19 21 19 18 18 40 44
70 69 69 69 71 76 95 97 100 100 99 96 93 91 94 89 99 96 76 72 78 69 73 56 58 49 56 51 50 55 73 65 46 40 36 30 36 35 23 23 22 21 23 37 42
66 65 68 68 68 69 77 93 98 100 97 96 95 86 79 87 84 77 63 75 73 73 64 53 55 47 58 52 53 52 69 51 47 37 32 36 38 34 33 29 25 23 22 32 37
70 71 69 71 68 70 68 71 92 99 99 98 96 89 73 89 87 70 63 74 72 73 68 65 59 57 59 61 48 59 47 44 42 38 36 37 37 43 36 33 32 29 24 25 26
78 76 73 81 72 70 67 71 78 92 99 94 93 90 76 94 87 70 69 73 76 76 75 74 68 56 60 52 48 49 45 40 39 37 37 34 40 43 43 38 35 34 32 33 28
84 78 76 73 69 67 73 71 67 92 98 99 90 89 91 91 61 59 62 72 77 72 79 76 56 53 56 54 51 40 43 44 43 45 43 43 45 41 40 34 36 34 34 34 34
87 73 77 78 79 78 70 73 70 75 95 100 91 87 76 71 61 60 54 59 58 70 75 66 58 60 55 55 51 45 56 55 52 48 48 40 51 52 44 41 42 42 39 35 33
79 86 84 82 81 80 81 80 77 80 93 99 94 87 87 50 53 58 56 54 54 60 62 64 58 57 56 48 50 56 57 78 53 45 46 46 61 45 39 42 42 39 37 36 32
86 86 85 83 82 84 86 84 85 86 94 97 99 85 79 54 51 47 53 56 64 68 71 64 63 61 56 61 67 64 81 77 62 40 43 50 54 42 37 37 40 40 37 35 32
85 86 87 86 85 86 76 86 83 91 81 100 90 85 69 62 52 43 45 53 56 72 86 85 76 71 64 68 84 70 77 57 55 39 38 43 51 43 37 34 37 36 40 40 36
84 85 86 88 87 76 83 75 96 98 99 89 76 66 55 51 50 48 43 49 55 61 71 65 80 85 80 70 60 59 55 60 49 37 38 41 44 38 31 34 32 29 36 33 32
86 88 86 85 85 87 84 88 87 96 91 77 66 61 54 50 61 53 45 57 69 79 65 75 89 67 55 57 61 57 62 62 49 38 42 47 45 38 35 33 31 30 31 32 33
84 85 82 78 88 84 77 80 82 80 97 95 81 62 61 53 65 60 51 54 67 71 68 79 60 55 58 59 55 56 59 59 56 47 45 51 54 45 36 34 31 30 28 28 30
76 80 82 80 76 76 83 84 97 80 100 100 90 62 57 57 69 48 47 51 60 69 69 62 46 51 58 63 53 66 50 53 57 62 71 54 83 62 39 34 27 34 34 31 28
84 87 92 91 91 84 82 82 87 86 97 98 86 53 59 71 64 59 44 49 61 65 61 78 59 59 57 53 45 56 52 56 57 68 73 70 77 67 42 38 29 24 20 22 31
90 93 94 94 97 83 80 79 90 97 97 100 84 78 82 66 64 63 56 49 46 52 56 55 45 48 56 46 48 48 55 56 61 74 97 76 67 58 36 30 23 21 17 17 19
95 98 93 94 90 83 77 90 95 97 96 100 96 77 76 78 74 67 70 75 77 84 86 63 61 49 46 59 51 59 70 94 92 95 90 56 70 50 30 26 23 23 23 19 19
98 85 79 95 91 78 76 98 97 98 100 86 79 72 80 69 77 70 77 82 68 66 88 89 90 67 56 62 70 71 66 88 86 96 81 55 67 46 30 26 23 21 22 22 22
80 70 95 98 88 71 89 96 98 100 85 86 91 100 85 68 82 74 75 71 64 64 80 91 79 56 55 50 59 70 83 61 82 75 94 74 52 33 26 24 26 27 25 26 26
83 84 97 96 72 67 96 98 99 97 78 64 93 83 98 76 82 76 80 60 58 55 53 61 83 57 59 50 52 62 57 85 93 100 94 70 58 48 34 29 30 36 32 31 34
74 91 88 72 74 93 100 100 94 73 62 66 66 67 71 84 73 71 75 54 52 55 54 50 66 72 63 72 77 72 84 77 78 93 98 99 70 38 37 33 33 31 30 32 28
85 98 82 90 98 99 100 98 90 81 75 67 47 52 62 76 72 68 67 54 46 47 62 48 71 96 80 62 57 61 71 75 92 81 92 94 69 35 33 34 33 34 32 30 35
96 94 82 89 100 99 96 88 85 83 67 54 54 46 50 58 69 56 56 46 47 48 60 50 76 92 81 73 59 69 66 64 70 81 84 90 65 35 37 36 37 41 50 52 48
94 93 87 92 92 91 98 92 92 75 67 54 51 44 50 52 51 58 70 51 48 54 56 50 76 81 85 81 73 88 76 67 72 98 82 76 64 52 49 52 60 55 48 49 54
97 88 80 96 88 86 87 91 83 80 59 52 55 50 52 60 58 63 66 61 52 58 53 66 92 90 80 76 77 79 76 73 83 80 97 69 73 64 58 66 69 62 58 62 68
95 99 89 87 83 85 84 86 79 70 75 58 56 60 64 66 63 62 59 67 68 64 63 66 87 96 98 79 80 87 75 73 75 75 74 74 80 59 57 61 65 68 74 75 76
85 91 97 82 81 83 74 72 66 63 63 67 61 76 83 78 69 68 58 57 58 65 68 83 98 96 92 73 82 92 79 70 76 77 77 96 76 68 64 69 84 86 83 86 80

GFSSW_925_rhum_018.txt.gz
RH
75 68 66 69 70 70 73 84 96 98 99 99 96 93 96 95 90 94 87 78 62 77 65 69 67 56 54 50 45 49 76 80 62 56 45 32 34 29 22 22 20 20 27 43 47
70 68 69 61 67 70 66 72 83 94 99 100 98 97 94 87 94 92 85 67 81 73 82 81 63 61 62 56 52 61 83 71 52 45 42 34 35 34 28 26 22 23 41 46 51
82 74 70 74 78 70 67 64 66 76 94 99 99 96 90 87 87 73 61 84 86 82 73 70 60 53 63 54 57 59 74 54 50 46 38 40 40 37 34 31 27 25 38 45 45
91 85 82 80 80 73 69 77 70 67 86 99 99 97 87 91 92 68 75 86 80 76 72 68 66 71 67 67 55 61 53 47 44 42 42 39 36 43 40 35 31 36 28 25 35
87 89 90 84 79 77 68 63 67 70 72 92 99 99 87 96 89 62 68 82 75 76 75 74 75 64 66 62 57 55 51 45 43 46 44 39 43 42 46 40 38 38 36 32 34
81 77 76 76 82 82 80 71 72 70 68 79 96 100 89 92 61 61 69 76 76 78 77 76 73 61 59 57 57 46 47 45 45 45 46 47 47 45 42 39 40 39 39 40 37
84 85 86 86 81 82 78 78 78 77 74 80 96 99 88 73 66 61 69 72 73 76 86 77 72 59 59 58 51 48 54 54 51 49 49 43 50 58 43 41 45 46 46 41 41
87 86 87 85 84 82 83 82 82 82 82 85 94 99 80 52 55 59 58 64 65 69 68 66 58 58 57 52 53 56 60 71 51 46 46 48 60 45 42 48 49 47 47 44 39
81 82 85 87 85 86 88 88 88 88 87 86 98 89 74 56 57 62 57 58 63 69 68 71 63 64 57 69 68 69 79 76 67 49 47 56 60 45 39 44 46 46 46 42 40
84 84 85 86 86 88 92 89 74 88 86 91 99 89 67 67 54 52 53 61 70 82 82 81 89 82 69 66 84 73 84 69 66 44 45 49 61 50 43 42 42 41 39 41 42
77 84 86 86 85 86 88 81 82 93 90 79 84 67 57 54 51 48 44 57 77 81 93 88 89 94 79 75 59 57 63 66 56 44 43 46 46 42 36 37 36 32 34 34 33
76 78 81 83 81 85 86 89 86 92 88 80 77 68 55 52 63 53 46 63 79 82 71 76 92 70 63 63 66 68 70 72 57 44 43 50 50 41 38 36 34 32 30 29 30
75 83 86 88 88 82 80 90 95 86 96 84 81 69 59 52 65 63 54 58 76 72 70 81 64 62 64 60 66 64 63 61 60 53 46 55 41 41 39 36 34 30 30 30 30
88 87 89 81 85 83 90 93 96 69 99 99 91 82 61 60 72 50 49 54 63 74 68 64 49 65 70 65 58 66 52 53 57 61 74 57 79 64 44 38 34 31 39 38 36
94 93 97 99 97 90 85 80 84 76 96 93 94 63 63 71 66 63 47 48 69 69 68 76 61 58 61 60 50 59 51 54 57 69 71 70 80 64 50 44 36 30 28 27 30
85 88 99 89 96 88 77 78 76 91 94 99 92 86 81 68 69 62 56 48 46 61 65 56 46 52 56 49 49 54 55 66 72 76 92 70 73 61 40 35 24 22 22 20 19
98 87 90 92 89 87 81 92 91 95 98 100 95 74 78 80 76 69 78 70 84 97 100 67 60 50 50 63 54 57 67 85 82 96 82 64 78 69 40 33 28 30 28 26 23
77 93 96 96 81 78 79 98 92 92 100 81 76 73 90 75 76 75 75 81 67 72 83 87 83 64 53 61 68 68 64 81 65 96 86 62 76 51 36 32 28 26 28 25 25
74 92 99 95 73 71 92 95 97 99 95 86 76 90 84 84 80 68 71 77 69 64 78 88 77 58 55 53 56 72 86 62 82 78 94 76 60 38 31 25 31 36 35 37 38
76 76 92 83 72 71 97 98 100 97 79 67 95 85 95 89 83 73 73 60 60 57 55 65 86 62 60 51 53 60 61 86 92 91 90 75 68 49 35 29 36 34 34 36 34
71 94 74 72 84 95 100 100 98 84 73 67 77 75 82 76 80 79 76 60 55 58 55 54 72 72 66 73 77 75 86 80 79 90 98 95 72 45 34 31 38 37 36 36 35
83 96 70 88 98 99 100 100 92 81 76 82 52 63 76 72 76 70 82 63 51 55 68 51 78 93 81 60 59 65 74 76 90 79 95 92 79 40 40 37 40 40 42 49 44
96 94 82 88 98 100 94 87 88 82 83 56 54 50 60 69 73 61 58 50 52 53 62 52 76 92 82 74 67 74 71 69 73 85 94 92 71 40 43 38 39 48 56 62 54
93 90 87 92 93 95 87 90 83 70 65 56 56 52 50 55 53 70 64 53 50 51 57 56 79 78 86 76 77 87 77 72 77 98 84 79 62 48 46 46 50 55 60 65 63
97 94 91 98 88 87 80 81 84 85 71 54 53 48 55 64 64 76 66 60 61 61 60 63 87 91 84 78 80 79 78 77 89 74 90 65 68 60 56 56 60 60 66 67 75
90 98 85 98 86 86 83 84 85 75 77 72 79 68 56 72 65 74 69 67 64 63 65 66 90 89 93 83 88 92 81 78 73 70 69 67 71 54 56 62 70 81 80 81 80
86 90 96 84 89 85 76 68 74 66 63 71 66 79 85 78 72 66 54 59 62 70 76 77 94 89 94 72 85 93 84 77 76 76 76 90 71 58 72 72 86 82 63 64 71

GFSSW_925_rhum_021.txt.gz
RH
79 72 73 64 70 72 76 70 69 81 87 96 92 100 95 94 82 91 88 75 67 77 75 72 69 65 59 55 50 55 77 83 57 52 43 34 35 29 27 26 22 22 47 45 50
94 92 90 74 70 76 70 68 70 68 72 85 93 99 92 82 90 87 79 82 82 72 80 76 70 63 70 60 56 64 86 73 55 49 43 39 40 41 34 34 25 25 45 57 57
82 83 92 92 88 84 73 70 74 71 70 76 96 98 100 87 84 70 55 79 82 78 84 76 64 60 65 60 60 64 75 58 52 47 42 41 44 37 39 39 29 27 33 46 62
80 84 84 84 93 85 81 75 69 62 66 75 83 98 100 85 89 66 74 80 85 82 79 77 69 72 72 72 58 63 58 52 49 44 44 43 37 42 41 39 31 38 37 32 42
80 84 86 74 76 91 88 79 71 70 73 72 78 90 100 98 83 58 71 85 85 86 79 76 77 72 73 68 60 60 54 48 46 46 48 43 46 46 46 42 40 39 38 39 37
80 86 88 87 86 84 83 83 77 75 77 78 81 93 99 88 51 54 66 80 84 84 79 72 73 62 62 58 66 52 52 49 46 46 46 48 50 48 44 43 43 41 41 42 40
77 80 83 83 83 84 82 82 80 78 80 81 83 98 97 69 57 66 68 73 84 79 87 71 67 60 62 62 53 51 57 54 53 50 52 46 54 62 45 42 46 46 46 46 43
79 80 81 83 84 85 86 84 84 84 84 83 84 99 91 61 51 60 77 73 70 68 69 67 68 63 59 53 56 62 62 72 52 51 49 47 62 46 46 49 50 49 50 48 48
82 80 84 86 86 87 88 89 88 87 87 84 88 98 87 58 68 44 65 68 72 83 72 70 68 67 60 72 74 68 83 76 64 50 50 58 65 46 43 45 47 46 49 46 44
76 74 84 85 87 90 87 89 85 90 87 84 90 97 75 69 54 54 66 64 75 82 81 80 89 83 80 82 87 78 79 76 70 47 50 53 61 51 47 47 51 52 47 44 39
77 73 75 79 83 84 86 82 81 80 77 83 84 78 64 58 48 55 57 70 80 83 98 87 96 93 81 72 56 64 70 71 61 49 47 51 50 43 38 40 42 42 40 36 33
76 78 85 87 88 82 75 90 87 89 90 69 81 76 72 57 63 66 52 79 88 96 87 87 90 82 69 65 68 68 74 80 60 50 46 54 55 43 38 35 34 33 32 30 32
84 93 89 88 88 75 77 84 82 90 90 80 81 83 64 57 66 66 61 71 77 90 83 88 76 68 75 70 75 72 76 66 64 56 49 59 52 41 35 38 36 34 32 31 33
88 95 95 90 88 86 85 71 90 86 96 94 91 82 64 61 71 52 52 58 67 76 88 80 54 80 72 69 62 72 53 55 58 62 74 58 75 62 42 41 40 38 35 39 39
86 84 94 89 96 91 72 80 90 77 91 94 90 74 63 70 68 67 51 52 74 70 70 85 63 78 79 65 55 63 52 57 60 72 69 69 78 64 45 40 33 32 29 27 31
96 93 90 80 89 86 76 82 78 87 96 100 95 95 79 69 69 68 61 48 53 69 64 58 48 52 54 55 50 56 58 67 77 74 90 66 72 60 40 33 33 31 31 28 25
91 83 82 81 91 89 80 88 89 94 99 100 96 74 76 79 78 75 75 71 89 99 100 74 65 52 53 64 56 58 67 81 74 91 78 66 80 61 45 38 32 35 32 30 30
83 85 88 85 74 78 80 99 88 98 97 88 76 76 93 76 78 87 76 81 69 72 93 92 92 62 52 60 69 64 63 77 58 82 84 67 80 47 39 34 30 31 34 38 40
75 85 91 86 73 75 92 96 98 99 97 89 76 96 99 84 82 86 94 77 69 62 80 84 79 59 55 55 55 74 84 62 83 82 92 75 60 40 32 32 36 37 35 39 40
68 78 83 79 71 74 97 99 100 98 73 70 91 86 95 93 90 83 78 61 60 60 57 68 90 64 62 53 59 62 65 84 91 65 82 68 74 53 33 32 36 38 43 42 42
73 88 72 73 91 94 99 100 94 75 76 70 90 80 80 80 75 71 75 59 56 60 57 59 73 74 66 74 80 77 87 84 79 87 89 96 65 52 38 32 38 44 46 48 55
84 90 68 82 97 99 100 98 89 83 77 78 58 70 71 73 80 73 77 66 54 60 65 55 77 96 80 62 61 66 74 77 84 78 96 94 82 45 45 39 38 42 45 51 63
93 94 74 88 96 98 86 87 89 84 83 72 56 56 63 69 77 66 68 52 57 58 64 57 80 93 86 73 69 73 74 72 76 82 92 93 74 42 45 42 41 50 55 57 62
93 93 90 93 93 92 86 90 83 70 75 54 58 56 56 60 57 72 63 60 56 54 58 57 75 76 84 73 80 89 79 76 77 98 87 79 70 47 46 51 48 56 73 69 67
95 98 96 99 88 89 79 85 88 88 71 59 54 53 57 69 69 76 65 62 62 61 63 61 87 90 85 78 78 75 74 79 88 72 90 66 70 55 51 48 59 75 75 69 66
93 88 85 95 90 89 84 85 82 77 78 73 65 64 56 69 63 79 69 65 62 62 66 66 95 90 91 82 88 95 86 83 78 75 74 71 74 49 46 58 69 79 69 68 66
89 85 94 84 90 85 76 74 77 68 68 78 72 79 86 80 73 58 54 57 56 69 77 73 92 90 97 74 86 93 84 80 80 76 72 85 62 53 63 73 82 75 69 69 66

GFSSW_925_rhum_024.txt.gz
RH
83 83 86 91 90 77 76 66 67 74 73 78 83 95 94 98 93 89 92 80 74 70 84 67 80 81 61 57 54 57 79 82 55 55 41 36 36 35 30 30 27 22 33 45 64
80 75 78 81 84 78 84 86 70 66 72 76 78 89 98 99 95 98 71 79 80 73 82 82 79 67 75 63 60 67 83 74 53 46 43 42 39 40 37 42 30 24 54 68 87
75 78 78 82 84 77 78 84 84 71 64 71 73 83 92 100 89 72 51 74 83 80 81 69 68 62 72 64 63 66 76 59 55 48 44 45 47 38 39 39 34 30 38 46 77
79 79 84 86 86 88 86 81 90 79 70 69 73 79 91 95 87 62 70 73 76 81 83 82 73 73 76 75 61 67 60 55 51 48 48 47 40 44 42 39 33 36 39 36 41
73 76 81 84 84 87 86 88 90 80 76 77 76 83 93 99 82 60 64 84 78 84 84 82 82 74 72 70 62 64 57 54 49 49 48 45 48 48 46 42 42 41 39 38 38
72 74 78 79 81 82 83 84 86 79 76 77 78 89 98 98 61 61 46 83 80 90 91 74 78 64 64 67 62 59 55 52 48 47 46 50 51 50 46 44 45 44 43 42 42
83 86 83 84 85 82 87 85 83 81 78 76 79 88 94 83 59 66 75 75 86 90 84 68 62 62 63 65 57 54 57 56 56 51 51 51 59 65 48 43 47 48 49 46 44
87 83 76 85 84 87 86 86 87 88 85 80 76 90 92 72 65 64 59 81 81 85 77 66 64 63 62 55 59 67 63 75 54 56 51 50 60 46 46 50 52 51 52 51 48
89 84 77 80 84 86 89 87 85 87 86 81 77 90 84 72 73 67 60 84 83 80 71 68 68 68 60 74 72 68 88 80 62 51 50 60 68 49 46 48 56 54 52 47 46
84 77 76 78 81 86 86 86 80 88 86 81 81 99 84 78 66 53 68 83 81 85 79 78 84 84 83 72 85 84 76 76 72 49 55 59 61 46 41 50 54 52 53 53 47
77 77 86 83 87 88 78 69 80 75 75 79 84 80 71 81 58 66 73 77 83 93 84 75 93 89 75 75 64 67 72 72 64 52 53 59 56 48 40 41 43 43 39 37 34
77 82 82 90 84 77 70 86 83 84 91 62 66 77 76 72 69 68 70 84 86 98 92 97 94 79 72 67 68 69 77 78 67 51 49 57 58 47 40 42 38 35 35 34 34
90 87 92 84 84 77 79 76 78 90 91 82 85 88 74 54 68 71 78 82 82 88 90 82 85 79 70 74 76 74 77 74 70 57 52 63 55 45 35 36 34 35 37 38 37
97 98 83 84 87 81 79 77 92 90 93 82 90 86 79 60 74 55 84 77 86 94 94 84 75 86 90 87 68 76 57 58 58 63 78 60 75 57 45 47 38 35 37 39 35
95 93 98 80 94 92 80 79 86 80 73 82 87 83 71 66 69 66 76 80 76 87 94 92 89 88 81 79 58 65 54 59 63 72 66 64 76 57 43 35 28 32 36 33 29
96 90 85 92 89 90 77 76 79 83 100 99 92 91 79 70 75 69 61 56 68 72 66 72 54 58 60 61 53 59 60 67 74 74 84 64 70 50 37 34 34 35 36 37 38
96 82 83 81 93 80 76 82 86 93 99 99 92 76 78 79 81 75 73 78 91 98 100 71 65 54 54 65 56 59 66 84 66 84 74 70 76 56 46 44 36 40 37 43 45
72 79 82 88 81 84 82 85 92 93 97 91 77 79 87 77 85 83 74 82 68 79 95 92 92 61 53 60 69 65 60 77 50 74 74 71 80 46 40 34 32 36 38 42 43
62 66 77 76 78 76 93 96 98 99 98 86 72 88 98 83 83 91 86 79 68 61 80 84 85 60 58 57 56 73 84 63 86 84 88 67 56 36 34 39 39 41 44 45 43
69 73 73 70 80 87 94 98 100 97 68 74 87 80 95 94 89 95 88 66 66 58 56 66 93 67 61 56 64 62 64 81 89 63 69 60 67 54 35 35 38 44 49 49 46
71 84 68 78 85 93 99 100 86 75 76 70 90 83 88 83 75 74 82 58 55 62 57 62 74 80 63 71 79 74 86 83 77 86 82 81 52 50 42 36 40 50 49 51 52
83 87 64 82 96 100 100 98 86 84 78 72 64 69 74 74 77 71 80 61 55 58 64 56 80 97 77 64 63 66 74 75 82 76 94 94 76 46 47 43 43 46 48 58 69
91 90 59 79 99 95 85 87 88 83 78 73 59 58 61 69 73 66 67 55 59 54 60 61 79 94 85 71 69 74 74 70 74 82 97 88 65 44 45 46 44 44 53 69 75
92 94 92 89 90 92 84 91 82 71 71 56 61 55 58 61 66 70 66 63 60 54 56 57 74 76 83 72 81 92 82 78 76 96 84 84 72 50 48 45 43 46 69 70 62
96 96 95 98 91 92 87 87 84 86 74 62 56 56 61 72 72 75 67 65 61 61 62 62 88 88 83 77 79 76 76 84 85 77 82 69 74 56 48 45 44 68 73 64 71
93 97 77 91 90 89 80 81 86 79 82 68 69 72 59 67 64 80 70 66 66 62 66 68 96 93 93 75 88 97 87 81 82 76 73 69 73 49 46 46 66 77 68 73 78
90 86 96 84 88 82 80 77 78 71 71 83 73 79 83 82 76 60 54 59 59 71 76 73 92 92 96 77 84 90 87 82 81 77 70 83 60 49 65 62 77 77 71 70 75

GFSSW_925_rhum_027.txt.gz
RH
83 80 72 73 75 81 84 85 83 71 69 71 80 82 89 95 100 88 92 80 73 85 93 66 88 89 62 58 56 57 66 67 57 51 40 36 34 34 32 31 28 23 31 54 68
70 72 79 83 84 85 84 87 80 70 76 66 75 77 86 94 95 99 80 77 80 77 80 75 88 71 74 64 61 63 72 65 47 43 41 41 39 38 36 39 32 30 35 82 98
70 70 74 83 84 88 88 89 80 69 65 78 69 76 84 93 96 83 69 79 74 81 76 82 76 67 76 66 65 68 66 57 53 44 44 47 47 39 39 38 35 34 39 59 91
68 67 83 84 83 83 85 86 84 82 92 84 77 76 84 88 96 71 76 77 74 78 82 74 69 74 79 75 62 68 60 55 50 50 49 51 44 43 42 38 32 38 38 36 66
73 78 79 80 79 80 82 84 85 86 82 83 77 71 83 95 85 67 67 70 78 82 87 79 76 72 76 67 63 63 60 54 50 50 48 45 47 44 45 40 38 40 40 38 36
69 82 74 83 82 85 83 87 83 84 83 78 70 81 88 97 71 68 68 64 77 84 84 76 69 60 64 65 61 59 55 52 49 48 46 52 50 49 44 42 42 43 40 38 38
84 89 85 79 82 83 86 85 83 84 86 85 77 74 88 81 69 63 70 73 77 87 85 72 64 60 61 70 58 57 63 56 55 51 49 51 53 62 44 41 41 40 42 41 39
88 92 96 87 79 83 84 87 87 85 89 86 76 76 77 66 74 75 67 77 81 91 81 72 62 64 61 56 60 66 60 73 55 56 50 42 46 48 46 49 47 44 43 46 43
86 82 74 82 77 82 87 86 86 86 87 80 76 77 84 76 76 67 62 80 93 92 80 72 62 70 60 71 76 71 83 78 60 56 54 57 66 49 45 46 45 44 44 45 43
84 85 81 80 83 87 90 90 82 92 87 81 79 92 79 79 74 69 62 87 85 92 82 76 75 84 74 73 79 85 80 77 67 53 60 63 65 50 41 40 45 45 44 42 41
96 92 86 85 76 76 68 68 78 73 81 76 73 79 78 79 70 76 79 90 89 87 96 82 90 85 67 60 65 68 72 72 66 55 55 60 59 49 42 42 40 38 35 33 32
91 95 80 84 77 73 64 81 74 70 83 68 64 74 71 84 74 75 84 94 85 94 89 93 89 70 64 67 64 67 73 75 65 52 50 56 54 44 40 43 40 37 37 36 34
96 95 76 77 82 80 76 79 81 87 93 83 84 61 83 85 73 76 88 92 85 95 81 83 87 69 67 75 75 76 76 77 69 56 53 59 54 44 36 36 35 31 33 34 35
96 95 94 72 81 83 79 86 91 86 89 93 89 90 86 76 80 72 97 89 92 94 88 91 81 74 73 78 71 82 63 63 59 64 72 59 64 48 44 33 30 33 34 32 29
98 96 88 74 78 85 83 92 84 71 85 77 90 79 74 70 74 88 90 76 84 91 94 97 88 93 83 82 61 69 56 61 63 69 62 61 60 41 37 33 31 35 40 41 38
84 81 90 88 82 89 79 76 73 82 95 96 89 88 78 73 78 92 87 89 74 87 84 76 91 82 87 77 71 58 58 65 69 68 72 61 60 37 34 35 38 36 37 42 42
67 66 72 86 98 86 79 77 86 92 94 100 97 76 74 86 82 79 83 84 92 99 98 74 68 72 65 67 55 57 70 84 65 78 69 67 72 45 40 41 38 36 39 40 43
60 62 65 67 81 78 76 84 89 92 99 90 78 81 91 82 81 77 75 82 68 79 99 91 96 69 56 62 69 66 64 78 55 58 57 71 74 39 42 40 35 37 39 44 44
62 61 67 69 74 89 88 96 94 98 98 86 70 90 93 85 82 90 84 78 66 62 80 84 91 62 63 58 58 70 80 58 84 84 78 56 50 35 36 39 38 40 45 45 47
66 70 68 74 79 93 96 96 100 96 76 70 83 80 93 90 92 83 82 67 69 60 57 67 95 70 63 58 62 62 63 77 83 68 55 49 56 39 36 36 40 42 45 48 52
69 80 62 75 89 94 99 100 86 78 72 71 87 85 86 85 81 84 84 62 58 62 58 64 74 82 64 70 77 72 81 78 73 77 65 55 40 44 42 36 40 43 44 48 63
80 86 54 73 94 98 99 98 84 85 76 63 66 70 77 74 75 72 76 62 55 56 64 60 80 92 77 66 63 65 73 67 76 75 88 82 54 41 45 45 43 44 43 59 65
90 88 54 73 96 96 80 83 87 82 76 68 61 61 61 70 74 66 65 57 58 53 63 61 77 94 84 74 70 74 75 67 71 79 96 73 48 45 48 45 43 45 54 66 64
92 89 91 92 90 86 91 91 84 72 68 57 62 56 58 64 67 72 67 68 59 51 59 56 72 72 71 68 80 89 82 71 74 87 79 76 61 46 45 49 45 46 65 66 64
95 96 92 98 89 93 88 85 83 87 76 61 59 56 61 73 73 74 69 70 60 64 62 60 87 86 76 68 81 78 79 82 84 74 78 60 70 52 51 50 47 47 71 64 69
93 97 86 91 90 90 78 81 83 79 83 68 68 73 58 67 62 79 71 70 70 65 65 68 95 92 87 76 87 95 84 81 79 72 74 71 71 47 46 51 56 74 71 71 69
83 88 96 86 91 86 84 77 77 76 77 79 72 74 79 81 77 64 59 61 62 72 76 71 93 89 88 76 82 93 84 83 78 78 67 81 60 50 57 59 78 78 77 72 77

GFSSW_925_rhum_030.txt.gz
RH
80 73 68 75 84 82 85 84 88 79 80 72 69 75 81 90 81 90 87 66 69 87 82 64 85 73 53 45 44 41 43 43 41 38 29 24 23 23 22 19 21 18 22 42 53
82 76 66 68 87 90 89 88 91 89 80 78 72 72 77 92 82 88 85 73 76 79 86 60 85 67 52 46 44 37 42 34 28 30 28 25 21 23 24 24 23 23 29 64 84
83 79 74 74 86 82 86 86 84 73 85 82 79 75 79 82 67 64 79 82 80 78 76 63 73 62 61 51 47 38 36 29 34 28 26 27 27 27 24 27 20 22 29 52 80
86 82 79 75 82 79 82 84 86 84 79 82 84 81 73 79 90 73 84 96 81 71 69 68 69 74 61 58 46 50 34 30 35 38 37 33 28 30 27 20 22 26 28 28 57
89 87 86 80 78 82 84 83 86 82 84 80 87 75 70 71 64 72 74 70 81 69 70 66 67 65 64 54 51 48 47 39 37 43 41 37 36 30 31 26 26 27 29 26 27
88 88 88 77 88 84 86 87 85 82 84 83 79 72 69 75 44 70 82 75 76 64 67 62 52 50 52 56 50 44 45 40 39 40 41 43 39 39 29 26 26 26 24 24 25
78 87 87 77 89 91 83 83 84 83 85 87 80 70 66 59 70 76 84 81 72 63 64 61 48 53 49 58 44 46 50 45 45 41 38 38 43 43 29 23 25 22 21 26 24
84 90 86 84 72 80 82 84 88 87 86 83 79 72 69 51 59 82 76 67 73 67 65 70 51 46 45 43 48 47 43 56 34 38 39 38 32 31 28 29 27 24 22 23 24
91 95 95 77 74 82 84 85 86 85 86 73 74 63 60 63 73 76 84 69 80 74 73 69 56 53 52 52 56 46 39 40 45 44 34 38 29 27 27 34 31 28 25 25 27
89 94 97 86 79 75 73 75 83 90 87 80 73 74 57 59 66 79 78 77 77 84 80 74 69 62 49 48 49 52 40 44 37 42 48 49 39 40 35 33 32 27 24 23 25
94 94 92 88 83 68 64 75 62 68 69 49 47 65 61 60 70 66 83 83 74 76 87 71 80 75 48 43 42 42 43 41 43 48 46 41 41 38 34 31 30 27 24 22 22
96 88 89 80 74 68 64 61 73 75 62 52 57 63 64 68 71 65 80 91 89 88 81 92 84 50 41 48 49 48 48 48 51 44 43 41 42 34 30 30 30 29 27 24 23
97 88 70 86 76 77 77 81 82 87 79 79 70 72 66 72 69 72 71 93 80 90 81 93 67 45 52 51 54 52 51 59 47 48 43 44 35 36 31 28 24 23 23 22 24
94 87 74 79 73 88 75 98 90 86 95 95 92 88 90 87 87 87 92 94 87 96 87 93 79 53 49 58 47 57 53 56 55 54 46 44 31 35 28 26 27 27 25 26 28
77 65 66 71 82 74 93 91 83 74 86 78 93 85 77 72 81 95 96 82 88 95 92 97 91 66 63 55 49 53 51 51 52 54 52 46 44 30 25 26 31 32 33 33 33
67 62 64 74 87 91 80 74 75 94 91 99 92 84 82 69 75 80 89 81 73 86 87 93 84 85 86 69 51 46 48 49 50 52 70 47 46 25 24 25 29 30 30 35 35
77 64 60 64 72 75 73 73 94 86 97 99 92 74 65 80 86 80 91 90 88 99 100 97 98 84 87 87 62 52 58 78 76 85 57 51 50 27 26 28 27 31 36 36 36
78 64 67 68 73 78 80 79 88 97 100 86 68 64 78 66 93 86 79 84 60 73 81 90 95 97 89 74 89 58 57 62 56 47 40 54 43 28 30 27 27 30 34 37 39
69 72 67 70 76 86 80 97 97 100 97 66 57 68 74 69 68 66 66 64 56 55 74 78 91 63 58 52 53 62 74 45 65 61 55 32 33 28 32 32 29 30 34 41 44
80 77 72 76 82 86 83 97 97 90 74 57 67 64 72 74 64 61 65 58 57 52 49 60 92 62 57 52 50 53 47 66 74 68 47 28 29 28 34 31 29 33 38 40 47
80 68 66 72 88 77 100 100 81 70 66 60 67 65 68 73 64 66 62 58 50 53 46 51 60 76 59 60 58 59 61 58 50 55 45 27 25 23 27 30 33 33 35 39 52
74 81 61 72 82 84 94 89 79 72 64 55 56 60 60 62 64 63 53 54 46 44 51 53 65 80 68 58 54 53 53 44 49 69 62 57 31 27 28 29 31 33 35 41 52
77 76 57 80 78 78 68 70 73 65 64 55 56 54 54 58 63 57 58 52 49 46 50 48 66 88 85 66 60 65 58 52 54 62 77 49 33 34 33 32 32 38 36 47 54
80 86 70 71 76 71 76 73 69 66 59 52 55 49 50 53 51 58 59 61 51 47 58 46 58 67 54 70 63 80 65 57 58 69 53 44 36 35 32 36 38 39 41 53 54
84 90 78 87 77 76 78 76 71 70 65 54 54 51 48 56 56 58 60 59 55 60 52 50 91 80 58 60 70 66 65 65 77 55 60 41 46 33 34 39 40 44 58 56 58
85 86 71 79 77 73 72 72 75 71 75 58 56 54 50 50 45 57 55 55 55 60 53 56 92 85 81 69 72 80 64 61 62 58 55 49 50 33 33 37 46 57 60 63 61
85 87 91 78 74 70 73 72 72 71 68 71 61 59 60 61 60 54 46 44 47 54 58 59 87 83 76 64 66 74 65 63 62 59 55 62 44 37 40 42 56 60 65 62 64

GFSSW_925_rhum_033.txt.gz
RH
92 89 87 80 70 80 85 88 87 88 87 80 75 71 74 82 82 81 90 72 62 64 85 53 72 74 50 43 34 33 59 59 40 31 26 19 23 18 16 15 15 14 18 35 54
85 88 86 83 81 79 80 69 76 72 73 76 78 72 78 82 65 65 71 86 69 70 71 47 66 65 54 45 41 44 50 44 27 24 27 22 22 17 21 18 16 18 25 44 62
84 88 89 87 87 80 85 85 84 79 73 78 84 84 77 70 54 40 54 73 78 71 79 44 53 63 55 41 40 37 37 30 24 26 24 23 22 15 21 18 16 16 22 43 60
85 87 88 89 86 80 79 84 84 84 81 73 87 83 74 60 51 30 71 82 82 71 69 52 49 72 57 51 39 40 30 23 23 27 30 26 20 22 21 16 14 17 23 25 47
82 79 86 90 85 82 89 87 85 84 82 86 77 80 65 55 43 80 84 94 92 74 66 51 48 61 59 45 37 43 28 27 26 35 31 23 23 22 21 19 21 22 24 23 23
85 88 89 90 76 77 92 78 85 82 83 84 85 76 60 67 32 54 64 83 88 88 52 44 41 48 48 41 40 40 36 33 30 37 36 35 27 27 24 20 22 21 21 19 20
87 90 94 82 77 71 77 82 87 85 83 84 86 72 56 52 44 76 67 70 78 90 44 43 37 48 42 49 38 38 41 39 34 35 35 35 38 34 25 22 22 20 19 18 16
87 90 92 86 79 89 85 83 87 89 88 85 85 62 60 42 43 53 91 84 66 82 42 47 39 40 43 36 43 45 44 50 36 39 34 37 37 25 23 24 24 19 17 16 15
92 93 87 85 86 85 80 82 90 88 88 74 71 58 51 48 47 45 92 73 65 81 48 57 46 49 43 48 52 45 45 40 34 32 35 40 34 22 20 22 23 20 18 18 17
93 94 89 89 74 68 68 65 75 80 81 70 63 63 46 49 54 81 87 78 93 62 77 75 66 50 46 42 48 41 38 28 29 41 36 35 35 22 26 24 25 20 19 18 18
92 94 84 86 67 62 71 71 63 64 56 46 42 50 59 64 66 79 81 98 68 72 85 76 76 68 44 32 25 23 32 27 24 38 41 39 32 26 27 27 25 22 20 18 16
84 71 92 80 68 62 65 54 67 71 55 41 44 52 56 62 74 70 82 89 72 79 51 85 79 43 32 30 36 36 35 36 32 36 40 28 34 29 27 26 23 22 20 18 17
90 60 66 71 71 67 65 75 84 77 80 79 67 67 70 72 65 82 76 88 80 62 68 73 61 41 42 38 43 36 37 35 43 43 37 38 36 32 26 27 25 22 21 20 20
95 75 62 62 77 72 67 88 87 85 99 96 83 79 72 79 92 86 86 80 89 64 75 76 60 50 50 48 35 42 33 43 50 48 35 34 20 30 29 26 24 22 20 20 22
96 89 73 68 68 65 80 83 80 75 93 95 91 81 85 86 78 88 89 89 92 92 94 96 82 56 51 42 34 46 43 46 50 52 50 42 38 26 24 27 28 28 29 28 28
99 91 69 75 71 78 82 77 71 99 94 99 91 90 92 81 78 85 85 84 81 88 84 94 86 78 71 44 36 43 46 47 47 49 71 42 35 28 24 22 27 27 27 29 28
100 94 75 79 59 77 79 66 98 90 96 97 86 80 72 80 84 81 95 95 98 100 100 99 97 92 80 61 48 46 51 75 77 85 63 41 46 26 21 20 23 26 29 29 30
94 87 76 74 81 84 75 82 93 91 96 71 68 56 88 84 89 76 91 94 66 72 100 100 98 97 88 78 69 57 50 63 63 58 48 42 45 28 21 22 22 28 30 32 35
76 72 74 72 84 85 72 97 95 100 82 56 48 62 78 59 71 72 56 62 68 55 85 94 97 89 90 70 56 70 72 42 55 38 43 33 28 27 27 26 24 26 28 35 39
76 63 60 76 86 80 74 96 89 78 65 48 56 52 61 57 52 47 49 48 53 46 42 55 87 89 87 72 67 66 47 71 73 75 40 30 22 27 32 30 27 27 32 35 39
71 58 70 82 92 68 92 88 63 58 56 53 52 51 56 59 48 46 49 51 43 44 40 45 54 71 70 68 64 59 65 53 51 50 51 25 22 22 26 28 31 31 31 34 41
70 81 71 84 69 61 74 76 76 58 51 47 47 48 47 48 50 48 46 46 40 38 45 47 58 79 66 52 47 46 45 42 51 63 46 48 35 20 26 28 29 32 33 33 44
64 57 72 74 70 56 57 58 59 52 52 45 48 47 45 47 54 50 47 45 43 41 42 44 64 88 78 60 53 59 50 46 45 54 69 47 36 24 26 28 29 35 35 36 47
67 86 55 51 58 48 54 53 56 59 49 45 46 42 45 46 40 51 52 52 44 42 53 40 49 68 58 72 52 67 54 51 55 68 45 36 34 32 30 30 36 37 38 45 48
66 82 72 75 59 61 63 61 56 57 54 46 48 44 41 47 44 48 49 52 48 57 45 44 91 77 49 54 62 60 54 55 71 54 50 32 30 28 28 34 36 41 49 52 52
79 92 68 60 60 60 64 60 62 58 60 48 50 43 40 42 38 45 46 46 47 49 47 48 86 77 83 58 61 69 56 51 53 52 44 39 40 27 26 33 40 47 54 55 56
67 74 79 66 59 57 58 62 64 61 60 57 52 46 47 45 44 42 36 35 39 47 51 53 82 87 72 57 59 69 57 54 51 48 44 50 37 33 35 37 45 52 57 57 57

GFSSW_925_rhum_036.txt.gz
RH
81 82 84 88 89 89 84 82 82 75 80 83 85 80 73 76 80 86 83 81 72 78 62 57 69 76 70 58 46 54 82 84 74 59 37 22 24 20 16 18 15 16 42 60 72
83 84 87 82 91 88 86 85 84 84 72 83 81 86 74 81 75 63 65 68 76 66 66 52 70 72 65 58 51 54 75 68 54 49 41 25 24 24 22 22 18 23 41 63 73
81 84 86 84 89 88 83 77 82 84 82 66 80 80 78 68 62 49 48 74 85 72 68 47 57 64 73 52 51 50 60 51 62 48 35 28 25 21 24 27 20 21 40 52 67
85 88 90 89 86 87 83 82 84 84 83 74 71 79 82 65 74 62 35 67 76 72 68 62 45 71 72 64 44 47 44 37 33 32 31 30 23 24 22 22 19 21 29 52 60
82 87 87 95 89 89 88 83 88 87 84 78 73 76 74 62 54 57 48 66 80 82 60 68 49 63 71 56 43 50 38 31 28 36 33 29 28 24 24 22 24 26 27 25 34
79 86 88 92 80 87 89 75 83 71 83 84 85 81 66 70 39 49 70 85 85 81 54 57 43 46 55 48 47 40 40 35 29 36 35 34 28 25 24 22 24 24 26 25 24
86 83 91 86 74 88 80 69 74 77 84 84 85 76 62 53 49 76 68 72 81 82 56 50 39 44 52 56 40 38 48 40 35 39 38 36 42 36 26 22 25 25 24 23 21
89 90 92 84 78 86 88 85 87 89 88 88 85 67 63 44 43 42 69 79 67 78 79 53 47 39 51 43 44 48 45 59 41 39 36 40 49 34 28 29 30 26 24 23 22
93 95 93 87 84 73 73 71 76 90 87 74 75 64 57 44 42 40 44 69 65 78 76 74 56 46 56 62 68 54 60 58 45 38 39 43 43 32 25 27 30 29 26 21 20
95 90 90 84 64 62 58 62 72 80 78 66 57 61 48 42 41 39 47 83 72 86 82 95 75 61 63 73 89 70 56 48 48 43 43 48 47 32 25 26 26 26 24 22 21
83 83 90 74 67 60 75 71 74 69 58 54 53 48 45 56 51 56 79 89 74 86 95 87 81 78 64 52 48 38 44 42 33 39 44 45 42 35 30 30 32 31 27 24 21
94 90 92 76 67 63 66 52 65 69 71 42 40 42 48 61 73 71 76 89 86 96 71 88 88 54 47 40 39 33 39 39 30 39 41 39 41 33 29 31 32 30 27 24 22
97 89 90 91 69 66 68 72 76 74 94 76 66 66 70 82 81 83 78 83 91 89 79 78 61 45 40 40 40 40 41 37 43 45 39 41 44 38 31 29 28 25 24 23 23
100 99 90 77 82 66 70 83 83 81 100 95 85 84 77 91 94 90 91 86 86 72 65 81 54 52 46 43 35 47 33 34 50 55 58 40 38 36 35 34 29 25 25 24 24
98 99 97 68 87 61 73 78 70 74 94 90 87 72 81 92 91 96 92 69 86 78 85 96 78 69 58 49 37 40 44 47 51 57 58 48 55 34 36 34 30 31 34 34 33
97 98 82 76 78 70 78 76 76 99 97 96 88 79 85 71 75 77 80 74 81 78 82 93 79 88 84 54 39 42 52 52 50 56 89 58 46 44 38 31 34 35 35 35 34
99 100 93 76 70 74 78 75 99 93 97 94 93 88 70 75 79 77 94 96 98 98 100 95 98 85 76 71 52 48 63 89 94 95 87 46 50 41 23 28 32 32 36 34 34
76 77 87 73 73 81 78 95 88 83 97 69 75 68 76 74 81 88 96 100 91 85 100 98 98 97 86 80 70 59 59 83 73 90 73 43 64 38 26 26 28 34 34 36 37
67 77 73 73 82 81 90 88 88 98 74 57 51 81 85 66 65 90 90 95 88 83 98 99 100 94 87 80 62 71 84 46 70 40 76 57 36 29 28 28 33 33 33 41 42
91 64 59 70 84 84 91 84 80 74 62 50 59 51 62 55 57 61 66 70 70 59 50 63 98 95 93 81 73 64 48 75 93 78 62 46 39 42 39 35 30 33 31 40 46
90 66 76 82 87 86 94 86 60 53 52 55 49 46 51 54 51 46 53 48 42 44 42 50 67 99 95 99 92 82 83 67 62 70 85 52 39 31 34 31 32 32 34 35 43
83 92 74 87 90 70 86 65 68 52 49 46 46 48 47 46 45 46 53 51 39 39 48 50 65 93 93 58 50 67 67 63 85 75 64 68 50 27 31 34 35 34 33 35 54
78 64 74 75 83 63 57 55 54 51 49 44 46 46 44 43 51 48 52 45 42 46 49 49 76 94 78 66 55 63 54 55 55 74 81 80 52 33 34 34 35 38 38 50 55
74 89 75 72 58 62 58 53 59 59 50 44 44 42 45 45 39 52 55 51 44 47 48 46 56 78 85 73 67 74 61 57 67 90 61 56 44 35 37 36 40 43 53 55 57
64 83 69 96 70 65 58 58 54 60 54 45 48 45 42 47 44 48 53 56 50 58 46 52 88 74 50 54 68 65 61 60 76 67 71 42 37 37 36 39 44 50 57 57 58
82 90 75 70 59 61 70 58 61 57 58 48 52 42 39 44 41 49 50 48 49 52 50 55 93 83 81 55 59 72 64 55 60 60 58 52 45 30 30 42 47 59 60 58 61
59 67 84 65 58 58 69 66 62 64 58 54 59 57 47 66 56 48 39 37 42 53 56 61 91 92 84 57 61 82 68 62 57 53 54 63 43 35 42 44 48 62 61 62 62

GFSSW_925_rhum_039.txt.gz
RH
79 79 81 87 86 87 88 84 85 81 84 87 84 83 85 75 77 79 88 78 73 76 60 56 60 76 80 82 55 60 87 87 76 66 54 44 41 20 19 20 27 41 66 77 69
88 87 89 92 93 88 86 81 82 78 86 84 84 81 82 79 80 78 73 76 79 79 58 61 73 80 80 81 78 86 87 76 53 52 57 52 45 23 22 22 25 70 82 75 70
80 73 83 85 94 86 84 85 84 85 87 82 73 74 82 73 70 60 32 70 78 80 65 58 63 80 75 70 76 75 78 57 50 46 73 63 56 28 26 26 24 65 88 81 80
75 83 84 89 85 78 89 88 83 86 75 82 72 81 84 74 82 45 53 60 80 85 68 60 66 89 83 74 57 62 54 51 48 74 74 63 41 28 25 26 30 39 66 78 85
86 82 82 89 85 85 89 90 79 76 71 70 69 76 76 75 67 47 52 58 78 78 70 72 66 80 85 69 55 61 46 43 47 58 60 60 48 34 25 32 30 32 47 72 78
83 84 88 90 86 85 88 83 74 83 81 84 76 78 79 89 49 56 59 59 72 74 68 71 54 65 69 62 60 49 48 44 38 48 45 59 38 34 25 28 30 29 27 27 41
90 91 95 84 87 81 82 80 72 76 78 84 86 79 72 66 48 57 64 72 70 73 68 63 52 58 56 62 50 44 53 47 43 44 41 36 41 40 31 26 28 27 27 24 23
87 86 88 88 86 86 87 86 82 84 88 88 85 73 80 44 44 44 56 74 70 87 80 62 59 54 61 53 58 56 52 67 46 45 40 35 53 39 33 30 31 29 27 26 25
92 93 89 86 79 70 69 66 75 83 87 68 70 72 71 43 47 38 43 63 64 77 78 76 62 65 54 67 77 74 75 68 52 44 42 45 53 39 34 34 35 35 33 31 26
92 92 94 90 59 64 66 73 74 81 74 71 60 64 57 49 54 40 42 57 73 85 82 76 82 78 76 82 91 79 66 59 59 48 44 52 53 42 28 35 36 33 29 26 25
97 94 91 91 78 65 69 74 74 78 64 61 62 60 45 52 52 45 71 74 79 76 85 86 97 87 67 69 58 58 56 54 50 42 51 54 51 41 39 31 34 32 31 28 25
99 98 95 63 76 73 61 67 66 70 86 60 51 46 44 60 73 76 71 81 88 91 81 97 96 70 59 60 62 51 59 54 43 43 48 53 54 44 40 36 36 35 34 30 25
91 99 99 78 65 72 71 78 78 75 95 76 64 70 76 72 71 88 74 80 88 89 93 94 76 57 58 58 57 52 48 51 51 46 41 41 46 43 38 33 34 33 30 25 23
91 98 100 95 79 64 75 76 78 80 100 98 88 89 79 81 90 85 86 80 92 86 80 74 63 59 57 58 48 56 39 44 56 57 62 40 56 37 39 36 35 32 28 25 24
92 97 100 96 76 78 72 70 73 79 95 81 87 89 88 95 84 83 87 89 89 95 85 96 84 72 63 53 43 49 48 55 54 62 59 50 64 48 39 43 36 31 31 32 35
93 99 98 80 86 73 66 75 79 97 96 99 89 94 97 92 93 88 92 80 74 87 85 91 78 92 81 62 47 47 56 58 60 66 87 63 63 52 47 39 37 41 42 41 42
86 100 98 82 79 75 76 84 97 96 86 96 92 77 71 79 84 78 92 93 97 99 99 96 98 82 82 73 57 55 68 95 93 94 90 53 64 48 34 34 40 44 42 40 42
59 78 74 68 73 77 81 96 91 86 100 79 75 72 82 75 90 87 94 98 86 91 99 95 98 95 85 74 78 73 63 84 87 96 84 49 70 49 31 31 34 38 42 44 56
68 75 78 73 79 78 94 94 94 93 82 70 64 80 76 74 88 92 96 96 89 84 90 99 98 92 85 88 79 75 77 50 68 56 83 63 45 33 31 41 40 43 45 51 59
87 78 72 78 77 80 92 91 90 82 71 61 66 53 64 62 73 86 95 84 90 70 64 77 98 96 89 82 76 74 55 82 91 89 70 62 49 50 41 42 41 40 42 48 55
93 84 77 78 84 89 95 85 72 61 56 63 61 57 57 58 54 59 66 72 74 70 56 59 81 99 96 98 97 86 84 69 71 83 87 57 48 35 36 34 38 37 34 42 62
95 96 77 85 94 93 92 70 64 57 52 55 51 54 55 51 53 66 68 57 44 49 72 53 82 99 99 81 71 70 76 65 87 77 74 81 60 31 36 34 33 33 36 46 62
99 88 77 87 95 81 60 64 62 60 53 52 50 48 47 50 58 58 62 48 48 52 53 55 81 98 99 90 78 90 80 75 67 74 82 78 55 38 40 40 38 40 39 61 62
96 87 82 95 71 68 66 60 68 58 56 47 48 46 48 47 41 59 66 52 46 49 46 47 68 76 82 72 78 82 73 74 92 96 71 69 47 44 41 40 39 47 62 64 64
89 89 78 95 84 74 65 63 58 63 60 47 52 50 52 50 48 58 61 60 52 52 48 61 81 69 58 64 69 68 68 69 78 65 70 50 48 41 41 40 53 64 65 65 65
82 94 83 96 74 67 70 70 74 70 66 57 60 47 43 69 63 54 58 57 58 57 54 66 91 81 77 59 64 71 70 68 64 59 63 61 61 34 36 49 66 69 67 65 66
74 77 93 77 71 71 74 74 72 73 58 60 66 66 70 66 62 53 45 46 50 63 65 72 87 91 88 62 65 76 72 66 64 58 56 67 51 37 50 54 69 72 68 68 67

GFSSW_925_rhum_042.txt.gz
RH
83 80 78 80 85 95 78 87 77 80 84 87 90 86 85 84 85 89 86 76 77 56 67 61 52 74 81 76 66 65 92 83 77 68 64 51 60 46 24 38 53 80 76 73 74
82 78 78 83 85 87 78 83 81 86 87 87 85 86 88 81 81 76 76 68 82 68 64 58 73 80 92 88 85 82 80 74 54 53 63 62 66 58 33 31 69 92 84 80 74
82 78 81 85 88 79 78 85 83 76 86 86 82 73 89 73 70 59 45 63 72 81 67 57 63 85 76 89 91 86 77 55 50 48 80 73 67 54 47 29 58 85 88 84 90
82 82 83 87 92 83 87 88 84 79 71 81 77 83 81 73 82 48 57 62 72 78 73 60 80 96 85 94 78 84 60 51 56 80 71 74 67 64 41 29 26 73 84 84 92
83 90 91 89 88 87 90 85 86 78 77 70 67 81 81 71 71 54 72 58 66 74 88 67 86 86 86 74 68 61 59 55 63 75 78 74 72 69 60 37 36 77 80 84 86
80 82 87 87 87 87 90 89 85 71 84 85 73 77 75 85 54 59 65 58 70 77 86 67 75 73 73 70 69 59 51 56 69 72 72 82 73 72 40 28 42 53 76 83 82
84 87 86 86 85 86 88 85 81 74 88 85 81 70 78 73 51 45 63 65 71 72 79 70 55 70 64 68 56 51 62 55 54 55 55 57 79 69 42 32 32 32 33 37 48
90 92 89 88 86 86 67 84 88 87 78 69 79 77 81 43 45 45 53 77 78 78 65 69 55 58 61 56 65 56 56 70 51 50 46 49 62 50 38 37 35 32 31 28 26
95 92 92 93 86 78 88 73 72 84 85 63 71 73 74 46 48 41 45 63 77 83 82 65 62 70 59 73 86 76 80 68 58 47 47 42 50 40 35 38 37 38 35 32 30
98 98 95 76 83 86 80 75 71 74 70 75 68 74 54 57 50 44 43 57 75 87 88 82 85 85 76 84 83 78 77 58 56 52 48 53 54 40 39 38 40 40 38 31 26
92 91 98 94 72 74 73 71 74 72 68 66 62 62 50 44 59 70 67 68 78 82 96 92 86 86 78 72 60 64 57 64 54 46 49 50 55 46 42 36 40 38 34 30 26
89 92 98 99 72 64 66 68 73 70 83 61 62 56 52 60 73 78 59 81 88 90 92 96 86 69 66 66 63 61 62 60 47 44 51 55 56 48 46 44 38 35 36 34 26
90 93 98 100 90 71 68 80 78 75 89 77 67 72 83 76 74 85 69 79 85 85 94 88 74 67 64 71 74 60 67 56 51 48 43 46 51 50 44 42 37 38 35 34 30
93 92 96 99 86 72 76 71 74 79 98 97 86 87 76 81 88 81 73 83 89 83 85 86 66 71 69 68 60 69 45 43 55 59 72 42 68 42 41 43 42 40 38 33 28
94 94 98 99 79 83 71 67 76 81 96 94 95 87 82 86 86 89 78 77 87 89 89 95 81 72 72 64 46 54 45 59 56 63 60 53 58 47 41 50 44 46 36 33 35
93 99 99 85 100 77 67 75 80 88 94 100 95 94 91 82 85 89 84 78 74 85 84 93 84 83 70 60 47 54 59 64 70 68 82 64 63 62 48 45 41 38 39 38 48
92 100 98 85 84 76 75 84 91 92 79 90 95 99 92 97 92 77 83 97 97 99 100 97 96 83 83 66 57 57 65 92 90 92 82 58 71 49 40 36 39 46 51 51 53
74 79 68 71 77 78 80 93 88 82 100 74 78 89 99 95 94 92 96 98 86 82 99 98 99 93 86 76 72 64 59 85 83 98 81 54 71 54 36 34 36 41 44 48 57
70 80 85 76 77 78 87 93 80 94 75 79 66 80 99 94 92 89 89 89 83 84 87 96 98 88 84 89 78 73 81 56 72 70 86 67 56 38 38 42 45 45 47 52 65
84 84 79 76 80 84 88 90 88 78 75 73 71 54 69 82 95 96 92 77 83 75 74 83 98 96 86 83 74 72 59 80 91 85 74 62 63 52 43 49 46 48 52 62 65
87 86 83 80 81 89 93 90 81 68 68 63 66 58 58 59 69 75 87 81 76 76 71 74 80 99 92 97 88 86 95 81 79 79 87 72 58 40 41 45 46 46 49 58 66
92 95 85 85 99 97 92 71 65 59 54 60 53 54 56 53 60 71 71 65 68 62 83 63 91 100 98 84 72 74 85 66 91 90 84 83 62 36 37 40 43 40 37 41 63
98 91 86 91 96 83 65 67 64 62 57 55 54 51 49 51 66 64 62 53 61 58 68 61 88 98 98 90 84 96 88 72 68 78 82 78 53 40 38 36 34 36 41 64 65
92 87 84 94 88 78 70 62 71 59 58 50 51 47 50 48 54 66 65 55 50 50 49 51 75 77 81 70 84 98 89 82 80 92 72 81 51 42 42 40 39 41 55 68 66
93 91 83 92 76 76 72 65 65 66 62 51 53 51 53 54 55 69 65 60 54 51 52 56 80 72 62 68 71 73 77 80 94 69 83 56 60 44 40 42 42 55 69 70 71
93 90 91 92 82 74 78 81 75 74 69 68 64 68 59 73 64 63 62 62 61 57 56 70 92 75 75 61 65 70 71 75 78 78 78 61 67 44 35 41 62 72 71 68 69
79 80 97 74 61 75 77 75 76 78 64 69 73 68 70 66 62 61 50 51 51 63 68 74 88 88 83 68 66 76 70 70 70 64 67 72 48 41 47 44 68 75 72 68 68

GFSSW_925_rhum_045.txt.gz
RH
80 82 78 84 84 85 87 73 80 73 76 81 88 91 87 83 86 93 95 74 75 69 72 62 70 66 86 89 81 70 82 72 72 67 65 57 71 59 50 42 64 92 79 78 77
83 80 78 81 85 89 78 77 87 77 80 89 87 87 88 81 87 88 85 72 79 84 76 72 72 79 97 89 90 89 84 69 48 56 70 65 69 66 58 56 62 95 92 88 91
79 85 85 84 88 92 82 75 80 74 78 89 87 85 81 81 70 67 63 76 73 82 79 66 60 78 88 87 95 86 81 59 53 64 78 74 62 63 62 52 43 64 95 93 93
80 78 82 83 84 88 90 90 88 74 81 75 73 74 85 72 90 62 81 69 63 73 78 67 81 87 78 93 83 84 60 52 66 70 71 68 70 74 60 48 47 47 82 93 91
83 83 84 84 83 88 90 88 87 85 87 76 68 82 79 80 69 57 58 59 68 70 82 70 87 75 68 88 79 77 61 50 74 75 72 75 77 83 77 56 42 44 89 93 92
87 87 86 86 84 85 89 87 85 74 84 76 77 78 79 95 58 54 58 60 65 72 80 67 80 62 71 80 82 71 60 70 76 73 71 73 70 84 61 50 45 84 87 86 91
92 90 90 89 87 87 87 88 87 88 88 86 69 70 75 73 54 48 68 68 65 74 79 74 64 76 68 77 62 67 75 86 85 76 83 70 88 92 62 57 48 37 85 81 82
93 97 91 92 91 89 90 86 76 78 86 82 86 72 81 45 53 46 59 75 74 75 79 80 58 66 64 60 68 71 74 89 74 75 70 65 77 71 64 59 50 40 37 37 44
90 96 98 93 94 80 88 90 72 72 88 71 70 72 68 50 60 44 45 74 82 85 85 86 61 70 64 82 87 74 89 77 67 58 66 60 64 52 54 50 49 42 39 35 31
82 88 98 96 95 86 73 69 78 68 71 76 74 70 52 56 49 50 51 63 82 90 98 78 83 87 82 85 85 87 86 71 66 57 70 69 55 57 52 50 41 40 40 41 36
90 87 96 94 96 83 64 72 71 66 67 67 65 63 52 44 59 72 58 60 75 84 96 85 89 93 85 66 60 69 65 71 54 51 56 68 54 56 61 57 44 46 45 42 33
89 88 93 96 97 86 65 72 73 69 80 63 64 62 59 70 77 75 55 76 85 95 92 92 84 74 70 68 65 67 66 67 51 49 53 54 55 46 45 45 45 41 43 40 31
89 91 91 95 98 78 68 72 79 76 89 76 70 76 84 77 79 83 66 80 90 96 92 98 76 67 70 74 72 65 70 61 60 51 47 54 58 54 47 50 43 43 39 37 36
92 91 92 92 90 75 77 74 75 77 97 92 83 86 78 81 87 72 76 80 94 96 91 96 70 71 76 76 72 76 49 50 57 62 76 49 84 50 45 46 48 43 48 44 37
93 93 95 92 82 85 71 71 75 78 96 97 91 83 81 82 82 81 77 80 92 92 90 97 87 81 80 70 55 62 48 50 58 65 59 54 67 53 38 42 42 46 50 44 37
93 94 97 97 98 79 69 72 80 85 94 99 91 90 86 77 81 80 76 81 82 85 88 94 81 72 71 56 48 55 60 64 71 67 88 64 64 64 44 41 35 39 48 40 38
94 99 99 89 85 76 76 83 93 92 76 100 98 87 81 89 82 78 78 95 98 99 99 97 93 82 80 69 56 52 66 94 94 93 88 66 65 46 39 39 39 38 43 40 54
95 85 97 80 78 77 80 85 90 78 99 78 94 90 92 83 72 75 75 93 89 91 93 100 99 94 87 71 72 66 61 88 86 97 80 59 75 56 40 36 36 38 43 53 63
88 84 86 76 80 80 80 92 79 85 72 82 99 100 100 87 67 71 75 79 86 84 92 96 100 86 87 85 72 72 76 54 77 76 88 71 59 39 38 39 42 49 54 60 67
86 83 86 81 79 83 89 88 87 73 73 76 72 66 99 89 78 88 89 77 84 76 70 77 98 96 85 77 75 70 62 76 90 80 81 66 66 54 37 40 46 51 53 56 67
91 92 89 82 82 91 95 94 80 69 70 65 67 60 66 97 89 86 84 78 68 80 73 77 78 98 87 94 91 78 90 83 78 78 78 79 59 47 39 40 47 48 51 60 72
88 96 87 86 100 95 94 76 64 60 61 61 55 56 58 56 74 72 92 80 70 70 80 68 80 94 92 84 74 77 85 78 90 87 87 84 72 35 41 42 45 48 50 60 67
95 93 92 98 98 87 70 68 66 65 60 56 57 54 50 53 72 66 65 62 72 70 78 71 91 98 95 94 87 95 90 78 73 80 87 85 68 38 39 40 45 45 44 47 66
91 92 88 98 93 84 83 66 71 60 59 54 54 49 50 52 63 71 68 57 57 55 54 54 79 77 81 70 86 97 88 86 76 98 80 74 62 41 37 37 39 40 41 62 68
94 95 85 96 84 80 75 81 70 62 66 58 57 58 54 55 60 74 68 61 56 54 63 60 81 80 68 66 82 88 86 82 90 76 86 61 64 47 40 42 40 40 60 74 73
91 92 91 90 75 76 79 83 82 76 76 70 71 70 64 72 66 71 66 63 58 58 62 69 89 73 76 62 70 75 78 87 85 76 72 71 76 47 40 39 49 54 67 72 72
83 85 93 68 56 78 70 81 72 76 70 75 82 68 70 68 65 62 55 54 54 64 72 73 88 87 84 78 66 73 65 72 78 73 76 88 60 42 42 46 47 64 75 71 72

GFSSW_925_rhum_048.txt.gz
RH
74 88 88 85 86 88 89 90 76 70 71 73 71 72 91 90 80 90 95 80 73 76 80 63 75 76 91 92 89 84 88 86 78 72 64 65 62 61 56 52 50 93 93 90 90
81 74 77 80 80 87 91 89 87 86 79 86 86 86 88 85 78 93 89 81 78 78 78 77 80 79 95 94 95 93 89 78 54 59 70 67 68 68 64 63 59 54 60 97 96
83 81 81 79 80 83 85 88 89 88 86 88 86 82 81 75 74 71 72 91 76 78 83 80 66 76 83 88 96 96 82 63 52 51 67 70 66 63 69 62 54 67 58 68 100
80 86 82 82 81 84 86 86 86 84 85 82 73 82 81 74 91 80 81 82 80 73 87 74 77 81 84 95 82 87 80 63 55 63 66 64 68 76 75 62 61 56 50 67 96
92 79 85 84 84 85 88 88 85 87 86 84 75 83 82 82 81 66 72 59 73 72 84 76 82 78 78 73 87 85 70 61 58 69 74 66 67 83 82 61 52 49 56 72 93
90 94 83 85 86 87 88 88 87 88 85 87 77 83 82 89 73 65 58 64 62 71 79 71 76 73 62 72 74 73 64 72 74 77 72 66 75 69 45 56 57 55 49 90 97
87 92 97 89 89 90 90 87 90 90 90 88 71 72 75 73 62 65 54 73 60 69 85 66 64 70 70 83 74 75 80 86 79 79 80 69 69 76 58 54 62 59 51 53 86
74 80 80 98 92 92 94 93 79 76 89 85 84 70 74 48 56 60 51 73 59 66 76 66 65 66 78 68 69 82 89 99 86 76 86 68 80 68 62 63 70 63 51 38 43
92 79 91 96 97 95 94 88 72 73 83 77 70 72 61 54 56 51 62 76 78 72 74 77 70 71 71 88 87 82 97 86 98 70 87 76 78 54 69 79 67 58 48 41 36
88 83 87 85 96 96 92 67 73 61 67 69 74 67 52 54 50 59 56 72 76 81 86 97 85 88 88 87 89 93 89 78 82 87 84 86 66 56 70 78 71 55 43 43 40
90 83 88 88 97 95 80 69 70 63 66 68 71 65 56 56 65 69 56 69 79 80 95 86 99 91 90 69 64 74 68 81 59 63 78 81 67 59 64 73 74 60 47 45 42
86 83 88 92 95 98 77 72 70 69 72 64 66 65 64 77 75 74 54 79 87 95 94 97 99 79 71 66 66 66 75 73 55 57 62 76 72 55 61 59 60 54 47 42 41
83 87 85 88 95 90 70 70 76 76 89 75 68 82 87 79 84 84 68 82 90 97 100 97 76 71 73 74 72 68 76 69 68 57 48 63 69 62 53 50 50 46 45 39 42
85 88 88 86 92 80 77 72 73 74 97 90 82 79 81 79 89 76 77 88 90 99 97 96 79 76 79 78 70 74 58 55 64 68 88 52 91 64 50 51 49 44 42 46 42
90 92 92 88 88 88 74 73 74 75 96 98 92 79 80 80 78 92 66 73 94 93 94 98 87 83 83 77 57 63 52 54 59 69 61 57 75 61 40 54 46 41 41 49 45
92 95 90 93 90 84 72 71 79 85 96 99 89 86 85 78 85 85 82 79 90 88 89 94 84 73 71 61 52 59 61 64 67 72 90 70 73 68 52 40 33 35 40 44 50
98 99 96 92 89 78 73 80 90 92 76 100 98 82 77 85 82 78 92 98 98 99 99 98 96 83 74 67 56 55 71 96 94 94 91 70 72 58 41 37 35 31 31 37 46
97 100 98 86 82 76 80 78 91 80 100 87 78 83 82 74 73 64 80 100 87 86 100 100 98 92 86 72 74 62 61 87 87 96 83 64 83 59 42 37 38 37 37 39 49
86 93 92 82 80 80 80 93 80 83 74 97 94 100 88 78 68 67 73 80 87 84 87 99 99 86 88 84 66 70 78 56 79 76 88 74 62 41 36 38 38 41 48 50 62
86 87 91 83 83 84 85 89 87 69 73 92 100 98 95 80 69 67 76 67 87 79 65 79 99 95 85 78 73 66 61 77 88 81 84 68 68 58 42 36 37 43 53 58 69
86 92 88 86 85 88 97 95 78 68 71 69 70 69 89 81 65 76 84 80 73 84 70 73 79 99 88 93 90 78 90 80 75 76 80 74 62 47 42 36 41 43 53 61 74
88 95 89 88 100 95 98 80 64 64 65 64 58 58 64 87 92 87 90 77 70 75 77 69 81 95 99 86 80 77 78 75 89 85 89 85 74 40 39 45 44 48 52 58 68
92 97 95 97 93 89 75 68 67 65 65 59 58 56 51 61 76 69 68 65 71 70 74 75 89 96 98 90 88 93 90 81 76 83 90 90 71 36 42 38 43 50 55 60 69
91 93 89 98 93 90 84 77 71 62 61 57 57 52 50 64 70 73 70 65 62 59 62 58 82 78 85 71 80 96 94 88 77 94 77 76 67 55 48 40 35 44 49 59 75
93 96 88 94 91 84 77 82 76 63 67 68 63 66 56 61 66 77 69 65 60 66 73 64 85 80 70 64 89 88 83 87 94 85 87 62 66 52 48 44 38 41 47 66 74
86 89 91 86 74 80 82 89 86 79 75 80 85 76 65 73 72 73 69 66 67 60 76 69 89 73 76 64 79 85 79 87 81 80 85 76 75 49 43 44 42 42 50 66 74
86 88 88 65 65 77 63 72 67 77 76 80 84 68 77 80 77 70 63 59 57 67 76 74 88 88 86 78 69 80 69 72 82 80 76 92 66 50 53 52 51 49 54 61 70

GFSSW_925_rhum_051.txt.gz
RH
81 80 77 77 77 78 82 84 85 87 86 76 78 78 80 74 91 81 97 81 72 78 77 81 78 88 84 91 85 80 95 86 72 64 65 62 57 57 54 52 67 70 68 90 99
77 82 76 80 78 82 83 83 85 87 87 88 87 79 74 84 74 82 77 85 81 78 86 80 83 85 90 94 89 91 89 77 58 60 72 64 64 66 54 46 49 51 48 51 99
91 78 83 79 80 79 81 86 85 84 84 82 82 80 82 76 70 66 69 86 83 78 83 84 70 72 86 89 89 92 82 66 54 60 61 65 66 63 58 56 61 66 54 53 91
88 93 75 84 81 83 88 87 85 85 85 85 86 70 80 76 85 90 94 91 87 82 82 82 75 81 84 87 89 89 70 61 64 65 62 60 66 65 65 53 59 53 51 57 66
88 92 96 75 85 84 87 88 86 86 85 91 90 86 80 79 80 69 76 73 74 82 80 81 77 75 82 79 84 78 74 82 67 69 66 61 62 65 68 61 51 52 52 53 71
71 86 93 95 78 86 88 88 89 89 89 87 80 82 78 88 60 65 63 67 73 77 76 87 75 64 70 75 77 75 70 63 66 77 71 67 66 63 50 54 53 53 53 48 62
95 74 87 92 98 90 90 93 88 88 87 84 87 70 76 72 61 60 64 61 75 66 76 81 68 65 68 68 70 79 81 79 78 74 80 71 63 69 56 54 56 56 55 48 39
88 92 82 88 93 96 94 94 92 70 91 80 75 72 72 49 59 64 52 63 72 62 71 78 69 68 76 68 75 80 77 91 89 77 84 70 77 55 54 54 59 60 54 49 39
91 74 82 82 90 96 93 94 78 64 85 71 65 72 62 52 74 63 63 81 78 69 73 79 74 72 74 83 88 90 87 87 98 70 82 69 74 52 57 69 56 60 56 46 39
90 76 78 82 81 85 95 71 74 61 66 68 72 62 50 53 53 69 65 83 65 82 80 94 88 87 88 89 81 87 93 82 90 89 84 79 69 54 69 68 51 45 60 50 44
82 81 79 82 82 89 92 66 68 61 64 65 69 67 60 61 68 64 63 88 74 76 91 95 93 87 86 76 65 72 79 74 67 80 78 79 70 57 65 72 74 59 64 56 46
82 80 78 85 85 91 94 70 62 60 68 64 66 66 66 79 74 74 64 87 88 92 92 97 97 74 69 62 68 72 78 78 58 76 74 80 79 62 65 64 60 54 49 55 47
78 77 80 87 83 92 81 67 72 75 87 73 68 82 88 82 87 90 70 87 88 97 97 98 85 73 69 71 71 71 72 76 67 77 60 76 81 73 58 59 59 59 53 50 44
79 80 84 88 90 86 79 68 72 75 97 87 79 78 80 78 90 78 76 80 91 96 93 97 72 80 75 71 65 76 61 63 69 79 81 58 81 68 64 55 55 52 50 45 43
82 89 91 86 89 90 75 74 73 73 94 98 88 75 77 80 79 79 69 74 93 94 94 98 80 76 78 70 59 66 57 61 65 68 64 61 76 62 52 61 53 49 45 40 45
92 94 89 86 87 85 75 76 79 86 96 98 86 82 82 78 85 78 77 78 82 92 90 94 81 73 71 72 54 61 61 63 64 64 89 70 75 66 52 45 41 43 40 40 36
97 99 89 91 88 82 74 80 92 93 95 99 90 85 82 84 81 89 95 94 98 99 100 96 90 82 70 70 58 59 67 93 91 92 85 66 73 57 45 37 35 33 32 36 42
97 98 92 89 82 76 78 75 94 84 98 85 76 82 80 73 73 71 92 98 86 84 100 99 98 90 85 69 70 62 61 82 93 93 79 66 76 51 42 38 36 36 38 38 37
91 89 86 84 80 81 80 92 83 85 94 80 86 90 80 75 70 60 77 89 82 80 94 99 100 87 89 81 64 67 75 56 80 78 79 66 58 40 35 33 33 36 40 43 42
84 87 93 82 85 86 86 91 87 67 88 80 98 93 91 77 71 70 75 66 86 78 66 80 98 89 84 78 69 64 60 76 83 83 79 63 59 45 35 35 34 34 38 45 54
78 91 90 86 87 90 98 96 78 69 74 88 91 100 89 72 64 76 70 79 75 83 69 73 79 98 85 88 84 72 82 77 70 72 73 67 49 45 42 34 38 38 41 50 62
86 95 93 89 99 94 98 83 66 66 69 67 60 67 88 81 65 85 87 83 70 75 75 68 82 94 99 85 76 78 74 69 82 82 84 78 65 39 38 41 43 41 48 53 66
95 97 97 93 89 92 80 72 70 65 64 60 59 55 61 88 93 72 78 69 73 68 74 71 86 96 98 86 83 90 89 76 74 80 90 80 62 39 42 38 37 46 49 54 67
92 97 90 98 93 97 86 81 74 64 66 59 62 54 54 69 72 76 75 73 65 65 64 63 80 76 81 70 85 97 96 85 77 94 81 69 60 51 46 48 48 38 45 54 64
93 91 86 97 92 85 82 84 77 72 64 75 66 78 61 67 72 79 70 70 68 76 72 67 87 80 69 63 82 80 80 90 94 83 85 59 62 49 50 48 46 42 41 52 66
91 94 93 84 73 81 82 86 86 84 84 79 82 78 76 82 77 75 71 72 80 68 88 70 96 73 78 69 80 88 84 88 88 87 84 78 76 53 50 48 46 42 40 50 58
90 92 78 68 69 77 62 67 69 79 72 84 88 69 88 91 88 79 69 63 63 74 83 81 85 84 80 76 69 76 68 76 80 81 76 87 64 52 60 57 58 53 47 43 46

GFSSW_925_rhum_054.txt.gz
RH
92 79 78 76 78 78 83 76 83 85 86 89 79 73 71 70 71 79 70 71 72 87 75 77 70 84 80 69 68 65 63 54 46 40 45 51 47 48 42 45 43 41 42 49 86
92 90 77 83 78 80 83 87 84 83 84 83 84 84 84 73 70 65 64 75 85 81 84 72 60 73 80 68 70 73 82 50 43 49 52 54 48 52 43 40 43 37 37 67 100
87 95 88 76 82 81 87 86 85 86 84 85 85 91 86 78 57 50 73 76 81 89 87 82 56 53 57 91 68 69 66 51 47 50 50 55 52 52 39 44 43 42 40 49 92
73 84 93 90 78 82 84 88 86 85 84 90 90 88 77 74 63 78 92 90 83 87 87 86 58 59 54 72 73 80 54 47 42 56 52 46 52 49 47 45 43 41 38 42 56
94 76 84 96 89 78 86 86 88 87 87 86 84 82 74 61 57 72 75 76 85 90 90 84 59 49 50 49 65 70 70 57 46 63 55 51 51 53 50 42 43 41 39 36 46
89 90 76 89 92 95 89 89 89 84 88 88 87 77 69 69 60 66 64 69 80 83 83 89 49 44 42 47 54 50 66 65 54 66 68 65 53 57 33 42 43 41 39 37 36
90 89 87 81 92 89 94 91 94 86 87 84 83 70 66 53 60 60 67 65 79 77 77 87 61 49 40 50 45 51 64 65 63 57 63 75 70 57 39 37 40 36 37 38 37
94 82 87 79 89 96 97 94 96 69 69 86 75 66 54 55 60 67 65 65 68 74 78 86 77 51 49 46 49 52 57 78 59 64 62 67 64 41 38 40 39 34 35 38 37
91 84 83 81 81 83 91 95 87 73 70 83 69 63 55 58 68 65 69 77 70 71 71 85 74 57 58 53 58 57 60 65 85 56 66 62 52 43 43 43 38 33 32 35 37
88 86 77 80 79 81 88 78 76 68 63 72 68 61 43 52 80 72 68 79 71 60 77 82 85 62 50 50 55 48 46 58 82 75 68 68 57 43 41 42 37 30 28 30 39
81 80 74 80 79 86 89 70 62 58 56 58 58 56 48 58 68 61 67 89 74 59 74 96 96 79 54 42 34 37 45 58 73 70 77 71 62 49 40 47 45 36 32 30 34
86 78 75 80 84 94 92 60 55 63 52 58 59 58 61 76 64 61 74 83 86 80 83 93 99 50 44 48 48 50 48 48 50 65 77 70 64 47 40 40 40 37 32 33 33
80 78 76 78 87 92 83 64 69 71 67 64 62 69 72 72 67 70 76 88 85 79 94 95 86 55 55 56 53 47 46 48 46 57 58 58 59 53 43 38 37 35 32 30 32
79 77 80 83 88 90 71 67 72 72 94 79 63 66 67 67 70 76 80 86 86 82 95 95 74 57 51 53 43 56 44 48 51 49 50 48 38 40 40 43 40 38 36 31 33
81 84 85 83 85 77 80 74 70 70 86 90 73 68 64 66 64 67 71 85 76 80 84 97 89 63 60 54 42 53 48 46 44 42 50 54 53 28 38 41 36 36 36 34 35
87 89 88 88 84 87 77 72 80 92 91 98 69 67 69 66 71 70 78 66 61 72 77 93 75 65 56 54 48 48 49 50 52 48 67 44 49 34 34 33 30 30 32 33 32
93 92 88 91 79 80 72 71 96 89 98 87 67 71 68 78 93 96 81 91 97 99 100 96 93 72 59 59 50 44 46 78 75 80 59 51 55 34 32 30 28 26 24 28 29
98 92 93 91 81 74 80 68 89 95 95 75 64 68 65 71 80 83 85 99 88 80 99 100 99 84 66 56 57 52 37 52 62 62 49 52 58 34 29 30 28 27 25 26 27
97 89 95 88 78 80 71 93 87 94 87 67 68 70 61 61 59 64 80 70 73 75 99 92 97 76 71 59 48 64 68 42 59 58 57 40 39 29 24 23 23 23 25 26 25
95 86 90 86 83 85 74 91 89 69 76 57 85 66 62 60 55 62 66 66 76 64 59 68 99 72 70 58 54 52 43 60 69 74 53 41 39 24 28 26 23 23 26 26 31
86 75 90 86 86 80 93 92 72 61 72 93 98 90 62 52 49 55 61 67 65 69 56 57 60 95 67 67 69 60 61 58 50 56 51 38 26 24 26 26 26 26 30 32 35
81 88 92 88 94 81 94 74 65 64 65 66 81 70 62 52 48 63 64 69 59 58 58 56 62 89 98 77 59 54 49 46 57 69 58 53 34 25 26 27 30 29 32 35 41
78 90 95 98 84 73 67 67 66 59 59 56 58 82 78 75 72 71 71 62 63 58 57 53 72 96 100 86 72 71 61 52 51 61 68 59 40 29 29 30 29 33 31 32 42
77 94 94 95 87 82 76 71 68 62 62 55 53 47 62 63 60 73 75 69 62 58 63 53 60 67 59 66 62 77 67 63 59 73 54 51 43 32 33 32 29 29 31 30 38
68 74 76 90 82 73 75 76 68 66 56 58 59 60 51 62 65 69 68 73 67 70 60 55 87 77 56 60 68 66 64 67 86 64 65 48 41 34 33 35 36 36 34 32 32
65 75 74 66 63 73 73 74 73 76 74 67 65 66 54 60 64 65 66 69 73 70 73 61 90 70 76 62 68 72 62 63 64 61 62 61 62 42 39 38 38 36 36 38 33
87 85 59 60 60 69 64 62 70 73 68 72 69 61 73 83 78 69 57 51 53 69 82 78 77 80 73 63 60 63 50 52 56 60 60 66 45 39 44 44 44 42 40 39 37

GFSSW_925_rhum_057.txt.gz
RH
86 95 87 78 80 79 86 85 85 83 84 83 84 86 88 71 72 79 75 52 57 70 80 65 61 59 71 63 50 41 76 68 44 31 36 41 39 40 36 36 38 36 39 45 80
75 85 95 86 79 80 81 86 87 86 83 84 83 87 85 81 68 58 60 61 71 76 67 64 58 54 82 65 69 65 81 54 46 36 44 44 34 39 38 38 38 35 39 78 93
90 77 85 91 85 80 81 87 86 85 83 88 88 92 70 72 59 46 73 72 78 88 80 71 54 50 58 86 71 62 60 44 44 40 41 49 47 40 36 40 36 39 40 74 95
87 92 79 82 95 84 81 83 88 86 86 86 88 91 73 66 67 75 89 71 72 86 83 77 66 60 61 82 83 67 46 48 44 53 43 42 42 41 36 41 35 35 33 48 80
86 90 89 80 87 92 89 86 90 85 86 87 85 79 70 54 46 68 72 77 82 76 88 78 63 57 50 60 74 91 49 46 68 49 45 50 44 46 43 37 37 34 33 35 52
91 92 89 88 79 91 96 89 89 92 82 85 84 71 65 57 51 53 62 68 85 73 88 79 59 42 39 46 77 66 59 51 46 50 51 54 50 56 36 34 36 37 33 32 36
94 93 88 90 83 88 95 96 90 94 81 88 80 65 54 54 49 52 57 64 80 78 76 81 63 49 40 37 44 55 70 60 54 47 46 54 60 53 39 34 35 33 31 32 33
92 94 89 90 86 83 96 96 95 94 71 88 72 57 53 49 51 55 58 58 67 77 78 81 88 75 41 32 45 73 83 87 56 50 43 50 56 39 36 40 36 35 29 30 31
88 94 92 91 86 77 93 95 95 82 75 79 63 50 50 55 61 68 64 61 65 74 80 85 96 60 49 49 56 50 75 71 54 44 48 55 42 36 32 33 36 34 30 28 29
92 91 83 90 82 73 82 83 80 68 61 58 50 57 38 52 79 74 63 67 69 71 82 95 89 60 52 54 63 45 32 40 52 56 54 63 52 40 37 39 36 33 31 27 27
92 90 79 87 83 76 85 70 62 60 48 47 45 44 39 52 72 75 72 90 75 75 96 90 98 71 42 36 27 27 27 38 38 51 63 61 55 46 36 36 36 34 31 28 25
91 83 79 80 82 86 87 56 50 62 48 47 46 46 45 62 67 74 71 89 88 83 80 94 98 44 33 32 34 26 30 43 50 56 64 62 65 46 38 34 34 31 28 26 24
82 78 78 82 82 86 69 52 71 65 59 58 50 53 55 63 58 76 74 89 68 63 82 95 88 66 39 44 42 35 31 33 51 62 58 61 80 58 40 34 30 30 27 25 24
80 77 78 78 86 73 60 65 74 68 88 64 54 59 56 54 70 70 73 84 89 76 70 80 84 82 49 44 38 42 29 34 40 53 56 46 42 37 36 37 34 31 30 28 27
82 80 80 80 78 65 70 75 71 62 94 71 64 52 52 60 59 83 67 86 71 74 68 92 93 78 53 43 33 40 37 38 39 42 30 44 46 26 27 32 30 30 28 27 28
85 84 82 83 83 77 78 71 67 92 91 94 56 56 56 56 62 72 88 86 43 62 87 92 86 72 42 36 37 43 41 40 38 36 56 41 39 28 23 28 24 22 22 24 25
87 87 89 83 68 79 74 63 97 93 94 78 56 53 52 82 83 85 89 94 73 91 100 98 95 78 56 54 47 40 44 65 63 74 58 37 36 29 25 25 24 25 23 22 22
88 88 88 92 84 78 70 70 90 79 89 58 52 55 60 72 90 69 96 94 66 50 93 100 99 78 56 43 48 47 37 48 53 52 43 42 48 29 24 23 22 23 22 21 22
92 88 83 89 82 84 66 98 91 94 59 50 53 57 55 58 63 66 96 86 58 59 85 83 100 80 58 52 42 47 53 38 49 39 44 37 30 25 21 22 20 20 20 21 22
82 74 74 78 84 79 78 88 77 76 68 43 63 47 54 54 53 55 80 66 66 65 64 64 94 79 70 58 48 45 38 50 60 66 41 34 29 23 23 23 21 24 26 25 25
77 72 85 87 90 77 89 80 69 60 57 65 85 61 44 44 44 48 64 62 59 62 53 51 50 87 78 68 56 56 58 50 43 50 52 30 25 20 24 24 27 27 29 28 28
70 78 92 90 93 65 83 66 65 60 62 78 73 62 41 36 42 48 59 58 49 50 60 48 57 75 70 66 53 48 43 42 52 62 43 45 35 20 22 24 27 28 27 26 31
69 70 96 88 88 64 60 59 56 56 56 56 71 67 59 49 54 55 58 54 54 51 59 48 66 97 92 62 53 58 48 44 39 55 60 53 33 25 24 25 25 27 26 25 27
64 86 86 86 75 62 58 57 60 55 53 48 47 54 55 54 53 62 64 61 54 52 61 49 50 60 62 60 45 60 50 49 50 69 50 45 36 28 27 26 24 23 25 28 28
58 57 58 88 71 61 62 57 53 57 50 46 49 49 48 56 57 63 63 65 60 64 52 49 80 74 50 56 60 59 49 48 67 57 58 40 38 31 28 31 32 31 30 31 30
52 55 60 55 56 60 69 61 54 63 58 53 52 50 44 49 56 59 62 64 65 58 56 53 84 67 82 53 58 64 52 50 51 52 52 47 47 34 32 32 33 33 32 33 32
61 63 51 59 57 53 54 57 61 59 61 58 51 50 61 71 60 51 46 48 49 58 62 62 69 82 74 54 52 58 44 45 49 46 48 52 38 38 42 44 45 43 41 39 35

GFSSW_925_rhum_060.txt.gz
RH
94 80 80 91 87 82 80 85 86 84 84 83 84 84 87 88 79 90 79 66 67 66 62 65 65 60 66 76 69 55 81 66 50 36 41 41 44 40 35 41 39 38 53 73 84
85 89 84 84 88 85 81 80 88 85 85 84 87 88 89 77 73 58 64 70 66 84 70 64 66 60 82 74 75 76 96 61 40 42 44 42 40 41 39 43 42 47 72 81 94
87 87 92 82 82 92 84 81 84 88 86 84 87 88 92 71 62 52 68 78 74 74 74 66 59 60 67 78 72 81 75 58 49 52 39 44 42 38 40 52 43 45 71 86 94
89 88 90 87 83 82 91 87 84 87 84 85 86 84 74 76 76 73 79 69 74 73 82 74 69 75 68 91 70 76 54 55 66 62 57 50 42 42 46 46 39 38 46 84 90
87 94 94 88 88 79 86 95 87 88 88 83 82 85 75 58 53 65 62 68 84 83 85 74 74 77 72 62 82 77 63 73 71 65 65 52 45 50 48 42 37 34 36 52 78
88 97 94 89 90 85 86 93 94 86 94 81 84 72 69 71 48 49 54 61 72 82 80 78 78 62 53 57 78 73 79 72 80 67 70 58 51 52 44 36 38 37 35 41 43
88 89 93 91 89 87 83 95 95 91 91 79 84 69 52 54 47 45 51 57 70 76 77 79 82 92 53 49 54 69 70 79 70 68 56 56 59 60 39 37 38 36 37 35 38
92 89 94 94 91 80 80 94 95 95 91 78 83 65 56 48 51 49 52 53 62 77 88 85 91 86 76 42 67 76 80 95 78 82 68 56 69 48 40 40 44 42 35 36 34
88 90 94 92 91 78 81 92 92 94 89 77 74 56 51 48 57 68 63 58 61 70 73 80 95 81 60 64 80 81 94 97 83 54 57 57 52 39 36 41 42 41 38 35 36
89 92 89 82 83 80 81 74 82 79 67 60 49 54 48 50 72 75 68 62 66 69 92 87 94 82 72 66 87 92 80 80 86 61 51 60 58 43 37 38 41 38 36 35 32
96 92 77 78 82 84 83 80 74 72 52 46 42 41 36 58 76 67 71 72 74 81 97 90 97 94 71 57 45 48 56 67 64 62 54 61 59 51 39 43 46 43 36 35 34
91 80 80 87 80 83 84 70 58 63 59 42 42 41 39 52 71 66 70 80 92 98 94 98 100 76 64 46 38 34 42 59 53 56 60 62 61 52 46 43 41 40 39 36 33
80 79 79 75 76 81 78 58 67 61 74 54 44 49 49 60 81 82 71 84 92 96 98 99 86 79 64 43 51 43 36 67 65 66 57 63 74 65 52 43 40 36 35 33 33
79 79 78 78 84 75 62 60 70 65 99 72 56 53 51 51 88 66 82 89 92 97 76 92 77 81 73 56 41 42 28 43 66 73 82 61 64 63 55 51 44 40 37 34 33
83 86 80 77 86 63 71 70 67 66 96 59 55 46 50 59 64 74 74 80 71 69 60 95 90 94 79 44 37 45 40 54 64 59 53 68 64 36 51 49 43 37 37 36 34
84 84 82 80 79 74 72 69 67 97 95 82 50 51 54 52 63 76 88 79 56 71 77 87 90 88 78 42 40 38 43 42 42 46 77 44 51 44 37 35 29 26 33 33 33
88 84 85 79 78 75 71 67 99 91 85 69 54 50 58 74 74 87 84 84 79 93 99 97 95 79 72 58 46 41 54 88 89 88 82 41 49 40 31 28 26 25 25 27 26
86 86 83 84 80 74 71 90 95 66 87 48 47 51 63 64 75 83 90 80 58 54 100 99 98 90 63 51 59 50 49 78 67 81 67 41 55 39 30 25 26 25 24 23 25
86 82 79 80 81 81 93 100 90 84 51 48 49 60 63 56 57 76 97 67 56 60 86 100 100 86 65 52 54 56 72 41 63 42 75 54 36 27 27 25 24 25 27 28 28
83 80 71 72 77 83 98 87 72 72 64 40 59 48 63 55 57 66 85 62 66 58 60 62 99 81 68 60 48 55 40 62 84 69 45 43 36 36 32 30 33 36 37 36 30
87 83 87 87 87 92 94 70 66 63 52 61 74 53 44 47 44 49 75 58 57 63 55 52 70 90 76 80 64 58 68 56 55 70 84 55 43 26 33 34 37 37 32 34 37
73 94 87 83 96 85 83 61 65 65 67 70 74 65 44 38 44 50 71 59 50 53 58 56 63 93 90 76 55 59 54 48 82 74 62 65 48 25 31 31 28 30 29 31 40
78 79 88 85 96 74 61 60 53 57 62 71 67 63 56 43 56 53 61 53 52 56 62 50 76 96 89 65 58 65 53 50 52 66 73 81 52 28 28 27 28 32 31 32 35
72 85 82 86 76 84 61 57 62 55 51 46 55 56 53 48 52 58 68 57 54 53 60 60 58 78 90 70 60 67 56 52 59 86 66 64 48 35 33 33 34 38 39 38 37
73 70 64 93 80 67 61 51 56 59 49 45 50 49 48 57 56 56 60 62 59 63 54 58 80 75 55 58 68 61 56 54 71 66 70 54 47 39 42 45 44 42 41 40 40
70 67 64 60 55 61 63 57 53 61 62 51 51 48 44 60 62 62 60 58 60 58 55 57 90 72 84 52 56 65 56 50 51 55 56 55 56 42 43 46 50 51 49 49 47
59 58 61 61 60 60 62 57 58 61 61 56 49 56 68 73 56 53 48 50 51 58 60 63 82 90 77 53 54 70 51 55 52 47 48 62 48 51 56 54 55 56 53 56 53

GFSSW_925_rhum_063.txt.gz
RH
87 84 90 87 86 87 84 83 81 88 86 84 86 87 87 89 88 86 85 73 79 74 86 73 69 65 75 88 70 80 88 83 61 51 48 46 44 40 36 45 57 55 74 80 64
90 90 87 91 85 85 90 86 81 85 89 85 85 87 88 93 83 77 70 69 74 76 79 80 84 76 88 90 82 84 84 73 52 52 47 47 41 41 45 48 75 91 89 85 89
91 88 93 92 87 85 81 89 89 83 86 84 85 86 88 82 82 65 66 71 76 82 73 82 70 83 80 86 80 76 87 66 67 58 46 49 45 41 51 56 48 92 91 92 97
94 89 96 95 89 88 81 83 94 86 91 85 81 82 85 74 79 64 76 76 60 68 79 73 81 90 82 88 78 93 65 57 62 67 54 52 46 54 50 50 43 69 84 88 95
95 90 96 97 90 89 86 84 92 92 87 94 80 83 76 79 66 60 62 65 76 73 72 83 90 85 85 72 79 80 88 66 71 70 65 54 56 54 54 44 39 50 78 88 86
94 90 91 94 92 91 87 82 94 96 89 92 80 81 78 85 49 54 51 55 68 76 73 81 90 82 79 68 82 84 84 85 77 84 70 67 60 50 50 45 42 42 48 74 81
94 96 90 95 94 89 86 81 93 95 94 89 80 81 70 69 48 47 49 54 59 70 79 88 93 90 88 75 72 80 89 87 93 88 88 72 67 60 45 43 45 42 46 44 62
96 93 92 91 92 87 77 82 91 95 95 89 80 84 77 49 46 52 53 58 60 73 75 89 92 90 94 67 69 86 92 94 80 83 70 62 71 55 45 43 46 43 41 44 41
97 90 94 76 73 72 76 82 88 90 90 88 75 78 66 49 58 62 65 60 63 78 83 81 82 92 86 84 91 84 99 94 81 86 84 61 66 51 46 47 49 49 45 40 42
91 94 87 74 75 71 74 75 76 88 62 79 65 62 53 59 63 67 69 66 66 78 79 80 89 94 89 89 97 94 95 87 81 86 74 80 65 49 42 46 49 49 46 44 41
93 92 77 78 78 88 68 78 83 80 70 57 48 48 41 65 69 67 68 70 74 78 95 90 96 100 84 68 65 65 72 70 74 72 92 82 65 58 50 47 49 50 47 43 41
95 78 80 81 88 81 76 89 66 66 84 43 48 45 41 53 82 68 65 79 90 96 94 96 96 82 70 66 61 62 66 64 57 59 78 70 68 60 55 50 50 49 49 45 40
91 80 78 78 77 77 77 78 62 64 86 59 48 55 53 61 77 81 70 83 94 96 95 90 79 81 77 73 64 66 65 62 67 67 68 65 77 72 57 54 51 46 43 42 42
86 80 78 76 80 75 79 67 59 67 98 74 62 57 57 77 85 74 77 78 90 99 96 96 79 80 85 75 59 61 51 57 68 86 92 70 86 75 61 63 56 54 49 44 39
87 84 79 79 82 73 70 66 65 70 96 58 65 45 55 66 72 88 87 94 95 94 85 98 90 91 86 66 64 72 46 63 77 71 77 80 79 57 66 72 61 52 51 44 39
86 82 82 77 72 73 71 67 68 92 90 84 58 57 59 62 80 84 91 88 68 73 86 95 89 90 92 68 54 50 77 80 69 66 78 74 70 58 62 58 49 44 45 42 39
86 82 82 74 80 74 71 74 98 90 77 72 64 53 70 81 79 74 84 83 88 88 99 98 97 81 73 61 51 52 63 98 96 86 78 48 54 51 34 31 31 32 32 32 32
84 82 77 83 75 72 74 92 90 67 90 56 50 54 73 70 79 80 86 84 61 84 100 99 98 91 80 61 60 52 53 81 85 93 74 47 59 44 31 31 30 29 29 30 31
85 84 80 81 79 80 93 99 94 73 60 56 55 70 69 61 70 88 78 79 72 65 90 100 100 82 77 67 55 54 75 46 67 54 81 59 43 34 30 32 33 37 38 38 35
82 80 77 72 79 85 97 88 82 72 71 52 69 57 70 62 65 72 82 65 73 66 62 78 98 88 70 60 49 54 43 67 85 63 58 63 44 46 39 46 43 42 41 41 41
77 92 83 78 89 96 99 79 71 67 66 73 72 62 54 56 58 69 87 62 61 66 64 60 78 95 69 85 75 66 67 60 64 76 84 58 48 31 40 42 45 40 37 39 42
86 98 81 90 97 93 92 73 55 67 67 73 77 73 68 43 58 73 82 68 53 58 61 64 76 92 86 80 69 65 60 54 82 70 73 74 53 32 39 41 41 39 32 38 42
95 97 85 84 97 80 66 67 60 64 68 73 70 65 60 62 64 66 69 58 55 63 70 60 78 96 95 74 62 71 59 53 61 70 78 73 53 34 33 32 32 37 42 43 40
83 98 96 94 88 91 75 74 72 56 59 54 64 64 54 59 54 64 73 59 55 59 61 59 70 74 84 74 73 76 62 58 68 86 66 69 47 39 47 49 51 52 50 48 47
85 87 72 95 96 87 69 66 72 70 56 53 56 67 54 63 59 69 61 68 62 60 57 66 79 72 62 64 64 62 60 63 71 65 72 57 54 54 50 56 53 53 53 54 54
91 86 78 85 75 78 69 64 67 72 65 59 58 61 61 74 74 66 58 55 60 63 60 66 88 70 85 56 59 66 61 58 61 62 62 58 58 51 56 55 60 65 64 66 65
70 63 75 79 79 78 77 60 70 70 62 63 59 75 82 73 58 55 55 58 57 68 71 72 82 92 86 58 57 69 61 56 55 51 57 70 64 62 64 61 64 68 64 66 63

GFSSW_925_rhum_066.txt.gz
RH
94 92 91 90 89 86 86 88 85 81 86 89 84 85 86 89 90 84 93 64 76 80 82 68 77 79 74 88 80 74 90 84 73 50 47 44 43 41 41 57 72 60 74 64 69
93 92 88 95 94 88 86 82 90 88 84 86 83 85 87 90 79 85 56 78 79 80 60 87 91 75 92 91 92 89 86 80 55 51 48 50 41 43 53 71 92 94 90 76 72
92 96 91 96 96 90 88 82 83 94 85 94 83 81 84 87 90 71 70 75 73 91 91 89 89 84 93 90 75 85 82 69 63 62 54 50 45 44 56 57 68 90 92 88 94
94 97 92 96 96 90 87 86 83 90 89 90 90 81 86 78 81 62 66 73 77 72 82 82 82 93 88 92 87 88 74 74 65 69 66 52 49 62 51 50 59 82 83 88 90
96 94 94 93 92 90 90 87 84 91 93 89 91 83 73 82 80 56 60 53 68 71 79 83 86 85 83 79 77 87 73 78 68 77 74 61 58 60 55 47 65 85 84 94 91
96 95 95 92 94 95 92 85 82 95 96 92 85 83 79 96 50 56 51 51 56 64 88 86 92 88 87 77 80 85 75 72 78 83 86 69 62 53 54 45 64 75 87 92 93
95 95 91 93 93 87 93 90 83 90 96 94 84 85 78 74 50 50 50 55 56 66 79 88 90 85 87 85 69 89 91 86 83 86 88 82 68 67 56 46 50 51 60 80 85
97 90 92 96 79 72 77 87 85 92 96 95 84 84 88 52 49 46 51 58 60 68 73 84 81 80 92 85 83 89 84 97 80 83 88 84 80 65 54 52 52 48 47 51 68
98 86 92 86 73 77 73 77 88 89 95 91 82 81 83 54 55 57 62 64 64 76 85 89 73 85 86 90 92 94 100 94 93 87 90 84 79 61 54 50 49 49 49 46 46
98 85 89 78 75 74 69 69 73 84 68 79 77 72 56 57 61 63 69 69 69 80 77 84 87 91 88 94 90 92 100 96 96 89 82 92 87 60 50 52 52 51 50 49 46
91 91 84 78 78 80 72 78 78 78 72 67 58 62 45 66 70 69 67 70 71 79 89 91 98 100 92 86 70 66 77 87 84 87 88 87 82 74 54 50 54 57 54 49 47
92 91 79 83 81 85 80 89 66 66 79 61 46 50 43 65 84 70 63 81 88 95 90 94 99 87 88 80 61 59 62 74 79 81 78 87 82 64 58 54 53 51 56 52 44
93 86 80 73 83 79 79 76 67 64 85 66 54 53 54 66 81 77 70 82 90 92 91 86 76 80 88 74 70 68 59 70 74 73 76 87 90 78 60 56 52 51 50 50 49
90 81 78 72 79 80 82 68 65 66 92 68 64 59 59 74 89 78 75 81 94 99 86 84 80 80 92 71 61 76 57 63 65 79 86 78 88 70 62 62 59 58 58 52 49
83 85 78 79 78 81 67 66 64 63 80 51 65 46 62 83 80 93 83 83 96 96 94 88 89 90 88 74 59 61 58 81 79 89 89 90 86 58 67 70 56 54 61 56 50
77 84 81 83 77 74 70 69 68 84 76 83 63 62 66 75 90 87 94 94 75 91 86 94 89 86 84 65 61 65 84 87 81 91 98 80 79 57 65 67 63 60 57 54 49
79 82 83 73 76 71 72 77 87 84 65 67 69 55 72 81 77 80 85 89 87 96 98 98 96 92 82 70 62 66 73 98 97 98 84 67 71 58 39 37 46 43 38 36 36
85 80 83 79 74 72 74 83 85 72 82 54 56 55 76 75 81 82 78 87 74 82 99 99 98 96 80 75 85 60 61 92 88 89 72 53 66 45 34 35 36 36 36 38 41
83 86 84 81 74 76 91 95 86 78 60 61 55 73 72 63 82 80 84 86 76 69 95 97 100 82 79 69 57 56 75 50 75 66 78 60 44 35 36 44 45 45 46 46 43
87 88 85 81 77 84 94 84 81 66 67 61 73 63 74 66 70 82 81 65 69 68 65 79 96 85 80 58 52 52 46 65 80 71 65 64 50 52 44 47 43 45 46 45 46
82 96 86 74 85 98 98 84 76 69 66 67 71 65 59 62 64 82 86 65 63 66 62 71 78 91 73 92 87 67 63 65 67 76 76 63 50 34 45 48 46 43 42 45 46
91 97 89 90 98 95 93 74 61 70 67 74 76 75 64 49 67 84 81 70 56 60 69 67 81 95 91 75 74 67 61 60 78 67 78 71 54 40 43 45 47 46 48 44 47
94 94 89 88 97 90 69 68 60 74 79 80 74 66 64 63 78 73 72 61 57 66 70 59 82 97 85 70 63 69 60 56 62 72 78 70 54 39 45 55 52 56 57 54 52
92 97 97 96 90 89 80 76 75 60 64 67 65 64 62 62 61 72 75 64 58 58 59 59 76 73 83 72 74 79 67 60 65 84 70 68 50 58 60 63 65 63 60 61 60
83 90 73 94 95 95 73 76 76 72 57 53 59 67 59 65 65 74 67 71 65 62 57 65 79 73 67 67 66 64 66 68 70 63 68 52 55 57 58 66 65 65 65 69 69
94 94 83 92 84 96 81 78 73 75 63 62 60 56 59 69 66 73 63 62 67 65 63 71 91 70 86 61 63 66 61 62 64 63 59 60 64 60 58 62 66 70 64 62 63
83 72 77 85 90 88 78 66 74 72 66 64 64 77 76 68 61 56 57 64 64 69 74 75 83 88 89 69 58 69 57 58 59 60 60 70 68 62 58 59 65 65 63 63 60

GFSSW_925_rhum_069.txt.gz
RH
95 94 93 89 95 94 90 87 84 92 88 84 86 84 84 86 90 82 92 57 72 81 86 81 81 72 72 85 81 78 96 91 80 66 49 40 46 43 50 58 70 42 67 68 63
97 93 95 91 96 97 92 89 83 84 94 86 93 83 82 88 88 91 51 79 77 82 93 88 83 77 81 83 85 88 92 74 64 48 46 46 41 52 60 77 83 92 79 84 79
98 96 96 92 95 96 93 89 86 83 89 90 93 87 83 90 91 78 73 72 78 73 71 81 79 80 80 83 83 74 89 66 58 65 68 50 45 47 66 72 71 66 74 81 91
98 92 96 95 94 93 91 89 86 85 91 91 92 88 84 83 62 62 67 63 75 71 83 89 82 90 83 89 82 79 74 64 54 80 76 55 48 60 52 52 52 78 74 82 88
98 89 94 97 94 90 94 93 87 81 94 94 90 85 73 87 85 55 61 53 59 75 79 81 89 89 87 81 83 81 75 74 75 84 82 72 58 59 56 54 83 86 80 81 82
99 91 94 94 93 93 90 93 88 83 93 96 92 84 81 98 51 53 55 52 54 61 81 86 85 90 92 85 77 69 74 76 81 89 88 78 63 54 52 58 90 88 88 81 87
99 96 90 91 92 88 87 89 91 86 89 96 91 85 83 78 49 52 52 55 57 65 83 86 85 93 93 87 70 79 87 90 87 87 88 94 74 73 55 65 76 89 90 88 87
100 97 89 84 87 84 84 87 89 89 93 95 90 84 92 52 53 54 50 52 61 66 72 77 87 85 97 89 78 85 92 96 88 82 86 89 85 68 59 60 60 58 62 89 89
99 99 89 88 87 83 77 73 87 90 92 95 88 83 89 54 57 57 67 67 66 71 74 77 82 89 91 94 91 88 100 95 92 80 90 90 84 66 55 56 59 56 49 49 55
99 98 88 85 78 81 70 68 75 82 80 86 82 81 58 58 64 65 70 70 70 74 77 84 88 88 90 93 97 93 97 90 94 93 90 89 83 67 60 56 57 56 57 48 47
100 94 88 82 78 87 65 79 80 79 74 74 65 64 53 69 68 70 69 70 70 81 92 86 99 94 85 91 90 77 96 96 88 88 86 88 89 75 74 59 59 55 53 51 48
98 93 90 75 86 90 73 89 66 65 75 67 62 55 49 70 83 69 67 80 84 88 92 96 100 82 80 82 87 78 94 98 88 88 78 87 88 81 84 73 55 53 53 53 48
98 92 89 74 90 87 76 78 67 67 86 69 56 56 62 61 72 78 70 81 88 96 92 82 84 81 82 90 95 71 91 96 94 88 84 88 88 87 84 72 58 55 50 50 50
96 90 84 76 86 81 79 68 65 68 86 57 65 60 70 72 90 83 78 87 91 93 85 81 78 83 90 100 72 72 60 66 82 78 94 84 94 73 71 68 61 61 61 57 52
95 90 82 77 83 86 66 65 66 59 62 39 62 49 72 83 84 92 81 86 95 96 89 95 89 84 97 94 62 78 69 62 68 87 88 92 95 66 66 68 63 58 59 59 55
94 88 89 93 83 78 69 66 66 82 54 76 64 63 82 84 89 87 92 92 86 87 85 91 83 84 89 71 68 68 83 90 86 97 98 88 84 61 62 64 58 52 56 56 54
90 83 95 82 76 76 67 77 84 80 62 59 65 56 72 82 81 88 84 93 97 98 93 97 93 83 91 76 71 68 71 98 97 98 97 81 84 65 48 44 50 52 47 42 43
85 92 88 77 76 70 71 77 75 62 85 53 59 58 78 74 77 78 78 93 83 86 100 95 99 96 76 79 83 72 64 86 88 95 90 68 82 48 38 40 42 44 46 46 46
96 98 88 86 76 71 87 99 78 80 65 67 59 74 75 65 77 78 82 91 83 71 98 99 98 87 78 70 67 85 77 54 72 65 77 65 46 37 44 50 50 52 52 54 53
95 93 90 84 74 80 94 90 82 62 65 58 72 66 75 69 75 80 81 64 70 69 68 79 98 82 81 61 54 54 50 67 81 74 66 64 54 56 45 51 50 54 55 55 56
88 93 93 80 77 94 96 89 78 70 65 60 70 68 64 66 71 86 82 64 65 67 65 73 78 83 74 90 88 62 64 66 69 75 78 70 53 36 43 50 56 52 52 57 58
94 97 94 83 98 92 97 77 66 77 68 75 71 74 61 54 74 85 81 76 61 63 74 69 83 87 89 72 73 73 63 61 76 70 80 70 58 51 54 50 54 60 58 58 60
98 97 97 89 99 96 73 72 66 76 80 79 75 70 66 61 80 76 76 66 63 67 69 60 85 92 76 64 64 72 62 62 67 74 78 75 63 56 65 69 66 67 68 66 66
96 97 99 99 93 85 79 82 79 68 73 72 66 65 64 64 71 74 77 72 61 64 67 61 78 71 85 68 72 78 68 62 67 82 73 67 62 61 71 72 69 71 73 74 72
81 87 75 97 99 93 78 74 80 79 60 68 67 64 60 67 71 74 70 70 66 69 65 63 82 78 73 70 68 68 69 67 73 59 66 57 60 60 69 70 70 72 62 60 60
97 92 83 82 90 92 85 81 75 73 64 64 66 61 60 66 63 73 65 68 69 67 69 73 94 72 85 64 63 68 64 65 66 62 61 63 65 59 70 64 66 66 65 66 65
91 75 81 82 96 94 87 80 73 73 67 64 64 75 74 68 62 59 63 69 66 67 77 75 84 86 89 71 58 71 57 61 64 76 67 77 65 68 61 58 68 70 71 72 71

GFSSW_925_rhum_072.txt.gz
RH
94 97 96 95 94 94 96 93 90 85 84 94 87 89 84 83 86 85 89 48 66 81 83 88 84 78 78 89 82 78 94 81 78 77 65 45 45 45 48 52 53 45 56 65 92
100 98 95 96 97 95 96 94 92 86 84 84 92 94 87 85 90 91 38 75 80 79 82 94 86 79 95 86 88 92 87 72 56 62 63 42 48 51 72 66 80 54 76 87 81
100 100 94 97 92 94 94 94 88 87 83 87 92 94 87 86 90 71 74 74 76 70 71 83 82 86 95 84 87 85 86 59 68 56 57 47 58 51 72 68 77 55 79 76 78
100 100 95 97 86 95 90 91 92 88 80 92 92 90 87 85 53 62 69 62 70 71 71 80 78 87 86 89 74 91 69 66 58 56 69 66 58 60 63 51 57 51 73 80 81
97 100 97 93 88 97 92 94 94 89 83 93 91 90 72 90 86 53 68 57 59 73 80 83 83 84 84 83 73 93 75 64 61 63 78 82 75 76 59 66 73 64 72 77 66
100 100 98 96 90 97 93 90 94 90 86 91 94 87 81 94 48 54 60 56 53 64 78 86 78 86 84 81 78 81 74 65 69 64 73 81 79 80 67 64 85 71 78 80 75
99 100 99 94 90 95 94 88 87 90 88 92 95 85 88 75 42 51 54 54 57 64 78 78 79 91 89 88 72 63 85 84 72 71 75 91 80 84 70 83 93 72 76 81 83
96 100 100 92 86 96 94 92 92 90 91 95 94 85 91 41 57 55 54 56 54 65 69 71 77 90 92 84 87 90 81 95 70 82 96 80 84 78 74 79 78 88 85 75 77
97 100 99 90 88 95 82 79 88 89 93 96 89 83 91 52 60 58 61 68 67 70 70 75 78 89 83 92 96 88 95 100 91 83 90 85 92 80 73 75 67 65 74 91 92
95 100 99 82 83 92 77 82 75 95 89 90 84 86 60 55 61 64 64 73 74 72 76 82 90 95 92 97 96 95 98 95 98 89 86 92 87 72 78 71 70 64 64 67 73
89 100 100 76 89 83 83 83 85 82 78 72 74 71 57 63 69 68 68 72 71 75 87 84 100 100 96 100 76 73 79 100 95 87 86 91 85 78 76 80 65 65 59 65 60
84 100 99 92 87 93 85 92 68 62 72 70 68 64 55 64 77 70 70 84 82 91 89 98 100 85 86 88 78 74 83 93 87 87 82 84 89 82 83 88 79 67 58 54 54
90 100 96 90 95 93 82 78 68 66 81 69 64 59 65 71 76 76 72 80 89 94 98 100 93 78 79 86 86 84 89 96 99 88 85 87 93 92 79 82 77 64 58 49 49
96 100 94 91 96 85 81 69 67 66 86 55 64 62 72 75 88 78 88 82 91 94 95 91 81 77 88 97 87 89 74 78 94 83 97 78 98 89 91 80 75 76 64 56 52
93 96 90 77 83 86 66 67 62 56 63 32 57 52 75 81 85 90 86 88 91 88 95 97 89 89 94 96 88 92 69 75 78 87 89 94 97 74 77 88 72 68 65 59 55
95 100 90 99 94 79 68 66 67 79 55 67 65 68 82 82 88 81 89 87 80 89 88 88 80 88 89 89 87 75 84 86 92 92 95 90 82 61 60 58 61 59 58 57 54
98 99 97 93 88 76 69 73 83 80 59 62 68 62 76 83 86 91 90 97 99 97 99 95 93 88 89 90 72 78 86 98 98 98 97 80 83 78 47 47 48 52 51 50 54
100 96 96 88 84 72 72 75 85 60 78 51 61 62 77 73 90 89 94 95 81 85 99 92 96 92 82 81 90 75 67 86 90 96 97 90 83 56 44 50 49 51 53 54 56
99 100 99 90 81 72 84 94 78 77 67 71 65 73 73 67 77 93 86 98 81 74 98 99 98 89 88 71 64 75 79 58 74 68 93 78 48 38 50 55 56 57 58 66 66
98 95 92 92 81 76 91 84 81 64 64 58 67 65 75 72 77 78 86 68 76 75 72 89 97 91 76 60 58 60 52 67 81 76 79 69 56 57 52 60 59 62 67 67 68
89 96 97 83 78 91 98 90 80 67 63 60 72 70 69 68 77 86 84 66 67 68 67 71 78 95 76 87 80 62 66 66 70 78 76 74 53 46 45 52 59 67 70 71 72
92 100 99 87 97 90 94 85 71 79 69 77 68 71 63 61 81 88 86 78 68 65 75 71 81 96 90 74 74 77 66 58 79 69 78 69 61 64 53 56 66 72 73 73 76
97 98 100 97 98 96 86 75 70 74 77 76 74 69 69 66 85 79 80 68 65 67 67 62 84 91 76 65 63 72 65 67 67 74 77 76 66 63 70 72 73 79 82 78 71
96 99 98 98 91 86 86 83 81 69 79 71 66 66 65 68 72 83 81 72 63 69 68 62 79 69 80 64 71 77 69 62 64 79 75 64 68 70 71 74 78 82 72 67 65
96 98 88 98 96 95 76 78 84 83 66 70 70 65 61 73 67 80 77 71 63 70 67 65 85 81 75 73 70 71 72 67 73 60 63 64 67 73 77 76 80 65 62 64 67
95 95 80 68 90 90 81 77 79 77 72 70 70 68 59 67 60 65 71 70 74 67 73 74 94 72 83 67 64 71 67 72 65 63 62 63 62 62 75 78 68 68 67 70 73
99 83 75 77 95 91 84 76 75 71 72 66 68 72 69 67 62 69 76 78 73 69 78 76 83 86 86 72 59 70 58 64 71 75 67 75 63 78 65 72 67 69 73 79 78

GFSSW_925_rhum_075.txt.gz
RH
98 100 99 97 92 97 96 96 95 94 89 85 85 93 94 88 84 80 91 42 59 85 84 84 86 84 78 87 80 71 87 79 65 61 62 48 53 46 44 49 52 49 52 65 86
86 99 100 98 92 95 97 94 96 92 87 84 84 92 97 88 80 89 36 63 84 80 66 88 83 80 88 90 82 88 88 71 46 47 58 47 49 47 51 53 57 50 88 91 70
94 92 99 99 96 98 97 94 90 91 90 84 89 92 95 80 79 61 80 80 74 68 65 73 83 82 94 83 85 81 86 58 54 49 52 51 57 54 62 62 57 54 69 91 94
99 94 94 99 97 92 96 96 90 95 91 80 87 93 87 76 45 61 73 64 69 64 69 85 84 83 89 86 70 82 67 64 57 52 58 57 47 55 60 55 46 47 59 80 82
98 97 97 100 98 93 86 94 91 91 90 84 91 92 66 87 80 43 57 67 55 70 74 81 84 78 85 74 76 84 69 66 61 58 60 64 66 51 54 54 53 52 71 70 71
100 94 100 100 98 92 82 95 90 94 91 87 92 91 80 72 41 55 58 64 57 70 78 85 80 73 85 85 79 68 70 73 68 61 63 60 65 66 51 49 68 67 70 73 68
96 90 94 100 97 82 82 95 89 88 92 88 93 88 89 58 39 48 52 56 54 60 73 74 78 79 76 94 66 69 80 74 72 68 66 65 73 88 60 60 71 67 70 75 71
95 96 99 100 97 75 86 94 93 91 90 90 97 85 80 38 56 57 56 56 57 58 70 68 75 80 80 78 89 85 77 90 70 71 60 69 78 75 74 75 80 63 65 73 80
84 98 96 100 93 83 92 89 81 90 89 93 91 81 75 53 57 57 60 66 68 68 72 70 76 82 68 99 100 87 96 92 90 65 78 84 73 82 75 82 79 72 83 76 76
89 96 89 100 92 81 91 83 81 88 94 89 82 91 59 52 58 62 65 71 78 76 78 86 89 90 96 99 97 97 99 98 86 80 79 93 86 80 79 80 76 71 77 89 87
88 94 93 100 91 89 84 85 80 81 88 80 71 67 56 58 67 68 68 74 74 81 92 87 99 98 99 97 99 99 93 96 83 73 78 94 89 80 86 80 70 74 70 76 88
86 96 93 99 92 91 86 90 76 60 74 78 70 72 58 60 72 72 73 83 84 92 88 92 100 83 80 90 98 95 91 94 83 88 83 82 92 85 79 83 82 76 72 63 62
87 96 90 100 92 98 91 77 76 65 76 69 71 65 62 66 76 78 73 80 87 91 100 100 93 78 85 100 98 79 80 94 99 94 86 90 94 92 81 78 78 72 68 60 60
91 93 89 100 97 93 96 62 78 66 85 59 70 62 71 75 89 78 87 78 89 95 97 98 79 78 89 94 85 88 72 77 85 97 96 88 99 86 77 75 76 78 77 70 56
88 94 90 100 86 88 78 70 72 57 82 35 61 57 78 80 84 89 87 94 92 89 97 96 90 85 93 89 85 92 70 77 77 85 92 99 90 75 85 85 78 76 75 71 64
93 86 92 100 93 86 84 72 64 82 75 64 72 77 85 80 87 81 85 86 80 94 89 87 78 89 90 84 85 77 78 84 88 88 91 99 77 80 58 63 80 80 64 61 54
80 93 99 100 95 84 86 67 89 92 60 74 75 74 81 82 84 89 97 94 90 92 98 86 88 91 93 95 81 75 84 99 96 94 96 95 77 76 47 50 64 75 60 51 53
87 88 99 88 81 87 70 83 95 62 76 54 64 68 76 76 96 94 96 99 86 92 94 92 91 95 91 89 94 85 80 84 91 92 98 89 76 84 53 54 54 55 67 67 62
100 99 99 92 86 88 83 98 83 73 65 72 70 72 75 71 95 98 100 86 77 76 90 99 100 86 89 74 67 71 77 57 90 94 93 73 53 46 54 57 59 61 63 66 65
97 92 96 87 100 85 91 88 78 60 64 60 71 65 79 74 82 87 89 72 93 76 74 92 97 87 76 65 57 58 53 65 80 90 94 68 59 64 62 64 65 67 68 67 67
87 96 98 99 94 88 98 92 80 64 62 60 72 77 70 72 79 85 82 72 70 70 69 72 78 90 75 93 88 66 65 68 69 73 73 73 56 50 51 59 72 74 74 73 72
94 99 100 94 98 90 98 84 73 79 70 75 70 69 62 66 86 90 86 81 74 67 76 72 80 94 91 74 75 80 68 57 71 67 69 68 62 63 55 62 70 78 77 71 67
98 98 100 92 100 98 85 79 72 75 73 70 77 68 66 73 85 82 82 69 68 71 68 62 83 91 79 64 62 74 68 68 67 69 72 68 65 68 73 76 75 80 70 63 60
96 99 98 98 89 87 96 80 82 70 78 68 74 67 65 73 73 85 82 72 67 73 67 61 82 70 82 68 71 74 71 65 62 70 66 60 70 75 78 79 82 74 64 62 63
98 100 94 99 95 94 88 76 84 82 76 69 71 64 64 73 67 85 78 70 62 71 69 67 86 81 75 74 73 73 72 67 70 59 58 57 67 67 73 78 80 64 62 64 67
97 99 94 76 87 96 85 76 82 76 75 74 79 68 60 65 60 70 71 70 78 69 75 74 92 73 83 65 65 74 72 70 65 63 61 64 59 62 76 76 67 67 67 73 73
99 89 82 84 91 95 82 75 75 75 76 72 72 72 74 70 62 70 78 81 78 72 76 76 82 86 86 71 58 71 64 71 72 74 65 62 62 73 73 71 67 71 76 78 76

GFSSW_925_rhum_078.txt.gz
RH
93 93 90 98 99 99 98 98 94 96 95 89 84 88 95 92 88 71 49 40 56 72 90 84 78 74 68 53 57 53 76 61 44 37 33 25 36 31 30 31 27 29 33 30 57
99 98 97 98 98 99 98 85 94 96 92 88 84 89 95 84 74 58 46 55 77 84 59 59 58 67 70 62 51 60 63 50 32 28 30 26 36 36 38 36 34 36 33 57 83
99 99 98 92 89 100 96 87 86 89 94 88 88 91 93 76 52 32 83 80 81 60 67 64 67 60 64 64 61 47 63 38 36 34 32 30 35 32 40 42 33 34 36 58 72
98 99 99 97 99 100 100 90 96 92 95 84 86 89 87 69 46 52 78 64 83 64 65 62 60 62 59 60 53 75 48 38 37 37 41 41 33 38 41 32 28 31 44 55 72
89 96 97 88 88 100 97 91 94 90 94 87 87 90 72 61 48 52 60 70 71 68 54 50 57 55 58 44 50 60 52 44 37 43 46 43 42 39 39 34 28 31 40 55 68
80 84 99 88 90 100 98 78 91 90 95 90 87 92 69 75 39 55 56 71 62 65 58 55 50 52 60 58 60 45 51 51 47 48 50 48 47 45 40 30 36 34 39 52 63
79 80 96 100 100 100 92 89 93 88 92 91 88 90 74 63 41 56 51 59 59 57 53 54 54 59 54 64 51 72 79 61 52 48 56 42 58 57 44 41 38 38 41 50 63
80 84 89 95 100 99 86 84 89 92 82 90 95 85 69 43 55 49 57 55 58 59 61 57 60 60 66 57 68 78 79 96 51 49 45 57 58 39 38 48 44 39 44 57 66
80 83 87 89 100 96 87 93 91 88 89 94 84 72 56 53 58 58 60 55 60 62 66 64 64 68 63 86 97 93 97 87 57 42 46 59 67 41 44 54 46 39 48 72 84
82 85 88 96 100 93 93 85 88 88 91 84 79 67 52 42 51 62 68 69 61 61 63 67 76 77 75 96 92 100 83 68 61 46 49 53 57 65 59 52 50 48 56 84 83
88 87 93 99 100 93 90 93 80 77 76 57 57 54 46 50 65 60 68 70 64 65 68 68 86 86 64 93 95 100 98 90 58 69 54 87 68 76 72 64 58 62 65 68 80
83 88 84 96 100 88 79 90 67 59 63 65 64 60 57 53 59 60 71 69 66 67 72 77 85 57 74 86 96 100 97 97 92 72 57 91 86 77 73 71 63 64 65 84 93
82 90 87 91 99 96 85 81 75 68 59 64 61 58 52 57 63 63 65 66 70 69 76 96 67 72 93 99 100 98 86 82 98 84 76 79 93 89 76 74 75 71 64 72 77
89 83 88 92 100 98 91 69 67 62 84 65 70 57 64 62 78 61 72 69 75 76 75 90 77 83 94 100 88 89 68 92 96 99 98 84 92 100 89 84 84 70 67 76 76
93 87 91 92 99 90 66 61 70 60 85 56 67 59 63 72 75 78 78 80 95 86 98 98 87 82 83 98 79 78 80 82 87 69 82 96 96 94 86 90 86 77 78 75 72
92 94 94 94 99 82 65 67 64 82 84 70 64 72 86 78 76 74 77 77 75 96 96 83 66 78 79 76 81 80 67 73 69 67 91 100 94 93 81 56 70 69 75 69 65
89 91 92 99 89 80 84 76 90 88 58 77 73 70 71 74 79 84 92 80 95 98 99 73 94 85 86 93 89 85 66 93 86 91 95 97 79 93 50 48 51 76 69 75 65
96 100 95 100 86 92 89 82 92 67 72 54 57 63 70 73 81 79 79 81 74 76 79 93 100 98 84 87 85 71 68 64 69 87 96 59 88 88 51 55 76 74 75 65 69
100 100 99 100 94 90 87 95 82 75 51 59 62 65 68 71 77 92 94 75 74 77 93 99 100 92 82 68 64 64 67 49 71 78 62 75 59 50 50 57 69 80 78 80 64
90 93 97 100 99 92 98 89 73 52 55 52 60 56 63 68 66 77 86 85 92 78 70 72 93 70 66 61 53 50 43 59 66 73 78 71 56 61 56 60 58 62 68 70 61
80 97 100 99 92 95 98 88 72 54 55 54 57 58 56 63 63 68 95 92 72 63 61 63 63 70 62 74 76 55 51 51 48 58 52 59 61 41 51 52 57 60 58 56 55
90 99 97 97 99 98 86 74 65 65 63 60 56 52 52 60 69 70 77 79 58 60 64 58 59 81 71 58 60 66 54 43 45 55 54 42 51 46 44 51 54 58 54 50 50
98 97 99 90 98 95 78 73 62 63 62 60 63 56 51 63 70 69 72 60 59 62 59 52 63 80 67 54 54 56 52 48 46 47 54 46 52 47 46 54 56 53 48 46 46
94 100 98 95 88 62 94 68 65 65 64 60 64 53 54 60 62 73 68 61 58 63 65 50 58 66 59 68 63 58 54 50 46 53 40 43 57 57 57 58 61 52 46 45 47
96 99 92 100 93 83 87 63 64 65 66 57 56 51 51 61 63 69 64 57 55 60 54 51 78 73 58 59 61 61 61 54 60 47 44 44 44 49 52 53 55 48 47 49 51
97 94 88 72 77 97 79 61 63 71 67 60 57 55 48 53 52 62 57 56 64 52 57 54 79 65 75 49 54 62 61 57 53 52 48 44 50 40 48 53 52 48 51 54 54
96 91 69 75 76 93 79 64 65 62 64 62 52 53 60 63 55 56 53 57 59 58 57 58 67 75 75 53 50 50 56 59 61 57 49 45 54 53 59 56 53 52 53 55 57

GFSSW_925_rhum_081.txt.gz
RH
99 99 99 99 97 97 100 98 98 95 97 93 88 85 94 92 78 67 50 40 43 62 79 72 60 53 52 41 36 39 72 58 38 31 25 17 18 16 17 23 22 21 20 22 44
95 96 98 98 99 98 99 99 97 94 95 92 86 88 95 81 68 47 42 44 62 82 61 51 47 51 56 48 42 49 55 47 29 23 23 19 19 18 22 24 28 26 20 23 63
91 96 94 99 99 94 100 100 97 90 89 93 84 87 89 74 50 28 52 64 78 59 50 46 48 45 48 49 55 43 49 30 26 24 23 24 22 18 24 30 25 28 26 30 49
84 86 94 97 99 98 100 100 94 92 90 95 84 80 80 63 44 44 78 70 85 57 48 42 40 48 45 42 45 57 41 38 30 26 28 33 29 26 23 24 21 22 26 36 45
87 82 87 95 100 100 99 100 98 91 89 90 83 78 72 56 44 49 69 68 65 56 43 37 40 40 45 33 32 38 38 34 34 35 30 30 35 31 28 24 22 25 37 32 52
70 86 74 91 94 100 100 99 89 90 93 91 86 78 64 64 37 40 48 52 52 55 44 43 40 38 45 43 41 34 34 35 35 35 38 36 34 34 31 23 24 27 29 32 33
72 84 83 80 94 98 100 95 96 92 94 91 87 74 63 50 38 42 49 48 46 48 44 42 41 45 41 49 40 43 56 52 44 44 45 40 48 41 29 27 30 28 30 30 36
73 75 77 84 98 100 99 91 89 92 89 90 86 68 59 46 40 40 36 38 44 48 50 48 45 46 52 48 52 56 58 82 45 44 45 47 66 32 26 30 34 33 31 33 36
78 81 85 86 98 100 94 93 98 86 90 88 76 67 50 46 41 38 45 44 42 46 48 48 47 59 56 77 80 64 81 64 54 41 45 52 54 33 24 28 34 35 35 34 37
84 87 90 86 97 99 100 90 84 90 85 75 68 67 40 37 42 44 48 52 52 50 57 64 73 68 65 71 84 73 95 76 59 46 47 51 46 39 49 46 32 38 34 38 48
80 81 90 88 95 99 87 94 77 81 75 59 51 39 32 41 51 49 54 59 57 59 72 60 84 88 59 58 55 79 99 96 84 44 44 48 44 36 63 60 54 37 34 41 54
87 89 88 89 93 100 98 81 71 68 64 53 45 42 45 45 51 51 59 64 57 66 52 64 82 48 53 54 68 78 98 95 77 54 53 41 53 37 58 64 64 59 45 52 88
91 91 92 90 84 100 85 77 59 71 54 61 51 48 44 48 52 53 57 52 61 55 51 65 53 52 88 98 97 96 85 85 100 73 59 62 91 75 55 56 60 62 61 72 80
89 73 88 91 93 97 87 70 74 72 86 66 63 51 55 50 66 49 59 69 65 66 63 68 53 83 94 100 98 95 70 91 95 70 85 60 84 89 72 69 81 72 74 80 85
90 92 89 89 78 89 83 74 78 65 95 56 60 52 54 58 71 70 72 70 77 74 98 92 83 87 94 98 91 97 70 73 86 98 87 79 71 89 90 86 93 89 89 84 85
93 88 91 90 88 78 85 76 79 94 89 68 61 70 72 67 68 69 78 68 69 92 94 93 60 73 79 68 70 76 83 86 87 96 95 98 76 97 100 98 80 85 84 72 67
89 87 91 89 77 86 78 90 99 95 53 76 68 65 68 70 81 84 77 85 88 99 96 64 83 81 82 95 81 86 79 95 99 98 98 99 67 98 94 67 79 90 86 78 72
98 96 92 84 85 96 83 100 99 70 59 50 55 61 83 67 78 74 68 79 67 67 79 97 98 97 83 85 70 88 63 85 94 92 92 69 92 95 89 83 89 81 80 81 77
86 100 99 94 90 92 97 100 97 69 52 56 57 66 75 61 72 81 83 68 70 74 98 100 100 88 73 60 61 61 64 45 56 45 61 81 91 74 75 85 83 82 79 78 83
86 92 92 95 88 95 99 99 81 48 43 46 57 53 57 61 71 73 62 73 81 71 70 91 100 82 58 55 51 54 41 62 59 74 75 64 64 72 75 84 82 88 87 80 68
67 92 99 100 97 98 100 98 59 47 41 46 45 48 46 53 49 57 93 83 67 56 56 58 70 63 53 63 64 54 45 39 41 51 47 58 63 41 50 54 62 67 70 68 63
66 98 100 90 99 98 100 71 47 54 48 49 44 41 43 48 55 57 77 78 52 52 55 50 54 70 61 48 49 54 41 36 47 51 43 43 58 38 43 46 49 52 50 47 45
95 99 93 97 99 99 71 58 48 48 52 51 50 46 43 51 62 55 58 51 51 54 54 44 52 76 60 50 43 45 40 36 36 41 45 46 54 36 43 49 47 47 44 43 44
87 100 97 92 83 64 57 46 55 54 55 51 51 42 44 51 46 58 58 54 50 52 62 49 50 62 65 70 56 52 43 35 43 53 32 42 52 45 48 52 49 44 41 42 43
83 94 91 99 66 70 54 42 50 58 52 45 45 41 42 54 50 55 48 48 46 53 47 44 68 67 48 49 52 50 48 41 51 36 41 39 42 45 45 47 47 42 41 42 44
80 76 65 69 76 68 58 44 51 57 56 48 46 40 37 49 43 53 41 42 50 38 45 44 72 60 70 43 47 55 49 45 45 40 37 37 43 35 37 39 46 42 44 46 47
82 72 53 62 70 59 47 45 52 50 54 45 40 45 58 56 45 42 41 41 45 47 46 49 59 74 68 45 45 46 51 52 53 48 45 41 46 37 48 49 46 43 45 46 48

GFSSW_925_rhum_084.txt.gz
RH
88 90 95 98 99 98 97 99 99 100 97 95 90 86 86 88 75 82 68 46 46 47 50 65 60 48 47 46 39 41 71 72 55 42 34 22 22 17 15 19 17 18 21 21 61
83 88 91 92 96 98 99 95 99 100 97 96 87 85 93 76 76 57 46 46 36 51 73 58 48 52 57 50 47 55 68 61 39 33 31 24 23 21 19 19 21 23 22 25 80
80 85 82 85 85 98 99 95 100 97 97 94 89 77 82 75 62 50 41 57 63 72 54 46 45 44 54 51 53 50 64 43 35 29 29 29 26 22 28 27 21 25 26 24 61
73 74 87 84 80 95 99 94 99 97 92 94 89 73 72 75 53 64 79 76 81 55 45 38 39 50 51 48 46 62 48 44 41 34 34 32 27 31 31 31 22 21 22 38 57
75 70 83 78 81 83 93 99 100 99 96 96 87 69 75 62 45 68 68 73 72 51 41 36 37 40 48 38 37 41 40 33 33 34 34 34 38 32 33 27 24 23 24 36 44
78 78 74 78 79 84 96 100 99 99 96 92 87 69 77 60 37 50 53 55 50 53 43 40 40 39 46 46 48 42 41 40 38 37 37 39 38 38 29 29 29 26 29 31 39
82 80 75 80 84 89 98 100 99 93 82 96 87 80 59 49 34 40 43 42 46 46 44 39 38 44 45 57 41 47 58 52 48 42 45 39 49 50 33 27 30 30 27 30 44
82 80 81 87 89 93 82 100 98 91 95 93 86 69 60 47 43 38 38 36 38 43 44 45 46 50 54 47 56 66 67 80 50 47 44 46 66 44 40 35 32 31 32 33 39
86 84 82 89 88 98 99 99 89 90 88 89 81 64 58 45 35 34 32 36 41 42 44 44 43 54 58 78 89 74 92 76 61 41 44 49 60 45 35 33 32 31 35 40 42
88 86 88 90 90 86 99 100 96 84 89 78 65 72 51 38 39 41 42 42 44 46 51 60 71 82 76 89 90 81 82 87 90 58 60 55 57 42 42 47 50 30 31 44 45
88 89 90 83 92 89 95 91 88 89 76 70 61 40 36 39 43 45 48 55 53 54 77 68 95 95 73 74 71 71 76 80 71 57 78 74 61 49 54 64 75 70 53 45 58
91 92 92 64 94 86 95 86 92 91 88 66 48 39 38 41 53 48 53 60 61 72 62 76 98 58 52 79 81 88 83 87 72 66 75 83 61 47 47 69 63 71 71 67 84
94 91 91 84 89 93 82 90 87 81 91 68 52 45 43 45 48 59 54 51 60 67 66 89 59 71 86 92 98 91 79 91 96 90 76 66 64 57 58 53 57 58 69 84 87
91 93 93 91 86 97 93 91 78 78 100 79 64 50 49 48 61 49 52 64 68 64 79 85 61 60 73 99 98 99 72 76 100 95 93 78 98 68 75 71 61 75 75 90 93
94 90 91 90 90 80 90 94 80 76 98 68 60 47 49 61 69 71 68 71 78 74 93 80 84 87 98 94 92 96 73 92 90 93 86 86 97 92 84 83 84 91 89 91 90
81 72 85 80 91 79 72 89 80 99 97 73 65 67 70 61 64 72 72 65 68 85 94 93 66 79 72 66 72 73 81 90 95 99 87 83 87 99 97 98 90 91 90 92 94
89 83 86 79 75 85 80 85 99 99 63 74 68 65 60 72 79 73 75 84 96 100 95 77 86 78 79 93 75 84 96 99 98 98 98 95 76 95 92 91 86 93 95 94 92
100 85 94 85 84 84 83 100 98 69 66 49 59 63 70 64 75 79 79 91 72 72 100 100 98 96 85 91 96 85 97 99 97 97 98 77 95 99 95 91 86 90 91 91 92
95 100 98 82 82 84 89 98 99 77 51 56 60 72 74 61 68 77 77 90 69 84 100 100 100 84 83 72 60 70 93 73 100 66 92 99 100 97 95 93 91 93 92 93 89
98 91 97 84 86 89 97 100 77 52 44 49 61 52 64 60 74 84 83 72 74 77 78 90 100 78 62 69 57 58 46 73 88 97 95 86 92 100 100 98 92 90 92 86 78
68 94 94 88 88 97 100 100 68 48 46 50 45 54 52 60 91 76 87 75 67 79 74 66 85 63 58 63 67 59 57 48 49 62 75 81 96 58 90 87 93 90 82 63 67
74 97 99 82 99 99 100 84 45 49 44 48 43 50 57 51 72 69 78 80 51 54 56 50 65 80 59 48 47 59 45 41 77 61 64 72 77 50 56 56 55 58 58 50 48
96 98 84 88 100 100 88 54 54 48 53 48 49 46 43 54 83 62 60 49 49 53 61 54 62 91 68 59 50 47 41 45 43 64 58 79 80 51 57 57 52 55 52 51 48
88 99 95 92 90 93 57 53 61 54 52 45 47 42 45 51 48 56 62 52 48 51 65 62 59 72 89 74 61 60 49 45 59 79 62 64 69 66 63 60 55 53 51 52 51
80 88 85 99 74 57 43 49 59 57 46 42 43 41 43 51 54 55 50 56 45 48 52 52 72 70 49 50 53 54 53 52 56 43 62 59 60 59 61 62 55 51 50 51 52
78 84 79 66 68 50 48 54 55 57 54 46 49 48 48 56 51 53 43 52 56 41 46 47 75 65 62 46 51 59 56 55 56 51 44 49 55 45 50 54 52 51 50 52 53
73 64 58 64 60 47 50 52 59 51 53 53 50 58 66 59 46 41 41 42 43 50 51 54 74 89 78 48 47 64 56 58 55 55 55 61 51 47 52 56 51 51 49 52 53

GFSSW_925_rhum_087.txt.gz
RH
84 85 84 84 87 94 97 99 96 99 99 97 93 92 78 88 92 88 82 59 58 49 33 58 57 55 49 50 46 42 79 87 74 64 54 34 33 25 22 22 20 20 20 40 70
81 78 84 88 78 84 85 98 99 93 100 96 85 80 76 85 87 82 64 59 56 37 47 72 68 54 64 57 55 58 82 71 55 48 46 36 34 32 31 29 29 25 26 83 82
82 74 75 76 85 80 88 95 100 98 100 94 92 81 71 80 85 62 55 59 55 56 62 50 46 49 61 57 59 60 70 53 49 44 41 40 37 30 33 37 35 33 30 67 93
88 80 76 76 72 84 80 84 88 97 100 98 94 75 75 84 82 68 57 58 68 56 49 42 44 55 58 60 55 69 56 53 49 44 44 42 36 39 38 34 29 31 28 38 86
85 88 85 77 73 74 80 86 92 98 99 98 94 72 78 84 70 73 76 80 64 50 45 41 43 45 56 49 52 54 54 48 45 43 42 38 41 40 38 36 28 26 30 41 57
90 87 80 79 80 82 82 89 97 98 98 99 90 74 80 81 68 70 70 72 64 51 46 40 44 44 48 49 57 51 56 54 49 46 42 45 42 42 40 34 36 29 31 34 47
92 88 86 81 84 84 91 98 83 100 99 86 77 80 71 68 45 45 55 57 53 52 50 43 44 46 53 59 51 60 71 63 56 53 55 46 53 48 39 37 39 35 29 31 34
90 88 87 85 88 88 88 89 97 99 100 92 91 79 77 52 38 41 42 42 44 44 44 46 46 53 57 54 61 71 75 93 55 54 55 57 69 40 39 42 40 40 36 31 36
86 90 90 89 90 89 82 99 98 100 98 93 85 83 71 45 41 39 38 36 36 40 44 45 45 62 60 74 92 84 98 86 66 51 58 62 68 47 38 39 45 41 38 35 37
91 90 91 90 92 85 99 95 98 94 85 82 77 82 60 46 36 34 34 40 46 48 48 59 72 81 82 92 96 92 97 80 80 57 57 70 91 68 41 46 43 41 37 36 46
95 95 94 91 92 91 73 94 89 94 91 83 72 61 51 44 41 43 46 50 54 50 72 78 88 89 88 87 78 83 87 86 70 58 67 85 85 76 49 57 73 68 59 60 62
93 94 94 91 94 92 72 95 97 98 91 79 69 50 45 44 57 55 53 73 72 83 68 82 90 74 70 69 74 91 97 89 76 64 83 89 90 79 54 61 67 78 81 78 84
94 90 90 93 83 88 82 98 90 100 94 81 68 52 46 46 56 65 61 65 68 72 75 93 72 66 78 90 93 88 96 90 86 71 84 90 94 78 56 62 67 72 75 78 86
78 80 84 84 82 88 95 84 81 100 100 98 75 54 50 52 68 54 58 65 74 74 86 88 71 71 76 92 88 99 90 95 93 98 96 85 96 72 83 79 81 93 95 98 93
94 92 86 77 82 82 87 87 79 88 96 82 68 46 54 65 71 76 66 70 78 70 89 74 86 87 90 96 93 98 85 85 93 96 98 91 100 94 79 83 90 93 95 96 94
86 80 69 75 82 80 75 79 80 93 98 98 74 71 72 66 71 78 80 68 69 87 87 84 72 80 79 77 73 76 92 95 94 98 100 81 95 96 92 92 86 86 95 93 94
89 88 73 82 85 83 75 81 88 95 84 82 86 70 65 79 82 81 90 89 93 95 96 78 84 78 80 88 78 89 100 98 98 98 99 92 86 98 91 85 84 92 96 97 95
99 89 81 87 87 81 77 86 88 95 74 59 63 71 81 72 77 87 85 90 80 82 95 97 92 91 85 88 96 96 99 98 97 97 98 78 97 100 94 89 90 93 95 96 96
93 87 87 88 80 72 86 96 98 93 57 65 71 84 80 69 75 81 79 85 76 85 100 96 96 81 87 77 73 82 99 89 100 78 96 98 100 97 95 94 91 94 94 96 94
87 85 94 82 82 72 92 98 92 57 59 67 81 68 77 77 78 82 87 75 80 80 78 90 96 78 71 68 66 68 56 80 95 97 96 98 98 100 100 99 95 94 95 92 89
70 92 99 82 76 92 99 100 98 70 69 74 57 63 63 84 82 89 88 76 72 76 81 84 95 77 70 64 68 70 69 57 56 72 81 89 98 95 96 96 96 88 85 86 87
83 94 92 81 97 99 100 96 83 62 52 50 53 59 60 74 87 77 85 85 66 58 74 71 71 89 60 50 51 60 66 51 78 65 78 84 96 71 79 80 77 76 64 53 58
98 98 82 80 98 100 94 74 63 58 58 54 52 49 48 73 74 69 66 52 51 57 63 59 71 91 76 60 57 58 51 53 54 68 77 89 96 64 62 63 72 67 56 52 52
95 98 92 93 94 95 73 59 66 54 54 47 49 45 49 57 58 64 66 54 50 53 57 62 67 76 90 74 67 65 61 57 61 82 79 81 90 80 71 66 62 60 59 60 59
86 92 82 99 94 97 57 63 68 69 57 45 49 46 47 63 59 59 54 57 51 48 54 60 72 70 54 54 58 63 67 66 70 54 70 78 79 77 72 67 62 59 59 60 60
90 92 90 86 76 61 58 68 68 65 65 68 71 66 63 70 62 62 53 56 58 53 49 59 72 74 68 52 52 57 64 66 66 63 61 61 62 59 64 62 61 61 58 60 59
74 70 75 75 73 65 67 69 67 54 60 61 62 68 69 65 62 63 45 47 46 51 59 60 79 91 77 57 52 64 60 63 63 63 58 67 57 60 65 59 60 60 58 61 60

GFSSW_925_rhum_090.txt.gz
RH
82 84 82 78 91 80 86 89 96 98 98 100 97 95 77 80 90 93 87 56 56 62 36 56 56 55 51 54 48 46 83 93 78 67 61 41 42 31 28 29 30 23 26 71 90
87 90 81 75 78 87 79 83 95 96 99 99 98 97 69 82 84 90 48 69 64 61 51 69 70 56 66 59 57 60 86 78 62 54 55 46 45 41 36 36 33 32 32 33 85
89 90 90 79 79 77 75 81 81 94 99 98 99 92 78 81 86 75 51 72 65 58 39 60 53 59 67 60 61 62 76 58 50 48 50 52 49 40 43 44 35 36 34 34 42
92 89 86 88 87 75 74 76 83 87 97 99 99 91 91 76 57 61 61 65 59 56 52 45 49 57 61 63 54 71 60 56 54 51 52 52 45 46 42 40 36 36 32 33 51
89 93 92 86 82 78 82 82 81 86 96 100 99 94 82 87 74 60 62 64 67 52 46 42 45 55 60 53 51 56 55 53 51 50 48 43 46 46 43 37 37 35 33 37 43
91 94 92 88 84 81 84 83 86 91 94 99 97 95 76 76 63 70 73 75 53 47 46 40 44 45 51 50 57 58 64 63 58 57 53 53 48 45 39 36 35 35 36 38 38
87 86 91 90 86 86 87 88 90 96 94 100 89 80 71 60 74 77 76 60 54 48 50 49 48 47 56 59 56 62 69 67 56 55 59 52 60 55 38 35 38 36 35 39 40
88 87 92 91 88 88 96 79 68 90 95 100 89 72 68 53 54 64 61 55 53 48 47 47 45 53 58 55 63 68 73 94 61 55 56 60 70 50 41 40 38 38 40 38 41
94 93 92 94 90 92 88 96 87 99 100 91 92 71 73 46 48 44 45 43 40 41 43 44 46 59 59 72 91 85 99 89 75 53 58 69 80 62 54 56 46 39 37 46 44
89 91 91 88 92 94 80 98 99 100 97 89 80 76 66 50 40 41 39 36 48 49 54 58 77 82 83 90 94 91 86 88 86 63 59 67 71 57 55 66 58 47 51 46 48
93 89 77 87 93 90 77 90 87 93 98 86 79 73 65 43 36 45 45 51 54 54 75 79 90 90 81 87 77 81 94 93 77 63 70 74 74 72 66 70 64 68 73 69 62
93 78 79 84 85 91 81 93 98 95 96 83 64 50 44 42 58 60 48 71 71 82 68 86 92 73 70 78 87 91 89 86 75 63 74 81 85 72 68 68 60 66 78 83 81
76 75 79 72 67 87 85 87 86 94 96 86 74 49 50 48 65 73 63 67 80 83 84 96 72 67 77 86 91 86 85 83 97 84 76 79 80 80 65 63 78 84 88 87 89
84 80 74 66 78 91 89 90 86 95 99 99 88 62 50 51 72 56 58 65 72 80 78 88 74 76 81 91 84 96 72 90 99 98 95 83 94 91 86 83 88 88 97 94 97
88 79 70 69 76 84 80 89 92 90 96 98 85 50 54 69 77 76 66 65 80 75 81 77 83 86 93 86 84 84 85 94 89 91 97 95 99 76 82 80 89 82 86 90 94
89 71 61 70 73 76 81 92 83 91 96 100 80 73 73 68 77 82 77 70 71 88 89 80 71 85 79 76 80 74 85 96 96 97 98 87 91 96 96 92 82 80 93 96 94
87 70 71 80 85 80 84 80 86 93 97 96 93 73 73 79 86 86 95 83 91 88 83 70 76 78 76 90 82 87 100 98 98 98 98 87 89 95 90 83 83 90 95 96 94
76 74 82 85 84 80 80 83 88 96 79 66 74 71 78 78 80 86 88 94 89 85 95 98 84 89 82 87 96 96 100 98 97 97 97 92 95 96 91 88 90 92 94 93 94
79 80 88 84 80 76 89 96 97 91 62 74 89 88 88 74 72 89 86 80 76 80 94 98 90 81 86 80 86 93 100 92 100 84 94 97 100 98 96 90 89 92 94 97 97
80 86 92 85 83 78 91 95 90 71 64 71 79 71 83 83 78 92 87 71 81 76 74 89 99 80 67 80 75 84 65 95 98 98 96 96 98 99 100 100 97 94 95 95 92
70 94 77 85 78 89 98 100 99 78 61 75 67 70 67 87 82 81 82 73 74 81 82 87 87 70 67 74 67 74 81 68 63 83 95 86 98 96 99 99 99 92 93 93 92
75 94 77 80 95 99 99 97 85 82 73 76 56 57 73 87 90 84 83 86 69 68 82 82 77 93 63 52 52 60 70 58 76 65 85 84 95 87 91 91 88 85 75 78 82
96 96 74 81 95 97 86 89 79 61 58 54 52 49 58 74 78 72 69 57 62 60 63 57 74 91 70 52 56 66 60 62 61 72 83 85 86 74 82 83 78 71 60 61 58
91 94 91 93 91 92 87 63 67 58 53 48 51 48 52 63 61 67 66 56 52 53 56 61 70 76 84 74 69 72 70 66 61 84 80 88 93 81 73 76 76 64 60 61 59
90 91 82 97 87 98 92 67 71 76 59 62 61 64 50 65 61 63 55 54 51 52 54 56 68 70 57 58 56 62 71 72 76 61 66 84 86 84 76 72 68 65 64 64 62
84 86 93 89 81 66 70 74 72 69 70 67 72 70 70 74 74 68 63 58 58 53 54 64 69 74 67 51 52 51 65 69 71 67 73 67 66 64 66 66 66 67 65 65 63
81 81 76 76 69 72 76 70 69 56 64 68 67 64 68 68 66 65 65 53 49 53 57 64 80 90 69 65 61 54 55 64 64 65 60 66 58 69 69 65 64 66 64 63 63

GFSSW_925_rhum_093.txt.gz
RH
87 87 91 89 78 78 86 80 86 93 97 99 100 100 94 77 87 86 78 57 54 65 53 54 56 54 49 54 49 52 85 93 77 75 63 48 50 38 31 33 33 28 38 54 78
85 90 91 90 82 76 78 77 74 87 89 96 99 100 85 66 87 87 46 56 71 62 54 64 67 56 69 60 59 67 88 80 65 57 56 51 53 49 44 44 40 33 32 29 30
82 87 90 96 93 82 83 73 76 80 83 89 99 100 82 64 72 59 45 75 67 57 61 54 57 59 68 60 62 64 78 64 54 49 52 58 54 45 47 51 39 41 38 36 32
79 87 88 88 93 91 88 78 80 77 86 90 100 98 90 70 63 58 64 76 67 60 55 46 51 58 64 62 54 73 63 60 58 56 57 58 48 48 47 44 37 38 38 36 40
81 89 87 79 81 87 85 81 84 82 83 94 100 86 84 84 64 60 70 69 63 57 46 43 52 56 61 56 51 57 58 59 59 58 55 50 52 51 48 39 36 39 38 41 45
78 88 80 76 90 88 88 86 86 83 86 93 100 87 72 68 54 63 62 67 59 46 43 42 46 46 54 53 56 61 66 65 60 59 57 59 51 50 43 36 36 34 36 40 45
80 86 89 88 92 89 87 85 89 91 88 93 100 80 74 61 64 64 74 61 46 46 55 50 46 50 54 58 58 63 68 68 60 55 60 55 60 64 44 41 43 39 35 32 47
91 94 92 93 92 89 91 93 97 100 94 95 99 73 88 65 76 78 64 64 56 51 47 46 44 56 57 54 65 74 72 92 60 57 55 50 62 46 43 46 50 48 43 40 44
88 82 72 81 94 92 72 86 82 84 94 97 86 66 84 66 72 69 53 46 44 45 45 47 47 59 60 75 86 81 98 90 78 56 60 69 80 62 51 53 54 54 57 45 45
91 90 82 74 92 92 69 85 100 97 96 93 81 75 70 59 48 46 43 41 46 51 56 64 81 84 87 88 78 84 93 83 92 64 61 69 66 56 52 60 67 69 68 51 55
95 92 80 74 91 90 76 83 90 92 89 89 84 86 62 52 42 44 42 53 54 58 75 79 90 96 85 85 70 72 88 93 77 64 72 78 78 69 61 72 80 80 72 68 72
80 81 80 81 75 99 80 91 97 93 98 81 74 70 46 46 62 64 46 65 67 81 70 89 97 75 70 75 88 93 96 89 76 67 80 84 87 70 64 69 74 68 74 81 85
83 74 71 72 85 89 86 86 90 96 96 93 66 67 53 47 66 73 60 70 78 83 80 88 66 68 75 85 95 92 93 83 88 82 85 94 85 79 70 74 86 90 94 91 96
79 68 75 66 80 89 95 95 94 94 98 100 88 56 49 56 76 61 61 64 73 86 81 84 70 76 81 91 80 96 65 72 85 98 99 77 97 74 86 84 87 90 95 92 94
66 76 76 71 80 86 93 85 94 94 95 98 93 59 52 74 82 78 66 64 82 78 80 73 82 88 96 87 71 82 75 86 91 99 90 92 92 81 82 88 90 93 93 93 95
73 70 61 62 77 84 92 88 99 87 97 100 79 74 77 73 84 82 78 69 73 85 86 86 69 82 83 73 70 72 84 85 97 100 99 84 87 86 92 89 87 81 94 95 94
75 77 75 86 92 84 86 85 86 93 95 100 95 73 77 85 92 85 92 86 84 92 88 72 75 71 76 88 80 90 98 97 98 98 93 94 88 91 87 84 87 95 95 95 94
76 79 87 92 86 78 76 78 89 96 98 79 74 74 80 80 87 87 92 92 89 90 98 98 79 89 81 85 90 88 99 99 97 97 97 96 97 94 88 83 89 91 92 92 93
62 70 87 94 90 84 84 96 97 95 71 80 78 87 86 77 83 88 90 80 77 81 99 97 89 71 87 81 84 96 100 94 100 87 95 97 100 97 95 88 89 91 90 94 94
57 78 76 75 77 77 91 94 92 84 73 77 81 71 90 86 78 88 85 70 79 74 74 87 98 74 66 83 81 91 89 99 99 97 96 94 98 100 100 100 99 97 96 93 93
67 86 59 70 75 93 97 98 93 79 74 72 70 70 77 85 81 80 80 72 74 87 77 87 89 68 67 80 69 88 94 95 80 97 97 90 93 91 100 100 100 96 95 93 93
77 89 56 75 93 90 99 96 83 77 70 75 64 60 73 84 85 86 88 81 71 80 91 84 82 95 67 52 54 60 68 70 82 72 84 78 91 86 94 95 90 96 91 92 91
93 94 60 75 95 96 81 86 84 68 64 58 54 51 63 80 81 76 72 60 71 69 69 63 77 92 58 50 56 67 64 66 68 74 82 83 77 81 84 86 79 83 82 80 78
87 87 87 94 90 90 93 74 70 60 58 54 59 50 57 66 65 69 66 56 56 56 55 59 73 76 83 74 69 72 70 71 64 85 81 86 90 80 74 85 80 69 62 63 62
92 90 85 96 86 92 87 70 73 78 67 64 62 74 60 66 62 67 60 56 53 55 60 58 67 73 60 62 58 58 71 76 82 73 66 75 78 77 77 76 77 68 64 65 64
82 81 89 88 85 66 76 73 72 69 72 68 71 69 68 74 72 69 69 58 58 54 56 66 66 72 71 57 62 58 55 67 71 67 71 69 66 65 68 65 68 69 69 67 64
85 83 78 75 75 74 81 75 72 62 65 67 69 62 64 64 67 67 68 67 56 55 60 67 79 89 69 68 62 52 47 63 64 65 61 65 57 72 72 69 68 70 70 66 66

GFSSW_925_rhum_096.txt.gz
RH
79 81 87 90 91 85 79 77 82 75 89 89 94 98 95 98 81 76 77 48 55 62 54 55 54 51 46 55 49 58 79 84 70 82 60 51 54 45 39 39 37 32 37 36 30
80 77 82 84 91 81 87 83 78 74 81 87 81 94 100 86 74 82 46 72 71 61 52 61 67 56 70 61 61 72 78 69 66 62 58 52 54 52 49 48 47 40 32 28 29
92 84 84 84 87 86 78 85 79 78 76 82 82 99 98 70 60 51 48 76 68 54 61 55 58 60 68 60 64 65 74 65 56 53 58 60 60 49 50 56 48 42 40 38 34
92 84 84 86 88 79 83 82 83 87 87 80 91 99 84 64 74 59 66 74 69 41 50 49 53 61 68 64 55 72 64 63 64 60 59 58 52 52 51 48 41 41 40 42 45
86 81 81 89 90 80 82 83 87 82 82 88 85 100 73 79 58 67 77 71 69 52 44 50 56 56 63 58 51 58 62 62 61 62 59 56 60 58 53 44 39 40 42 45 46
85 84 82 91 88 71 86 90 90 86 84 87 94 99 70 81 59 72 77 66 58 43 44 43 47 48 57 59 57 63 65 67 60 57 55 56 49 51 42 40 37 36 37 40 46
85 86 89 92 96 93 91 89 91 87 94 88 97 85 75 76 77 65 65 59 46 44 55 49 44 53 54 57 58 62 65 67 59 52 55 50 52 67 50 46 48 44 41 41 44
88 89 92 71 87 95 92 89 95 97 91 93 99 83 95 80 79 72 54 54 50 46 46 45 44 57 56 55 64 74 70 78 49 61 55 54 67 50 51 52 54 52 48 46 48
90 89 89 82 80 94 74 76 85 75 94 90 99 82 95 90 87 65 58 50 48 48 49 48 49 64 62 73 79 78 92 88 76 58 61 62 78 64 56 50 50 50 50 55 59
93 94 86 78 82 84 73 69 82 96 100 96 91 78 91 93 69 49 46 43 50 55 61 68 82 84 86 82 68 69 93 80 85 63 62 71 70 56 51 58 60 59 64 68 69
93 92 75 74 90 81 61 76 93 89 84 92 93 76 73 82 46 47 44 50 53 61 78 81 86 89 76 79 68 77 86 92 76 65 72 80 79 71 64 71 81 78 74 77 70
85 77 67 91 90 74 74 97 96 98 97 86 72 67 58 52 60 62 47 66 65 82 77 86 91 71 70 76 83 89 96 84 75 69 71 84 85 77 70 74 76 92 90 93 92
78 67 72 87 95 77 87 90 94 98 98 97 84 80 78 71 65 68 56 67 75 80 79 81 62 69 72 83 91 84 90 88 86 74 77 91 83 69 73 79 83 91 87 85 94
76 85 65 80 81 95 95 98 97 98 96 100 94 76 54 61 79 65 64 64 74 80 82 82 70 72 83 87 80 91 66 71 81 97 97 71 95 71 79 81 82 94 90 95 94
77 66 69 71 80 92 87 88 99 100 94 99 92 58 59 77 80 78 67 63 84 82 75 73 78 87 87 78 71 75 66 75 81 95 99 93 95 79 83 84 78 86 85 91 94
74 63 60 70 81 97 99 97 99 84 97 100 83 74 79 80 84 80 78 69 73 83 84 83 70 81 73 72 70 66 82 85 87 100 98 84 91 86 91 89 86 83 91 94 92
80 79 79 83 99 93 92 81 84 93 96 100 86 76 81 89 90 86 88 85 83 84 87 74 82 71 71 91 79 89 100 95 94 99 93 92 95 83 83 86 88 93 95 92 92
69 73 79 85 83 77 74 78 88 96 94 80 74 76 90 82 88 88 92 92 84 88 95 96 84 84 81 86 91 97 98 99 96 97 94 98 98 96 88 85 88 90 90 89 92
54 56 65 70 73 76 82 93 98 93 75 79 79 83 85 79 89 88 88 81 80 81 97 95 91 68 87 76 83 96 100 94 100 100 97 94 97 97 94 94 87 89 88 94 95
59 70 64 68 69 71 89 93 96 88 73 75 78 70 89 87 78 91 82 70 80 70 74 89 99 72 77 84 82 92 88 100 100 97 96 95 96 100 100 100 100 100 98 94 93
65 80 57 66 65 90 95 96 89 76 71 73 70 72 80 82 79 83 83 72 71 83 75 86 90 72 71 88 72 97 91 96 95 99 97 95 96 97 98 99 99 99 96 94 94
74 85 52 59 92 95 97 94 78 73 69 71 61 64 74 83 75 84 86 78 70 82 93 80 88 98 67 55 56 60 67 75 87 74 85 81 91 90 94 95 96 96 94 92 93
90 88 52 56 94 98 80 84 83 70 66 61 57 56 66 79 78 81 76 60 73 79 75 74 79 93 56 49 56 67 64 68 74 78 80 87 79 80 84 86 89 92 87 86 80
85 87 86 94 90 87 91 77 69 62 65 60 65 54 61 69 69 70 67 58 67 69 57 58 75 77 80 68 70 71 66 74 71 87 78 81 82 75 75 86 79 72 67 74 68
91 90 85 94 85 82 79 74 74 82 69 66 63 75 70 64 61 65 62 59 56 54 64 61 69 76 69 72 66 62 60 74 79 71 63 70 76 72 76 83 86 78 67 68 69
83 82 87 85 81 73 83 82 79 73 73 71 70 68 70 70 71 68 72 58 58 55 58 68 69 75 83 57 63 66 59 65 69 69 71 75 68 64 68 65 70 72 72 72 69
86 86 72 78 77 78 86 78 80 73 66 66 68 65 63 64 66 68 68 71 67 60 62 68 78 89 75 61 65 55 49 61 64 68 61 67 56 73 74 74 69 71 72 71 69

GFSSW_925_rhum_099.txt.gz
RH
90 87 80 79 85 90 85 81 80 80 77 81 84 83 90 98 88 78 74 43 58 64 52 56 48 48 47 57 52 60 59 57 58 74 54 50 51 43 41 41 37 32 33 32 29
88 89 90 83 84 86 79 81 80 80 78 79 86 82 88 99 80 78 46 67 73 62 52 56 62 52 66 61 61 63 48 49 62 63 59 52 55 51 47 43 41 37 32 32 28
89 86 91 84 84 85 89 79 78 84 85 84 83 90 99 91 60 51 51 74 68 49 57 57 57 60 68 61 66 66 58 64 57 56 55 58 55 49 50 52 44 38 36 34 37
83 85 90 82 87 89 86 79 76 78 85 83 90 85 99 82 87 63 76 78 64 58 51 52 55 62 70 66 58 67 65 62 61 57 56 54 49 50 48 41 37 36 37 40 38
83 83 84 82 91 91 85 83 88 81 85 80 84 92 82 69 67 71 83 78 52 48 47 54 58 59 66 59 54 59 62 59 58 58 58 53 55 51 48 40 36 38 38 40 42
84 83 83 84 90 78 77 71 88 88 85 85 88 100 88 87 71 75 78 68 50 42 44 43 48 51 58 61 54 62 63 64 58 56 53 54 51 50 41 37 41 36 36 36 39
88 88 90 90 92 75 80 86 72 79 91 90 93 99 90 89 91 74 66 52 43 40 53 47 43 52 54 62 59 61 58 60 52 52 57 48 45 60 42 41 44 42 40 40 40
91 88 88 78 75 74 88 70 70 63 91 97 94 90 95 97 84 76 51 49 46 45 45 46 43 59 59 56 58 72 63 54 43 59 54 53 56 38 39 54 53 48 43 43 45
91 90 92 86 77 73 70 58 88 69 83 94 100 93 98 96 75 54 48 51 50 50 50 45 51 68 64 68 68 66 66 73 63 56 60 62 68 55 51 50 49 46 47 50 51
84 92 76 83 70 68 63 66 99 90 97 88 96 90 98 97 58 50 47 46 55 55 62 68 78 80 82 71 58 72 78 75 76 59 65 73 74 59 53 57 57 55 57 62 65
83 76 94 74 72 63 66 71 90 87 87 90 90 90 86 82 50 50 46 48 53 61 79 83 74 64 65 70 62 76 86 96 78 62 73 77 76 68 61 70 74 77 79 80 84
89 94 93 96 78 72 73 92 91 93 96 87 87 87 82 62 68 60 48 65 64 81 76 76 75 68 68 77 80 88 92 88 73 66 67 74 77 68 69 77 86 79 80 80 83
84 91 94 80 74 82 87 95 98 99 99 98 91 88 85 53 62 71 58 65 72 78 75 70 72 70 71 85 86 88 87 85 87 71 74 84 84 65 69 76 70 84 79 86 91
93 82 83 81 78 96 97 94 98 95 96 100 95 86 77 70 77 67 65 65 74 77 80 77 70 74 82 89 80 88 65 69 80 91 94 82 91 70 73 78 71 81 77 84 91
80 78 77 76 84 95 91 95 97 99 93 98 94 64 66 74 74 77 66 63 83 84 69 73 79 90 88 80 72 79 60 71 76 99 100 96 97 71 76 77 78 82 83 86 87
67 53 60 71 87 99 96 96 96 84 96 97 93 91 81 82 87 80 74 69 72 78 82 74 69 79 74 71 72 64 80 85 91 99 97 84 87 74 84 88 80 81 88 90 88
76 67 63 78 88 84 90 81 85 93 98 96 100 80 84 91 90 86 84 81 82 82 86 76 86 73 71 87 79 83 99 96 89 92 90 77 90 74 79 72 84 92 92 90 90
55 66 69 71 78 80 76 79 89 90 92 82 76 78 89 83 88 89 90 88 80 87 88 96 77 80 82 84 94 98 99 91 99 95 90 94 91 89 85 86 86 86 86 87 91
50 54 62 70 72 76 81 94 98 94 75 79 77 81 89 83 86 85 89 84 79 85 95 90 89 72 87 73 79 96 97 88 98 85 96 84 94 96 93 96 94 96 95 91 93
53 59 58 63 70 67 85 90 97 86 72 72 78 72 89 88 80 85 80 70 84 71 76 87 97 70 79 81 80 83 81 97 100 98 92 86 93 98 99 100 100 100 98 96 93
57 79 51 47 53 88 91 97 87 76 71 71 71 80 81 81 77 84 82 69 70 83 74 84 88 73 75 96 82 94 93 90 95 99 94 92 88 96 100 99 99 97 96 95 93
70 87 49 52 89 95 94 88 77 74 69 69 60 68 74 80 78 84 82 75 70 82 90 80 83 98 73 59 57 63 67 74 87 76 83 82 76 88 93 92 96 94 95 91 90
84 82 45 47 92 98 76 82 80 73 73 64 62 63 68 78 77 80 76 60 77 83 80 82 84 91 55 49 55 64 64 66 75 78 80 80 70 80 82 89 92 95 85 80 77
83 84 86 92 90 83 83 80 70 64 67 66 67 59 64 71 70 72 67 59 76 76 64 66 78 76 76 59 70 75 63 70 78 83 73 77 79 77 85 86 85 87 78 79 72
89 88 85 88 82 81 78 76 75 82 70 66 65 75 67 65 61 66 63 60 60 57 69 66 76 79 75 73 71 73 65 62 78 70 64 59 84 75 80 86 83 78 69 68 68
80 84 88 87 81 72 82 83 83 76 72 70 69 68 66 69 67 68 72 60 59 57 62 71 76 77 85 66 67 71 66 64 73 73 77 77 76 62 69 72 80 77 71 70 70
87 81 69 78 78 77 85 77 76 76 63 66 68 67 60 62 65 68 68 69 64 61 65 70 79 87 76 61 64 63 61 63 66 68 63 74 56 74 75 73 69 71 71 68 68

GFSSW_925_rhum_102.txt.gz
RH
85 88 89 87 81 84 86 80 84 82 81 79 90 88 87 98 91 84 52 41 58 65 48 52 47 49 46 44 44 43 20 21 27 33 32 38 36 32 31 30 24 22 24 22 22
87 86 87 76 81 86 86 84 82 86 81 82 84 89 83 95 86 66 49 57 72 67 47 37 37 43 43 47 46 30 23 22 37 39 38 38 40 35 30 24 23 20 18 18 22
81 89 85 92 90 88 87 89 80 76 83 84 87 83 98 94 72 52 53 71 66 53 52 46 42 35 41 44 46 45 30 38 44 44 44 39 34 32 31 29 23 22 17 17 23
84 85 84 86 82 91 90 75 76 86 85 82 83 82 98 87 89 65 74 72 66 57 49 43 35 35 37 41 47 39 47 45 47 46 44 38 31 30 26 24 18 19 19 22 25
85 84 85 86 86 90 80 78 80 81 85 80 76 96 95 85 81 69 79 73 58 50 47 40 36 39 41 41 44 40 47 47 42 44 39 35 35 30 26 20 19 21 23 25 26
89 84 84 84 88 81 72 73 80 73 86 86 80 94 88 87 82 82 77 48 47 46 44 40 39 37 41 42 36 43 45 39 38 36 35 38 31 37 19 22 23 28 28 26 27
89 90 87 91 92 79 76 81 68 72 79 86 91 96 86 82 81 67 67 50 44 44 42 42 37 32 36 46 44 46 38 34 38 38 40 40 35 41 23 27 34 32 31 31 29
89 86 80 78 74 68 73 76 70 89 74 75 96 98 95 96 65 64 50 50 48 48 49 47 38 42 41 43 40 42 39 31 34 43 48 45 31 25 23 35 39 36 35 34 34
97 83 73 80 74 74 69 59 56 75 94 80 93 98 99 94 66 50 45 48 51 50 48 46 46 49 45 44 50 37 52 42 39 44 47 49 45 33 33 40 44 41 39 40 42
73 86 94 95 77 74 61 95 97 82 91 73 88 94 99 93 56 52 51 49 48 45 46 49 55 50 49 40 53 56 62 53 51 44 48 55 53 39 39 45 52 52 56 57 59
92 94 95 69 65 61 79 80 74 83 76 79 88 91 85 72 49 49 48 44 42 48 59 65 48 54 52 49 50 62 63 71 55 48 61 57 55 46 41 53 57 66 66 63 60
92 93 84 76 84 69 69 79 80 84 94 92 87 87 84 56 61 48 48 47 50 64 59 57 61 53 54 58 61 65 66 67 53 52 58 54 56 47 48 60 60 62 71 72 68
91 96 91 72 83 94 97 99 84 88 96 97 91 90 87 56 53 56 48 51 53 58 51 56 65 58 59 73 68 60 59 63 78 60 54 60 49 51 52 61 54 55 66 70 79
92 71 79 83 85 94 99 99 96 95 98 100 97 93 73 51 63 63 62 54 60 60 58 58 58 62 64 82 64 71 53 58 69 75 77 61 76 50 51 54 56 56 64 71 74
64 72 76 75 89 90 100 95 91 98 85 97 94 80 70 65 54 62 65 53 65 64 64 80 71 75 73 70 59 61 53 61 67 78 88 66 95 50 52 54 55 58 65 72 75
65 61 63 74 77 93 94 92 91 88 94 99 95 83 67 66 71 64 62 56 60 64 65 60 57 64 57 56 56 54 65 74 68 80 93 62 75 53 59 65 64 66 78 83 84
63 64 64 68 76 81 84 76 91 85 96 96 98 71 69 74 74 69 69 64 69 88 95 67 70 62 60 69 67 70 85 84 83 90 79 62 75 55 65 83 87 90 88 86 86
64 57 63 72 78 79 81 78 81 87 95 88 67 65 69 68 73 73 68 67 66 65 84 90 93 66 64 65 76 84 98 93 88 74 70 67 83 68 90 87 82 88 87 84 88
55 51 60 77 76 77 69 95 90 79 69 68 63 67 74 70 64 72 68 69 67 64 83 82 97 62 68 63 76 96 99 84 98 74 89 63 77 88 89 95 95 95 94 95 90
56 61 67 64 69 74 71 94 76 71 60 61 62 58 64 64 62 64 63 62 71 61 60 72 91 61 73 68 66 71 68 91 97 90 74 60 74 89 99 100 97 98 96 96 92
58 63 53 53 64 68 94 87 67 64 64 61 60 60 60 63 61 66 65 60 62 67 62 68 66 64 65 79 66 82 76 73 74 78 75 65 60 88 98 98 98 96 95 95 92
62 87 47 47 80 84 89 75 70 64 62 59 53 58 60 64 64 66 64 62 56 65 69 68 70 84 60 51 49 54 55 52 68 70 61 61 55 71 86 88 95 91 92 92 84
71 73 44 48 83 80 67 68 64 61 62 55 58 59 61 65 65 64 64 54 61 66 63 66 71 75 54 51 52 56 54 52 58 62 67 63 47 66 77 80 85 86 85 71 61
60 89 67 72 74 64 63 65 64 60 59 57 56 52 57 58 58 61 58 59 63 62 67 61 64 62 48 44 51 57 53 55 60 70 50 48 46 64 78 77 77 72 61 57 55
61 78 76 76 58 64 60 65 65 67 55 52 52 59 58 54 52 55 54 50 62 61 62 59 72 65 54 49 54 56 53 50 67 54 54 39 53 48 59 65 60 59 59 52 49
56 66 71 65 65 59 60 67 68 65 63 55 54 57 53 52 54 52 57 49 48 49 57 60 73 63 78 51 56 60 50 48 47 50 58 51 53 38 43 50 53 57 56 50 48
88 74 49 68 60 51 62 62 64 68 59 58 58 56 51 54 54 52 51 53 53 53 52 58 63 69 61 46 44 46 38 43 44 47 45 52 36 46 53 57 56 54 55 50 45

GFSSW_925_rhum_105.txt.gz
RH
85 78 86 87 84 84 85 88 83 84 81 81 88 78 78 100 91 80 49 43 48 62 44 37 37 37 36 40 36 28 22 18 21 20 27 28 25 26 24 23 18 17 17 16 16
78 81 85 87 84 77 83 86 88 85 82 84 82 78 80 94 85 67 51 47 71 56 36 28 32 31 31 34 32 23 22 20 26 27 27 28 28 24 23 19 17 16 13 13 14
82 84 88 87 84 75 86 87 89 81 84 89 73 70 86 94 74 57 49 71 71 55 32 25 29 26 33 31 33 28 26 27 33 33 33 28 24 21 25 24 16 16 14 13 15
86 87 85 85 86 86 89 86 87 89 86 81 65 64 100 89 91 60 74 73 65 46 37 29 27 25 32 35 32 32 32 29 34 37 33 29 24 22 19 17 14 15 16 16 17
84 87 80 81 85 88 74 72 80 82 83 83 65 87 98 88 65 60 77 76 50 42 34 27 24 24 27 30 31 26 34 35 32 34 29 25 26 23 21 16 14 15 17 19 19
85 84 85 83 82 87 74 75 77 78 76 81 70 94 85 93 74 80 80 56 43 42 36 29 26 27 30 31 30 33 34 28 28 28 27 29 24 25 16 17 21 23 23 22 23
80 77 78 88 88 90 87 66 63 71 72 78 84 94 85 74 85 75 58 44 44 39 35 32 27 26 28 36 31 33 30 28 29 29 31 34 34 32 20 18 26 27 26 26 26
77 70 85 85 91 88 89 86 85 69 76 84 86 88 78 96 94 79 50 45 43 40 38 34 28 31 30 31 30 32 32 30 29 34 38 41 26 21 19 27 30 29 30 30 30
87 93 87 93 90 87 76 67 64 61 82 74 81 88 96 86 81 69 42 43 44 42 39 36 34 34 35 37 45 30 54 32 32 35 38 43 35 24 25 31 33 33 36 40 42
89 92 96 93 82 68 78 76 73 89 88 76 91 91 96 91 72 43 42 40 38 41 37 38 40 35 32 35 61 43 45 40 36 36 39 45 43 32 28 32 36 37 44 47 46
82 91 82 63 59 67 91 86 73 86 78 80 88 90 85 83 55 46 42 38 34 33 45 48 48 48 37 35 37 42 41 45 40 38 53 45 44 37 31 33 42 42 44 48 55
89 92 91 95 72 79 79 70 83 81 95 89 86 85 91 81 76 51 38 36 36 46 44 46 51 41 41 44 46 48 47 51 43 43 50 47 48 38 35 40 46 48 49 56 64
77 76 78 87 92 85 88 95 82 84 96 97 90 89 92 66 60 54 39 37 37 42 38 49 46 46 48 61 54 47 45 46 66 52 45 54 45 47 42 46 47 42 47 52 62
82 87 81 82 86 93 96 95 93 95 99 100 97 90 79 59 62 52 52 43 45 44 40 48 48 50 51 73 53 57 42 50 61 66 71 48 70 44 40 43 47 43 50 57 66
66 78 82 77 86 84 92 86 85 94 90 98 95 86 74 69 51 56 55 45 46 48 55 72 58 61 60 62 49 55 49 53 57 70 78 58 84 45 41 41 44 52 61 68 73
61 58 69 73 77 89 96 94 80 94 93 100 93 90 72 56 62 56 52 46 46 50 48 52 49 54 52 49 48 47 56 62 61 69 83 56 60 48 48 55 64 66 72 79 80
72 60 66 68 68 73 80 67 93 86 92 96 92 68 53 57 60 54 53 54 60 88 94 61 60 53 53 63 57 61 79 87 86 88 75 50 61 49 47 82 83 85 84 84 83
56 50 69 76 88 73 77 77 82 82 84 86 54 50 59 52 60 58 56 58 54 51 74 85 94 60 55 60 69 78 84 87 80 73 68 56 80 59 71 80 78 85 90 81 85
45 68 69 76 80 90 63 93 87 72 53 57 51 55 62 56 53 58 54 55 54 52 70 78 96 54 56 53 60 85 92 71 98 62 84 62 59 67 76 80 77 85 88 95 88
55 59 64 60 73 74 63 80 68 51 48 48 51 45 53 54 53 53 53 53 59 51 50 58 81 53 60 60 57 56 63 89 100 90 75 64 61 72 90 98 95 93 95 95 86
54 44 66 57 79 49 91 68 59 54 52 47 45 46 46 52 48 51 53 52 53 55 53 54 55 58 58 63 54 69 66 66 59 65 80 58 58 64 79 94 95 92 94 90 89
46 82 54 71 70 60 82 65 64 55 50 49 45 47 47 51 53 51 52 52 49 54 56 54 56 65 51 46 46 48 50 43 59 61 54 54 52 59 70 74 87 84 87 88 84
43 49 47 47 79 68 52 57 53 51 54 49 52 50 51 52 53 49 51 48 50 56 54 52 59 69 52 48 46 54 45 44 45 53 63 56 42 56 64 70 76 75 78 79 70
44 85 50 48 57 48 50 53 56 52 49 46 48 45 46 46 45 50 50 54 52 54 65 57 53 56 55 44 43 45 44 45 50 66 45 41 31 52 61 63 69 72 68 62 52
48 63 60 61 47 46 47 50 52 55 45 42 43 47 47 41 41 43 45 46 56 62 56 53 62 58 50 41 39 42 44 41 56 54 50 30 36 30 41 52 55 58 54 49 47
45 48 51 45 49 41 44 51 52 54 49 44 42 43 38 41 45 44 44 39 38 45 47 50 64 55 76 40 44 49 41 40 40 40 42 39 40 27 26 39 44 46 46 49 45
62 54 45 57 42 38 40 46 51 54 52 46 46 45 41 45 45 42 42 42 42 42 43 48 56 61 59 38 37 38 30 34 36 33 34 39 28 27 32 39 42 41 42 44 42

GFSSW_925_rhum_108.txt.gz
RH
86 87 84 86 88 83 85 88 87 85 81 80 73 77 82 93 94 80 56 54 51 35 41 35 35 37 37 44 37 32 39 30 24 20 36 27 26 25 23 25 19 17 18 16 14
82 79 80 87 91 87 81 86 82 87 84 83 63 58 89 96 92 76 56 44 66 33 37 30 34 31 35 39 36 34 36 39 30 32 34 28 27 24 23 22 20 18 15 14 14
81 88 87 87 83 82 78 86 87 88 87 90 64 66 74 97 88 65 56 61 69 44 35 24 28 28 34 33 31 28 41 29 34 38 32 27 25 22 26 29 20 20 19 18 18
79 87 88 85 77 84 82 76 89 88 85 79 61 80 79 94 89 64 68 74 67 47 33 26 29 29 39 38 31 33 31 30 34 39 34 31 26 24 23 22 18 17 17 17 20
76 86 82 79 87 75 70 68 84 94 82 78 63 81 90 92 67 62 78 72 47 43 31 27 29 25 32 34 33 31 33 32 33 33 30 26 29 26 24 20 17 18 20 23 25
75 84 84 84 87 79 76 76 84 78 79 76 59 81 82 94 72 79 77 60 42 39 32 27 23 25 29 31 34 33 34 29 28 28 27 32 29 24 19 19 21 25 28 27 28
74 84 87 90 89 86 85 81 78 84 82 85 74 92 73 86 90 72 67 45 41 37 34 30 25 26 31 36 31 33 34 35 31 29 32 37 42 38 24 17 23 29 28 30 32
84 90 90 91 82 82 87 91 68 75 84 76 79 83 90 99 83 74 47 42 41 37 34 30 28 33 32 34 31 35 31 39 35 34 41 42 36 29 19 23 32 31 33 41 42
95 91 93 91 91 77 74 72 73 80 72 72 80 88 96 95 92 77 54 43 42 39 34 33 33 35 33 44 58 33 73 37 43 35 37 46 45 30 27 29 34 35 44 46 49
92 86 89 91 76 68 76 54 88 79 83 73 74 86 88 94 83 68 45 41 39 42 39 40 44 42 38 54 87 56 49 40 37 45 44 50 49 38 33 31 34 38 42 45 57
90 88 70 56 57 87 89 84 79 90 84 90 87 88 81 80 64 42 40 36 36 33 51 47 61 67 42 47 39 42 38 49 43 39 54 56 52 44 37 36 40 43 48 57 65
84 86 83 72 70 79 74 77 94 79 96 91 82 85 94 90 58 42 36 38 41 56 41 54 65 43 39 41 43 44 45 52 48 43 49 56 57 49 42 44 49 48 52 58 61
83 83 87 82 82 82 89 92 96 78 97 96 91 90 94 73 69 60 39 37 41 47 45 62 48 43 45 67 52 50 48 52 66 56 51 56 62 50 44 48 48 46 54 63 70
80 90 83 79 78 81 91 99 95 90 99 100 96 88 81 64 75 48 53 47 42 45 49 54 46 46 50 70 53 59 44 49 59 74 91 60 94 56 56 52 49 47 66 76 80
67 78 75 79 80 81 85 84 79 91 92 98 96 87 82 75 63 54 53 54 45 47 54 70 58 59 57 63 48 62 51 56 61 63 77 64 89 69 47 48 53 70 79 79 79
57 69 75 75 77 86 78 73 86 99 98 100 93 92 66 55 56 54 50 45 48 51 52 56 48 51 56 47 48 47 57 62 59 69 83 71 78 71 62 59 68 72 80 84 80
54 54 60 68 76 83 78 76 99 94 95 98 97 84 54 57 56 50 55 61 71 90 94 66 60 54 52 59 56 58 72 84 91 92 90 64 69 68 66 79 80 84 83 82 83
46 54 57 71 68 67 73 86 88 89 90 86 70 58 61 52 56 56 55 66 53 52 87 77 95 63 56 63 72 77 81 96 81 84 86 61 86 75 78 76 78 78 79 81 83
63 71 70 75 61 64 83 94 97 82 54 53 48 60 61 55 55 54 48 57 52 52 65 86 93 56 56 48 59 88 95 70 92 68 89 81 69 79 80 78 74 79 82 87 89
60 60 68 55 68 83 80 76 66 46 44 46 53 46 57 57 56 56 50 51 58 49 49 57 76 57 59 58 60 64 60 90 97 95 90 82 75 87 94 86 85 85 84 84 87
58 62 72 65 83 64 97 73 58 51 52 53 43 44 46 52 44 48 53 54 50 54 53 54 58 66 65 75 66 66 67 64 60 71 80 84 82 67 85 79 80 77 74 79 80
55 95 63 62 86 68 93 62 64 52 47 47 46 50 51 46 47 51 56 56 51 52 54 58 66 81 65 52 47 50 57 54 76 78 73 66 76 63 74 78 80 76 74 78 81
58 60 50 62 93 83 56 57 53 50 52 48 52 49 48 50 57 50 53 48 51 54 65 57 68 85 59 53 47 57 53 53 47 67 81 81 68 66 71 80 81 79 80 76 74
58 91 69 58 60 51 53 52 57 52 47 43 46 44 44 45 42 52 55 55 53 54 61 61 60 68 82 55 45 54 50 52 56 90 73 66 52 76 74 74 80 80 79 83 78
61 74 65 85 56 49 46 48 50 53 43 41 43 44 45 42 40 46 44 55 58 65 60 59 72 61 62 56 52 51 49 50 61 61 69 45 46 38 53 68 71 75 74 75 73
66 63 58 49 46 52 44 51 51 51 52 43 42 41 39 42 47 44 42 41 40 57 54 56 75 62 86 54 49 57 50 46 45 49 55 54 55 37 32 54 63 69 69 67 59
54 50 53 53 43 44 50 50 52 56 51 46 50 50 41 54 52 52 52 49 46 43 50 52 68 76 81 55 58 62 43 43 45 42 43 54 42 33 32 43 56 58 56 55 56

GFSSW_925_rhum_111.txt.gz
RH
78 76 86 83 86 82 85 89 87 86 73 58 78 87 92 88 95 81 65 59 56 39 37 36 37 38 40 45 38 34 44 39 44 37 39 29 31 27 25 26 22 19 18 18 17
78 83 84 74 82 84 84 89 85 87 84 58 63 72 79 90 88 81 61 47 46 37 37 35 38 37 42 43 40 40 53 41 41 40 37 31 29 24 25 28 23 20 18 16 16
80 85 84 86 76 74 84 80 76 90 88 68 60 72 84 87 71 70 61 60 49 40 47 39 31 32 38 37 33 30 45 38 50 40 35 31 28 27 27 28 22 20 21 20 18
84 79 85 86 84 78 78 78 73 85 91 72 58 70 84 80 76 77 68 73 38 42 44 28 32 34 44 43 32 38 38 37 40 41 37 34 28 29 25 25 22 20 21 20 23
75 82 87 89 84 78 71 70 87 90 90 77 59 87 86 82 85 70 84 74 42 38 40 29 31 30 43 41 31 34 38 36 39 34 32 29 31 32 28 23 20 20 22 25 27
77 86 86 87 88 85 71 76 76 78 88 79 61 81 82 89 79 88 90 49 43 40 34 33 29 30 36 38 39 40 40 35 31 29 28 32 34 34 23 22 22 24 30 30 33
92 92 92 90 90 88 85 66 80 78 90 88 70 80 75 96 81 88 76 46 42 37 37 30 29 31 32 40 31 32 35 34 33 32 35 41 39 44 28 22 21 31 35 46 45
89 88 90 86 88 92 83 81 76 78 80 76 86 79 97 92 77 74 45 41 36 33 30 29 27 36 38 35 32 38 36 46 36 35 39 38 24 34 28 22 31 34 49 52 65
85 94 94 96 82 72 74 91 89 77 73 82 73 80 98 92 84 61 58 44 36 32 32 29 30 37 35 52 67 39 76 42 43 39 41 45 43 36 29 36 38 41 52 51 68
92 87 82 68 72 77 79 75 74 74 76 66 81 86 84 97 84 67 45 39 43 41 40 42 49 49 48 73 68 58 55 42 39 47 44 52 58 47 40 41 41 48 55 70 70
96 86 57 64 82 89 80 72 83 89 86 94 90 88 90 94 72 58 43 39 40 39 50 51 68 71 51 44 41 41 43 50 44 48 50 59 62 53 48 44 51 59 70 69 69
93 78 70 74 80 74 76 87 92 82 98 85 82 88 91 89 84 51 39 43 44 56 43 68 69 46 47 48 48 49 47 57 55 50 51 61 63 53 52 50 59 58 70 77 76
91 75 79 84 69 73 86 95 89 75 98 95 91 90 95 79 69 60 55 43 47 48 54 71 55 45 57 65 56 52 52 66 69 62 59 64 68 52 50 56 52 52 77 81 84
77 74 72 72 66 83 94 96 81 88 93 99 96 91 77 74 74 51 51 55 45 57 60 62 47 50 62 68 57 66 53 56 65 78 90 65 82 72 57 61 60 78 89 88 84
71 72 72 67 76 82 82 83 80 92 90 98 95 88 79 73 68 52 49 55 49 54 62 73 59 59 61 66 50 69 56 62 65 72 83 75 92 75 61 62 71 89 89 87 82
70 77 76 75 74 79 76 68 71 84 97 100 93 92 86 69 62 53 54 48 48 60 62 61 50 55 62 52 52 55 63 67 61 72 96 76 82 80 68 57 76 86 86 87 85
58 69 69 70 74 73 63 79 87 94 98 99 98 81 64 66 61 61 62 65 77 77 90 66 65 56 53 65 58 57 79 94 88 98 91 69 82 75 64 80 80 85 86 86 85
52 52 57 63 64 65 72 89 89 96 99 88 75 62 67 56 59 57 63 70 54 69 96 87 82 72 60 60 79 78 77 95 92 98 91 67 83 70 80 84 84 82 78 77 84
63 69 66 72 64 65 83 94 94 87 67 78 68 65 65 58 60 60 61 65 59 60 77 88 91 61 61 46 63 85 90 73 93 83 95 86 71 72 84 86 85 80 79 84 84
61 69 72 58 57 77 85 82 71 54 47 49 59 50 64 63 63 63 60 55 63 53 56 64 89 67 63 60 62 68 67 86 95 96 80 85 79 84 91 88 86 88 86 82 82
61 78 73 64 76 83 94 75 65 54 57 59 53 52 52 56 58 57 61 57 53 58 56 58 65 73 72 82 75 70 76 72 68 74 83 91 81 73 76 86 87 86 79 78 82
73 79 64 66 85 89 91 69 61 55 51 51 54 60 54 49 50 64 68 63 54 60 65 61 72 93 74 61 57 63 68 68 85 83 74 82 78 64 75 83 83 83 79 78 76
72 74 73 78 87 91 62 59 59 58 54 54 56 52 50 54 63 57 64 54 55 58 66 62 77 89 73 61 53 60 62 61 59 73 81 89 75 77 78 84 86 86 86 86 86
79 78 83 74 76 58 60 57 61 52 50 46 48 50 50 49 46 59 67 58 56 59 59 63 74 74 80 62 59 69 62 64 66 94 78 84 70 78 84 84 87 88 85 88 85
76 77 70 82 60 62 53 55 54 61 50 43 45 48 50 48 46 52 55 60 60 68 62 68 81 69 68 68 65 64 59 58 76 64 75 56 59 45 67 81 77 77 85 88 87
73 73 72 62 53 50 52 55 60 56 56 51 51 48 44 52 54 58 52 50 62 68 63 65 74 71 84 63 66 72 64 58 54 59 59 56 56 40 37 47 75 80 80 79 79
60 55 65 60 55 54 58 57 58 56 53 48 52 54 50 56 54 54 59 60 55 61 66 72 78 80 74 71 69 53 52 52 52 52 50 64 48 44 42 50 65 74 74 72 71

GFSSW_925_rhum_114.txt.gz
RH
90 72 76 86 83 86 90 75 89 83 75 77 89 96 95 90 86 77 68 57 56 49 43 38 37 40 43 43 39 33 47 47 44 40 41 30 32 27 26 25 23 21 21 20 19
74 76 77 81 75 77 78 80 81 87 71 78 80 77 91 98 86 82 62 65 44 44 43 38 43 35 48 44 39 44 57 46 43 39 37 31 29 27 25 28 24 20 19 19 18
83 73 80 79 77 63 78 86 77 88 79 69 63 60 85 89 87 67 70 65 65 38 45 48 37 34 42 37 35 37 49 47 49 38 33 30 29 28 28 26 22 22 22 21 21
80 84 87 88 85 85 82 74 70 89 89 64 56 60 87 83 90 83 88 73 65 40 35 33 36 40 45 43 34 43 41 42 47 39 33 34 28 26 26 24 23 21 20 22 27
87 87 87 85 88 86 75 68 70 85 86 73 73 75 87 78 86 79 92 78 45 41 38 32 31 38 48 41 32 42 40 43 41 34 32 29 29 29 30 26 24 22 24 29 32
86 87 87 88 90 86 78 70 74 78 86 74 63 91 85 90 96 89 86 48 44 41 34 32 33 32 43 40 40 42 44 42 31 30 30 31 33 35 23 23 24 24 31 39 51
86 85 90 90 89 90 78 78 81 86 90 70 62 82 86 100 95 82 52 47 42 39 36 32 30 34 36 42 35 38 38 35 33 33 36 41 32 45 28 24 23 31 49 69 79
90 90 89 92 92 76 85 54 67 77 71 83 77 78 98 96 95 77 48 38 32 30 29 30 27 38 38 35 36 37 40 38 36 35 39 34 18 32 33 28 27 42 58 77 82
97 96 95 91 86 85 84 79 74 76 78 72 68 74 93 84 86 87 55 46 32 29 27 24 28 39 40 54 65 52 60 42 41 39 44 44 32 36 27 38 42 48 59 76 82
89 77 80 85 63 62 74 73 71 69 69 64 66 77 83 96 91 81 60 47 39 35 35 44 53 52 56 63 55 52 61 43 41 44 44 50 58 49 43 44 48 53 68 75 79
96 65 86 97 72 72 69 68 78 87 85 96 94 86 88 86 71 68 59 45 37 42 46 55 64 66 50 46 53 47 54 48 47 47 51 58 62 56 51 53 54 73 81 74 79
77 68 83 76 74 78 74 91 95 82 97 87 84 86 94 94 66 53 43 45 52 51 51 67 69 48 50 49 49 47 57 63 58 53 55 63 66 57 58 57 57 71 79 79 79
76 71 84 73 68 71 81 94 81 75 96 94 91 91 95 86 81 68 57 48 54 57 63 69 55 50 54 60 58 60 63 67 68 63 60 66 57 56 56 57 62 76 84 84 83
77 75 71 66 61 80 89 86 81 86 91 99 96 92 86 84 82 57 52 54 47 64 63 63 50 58 67 65 61 69 56 60 70 76 68 62 63 63 59 66 66 86 90 87 81
74 72 63 62 73 75 71 78 89 89 90 96 95 84 84 81 83 54 42 50 56 58 52 70 57 59 71 63 56 69 56 63 64 74 79 72 89 69 63 67 71 91 91 86 85
77 77 77 74 73 78 75 74 84 79 96 100 92 89 72 68 61 53 56 49 49 66 65 63 50 57 60 56 56 55 65 70 75 80 86 71 81 77 71 61 70 90 89 88 87
65 68 65 67 69 74 65 72 84 95 96 99 95 76 75 81 61 61 60 64 75 74 92 70 68 58 55 71 61 62 79 91 80 96 79 75 85 75 55 71 72 86 88 86 88
54 59 59 62 63 65 62 79 89 95 100 84 83 76 81 70 59 59 62 70 57 76 94 90 78 71 58 64 73 80 78 89 81 97 91 73 89 71 66 78 80 81 82 83 85
53 57 65 64 66 65 78 95 89 83 77 82 77 69 69 61 61 64 64 70 62 63 81 90 92 64 62 49 61 78 89 71 89 85 96 88 70 63 86 88 91 90 86 88 88
64 69 74 62 67 72 86 88 77 60 54 62 70 55 69 66 66 63 65 58 63 55 60 72 94 69 62 59 59 65 68 88 90 91 92 85 80 81 83 80 87 89 90 84 83
63 73 75 67 74 81 93 77 63 53 56 61 63 53 56 62 62 63 65 60 60 58 60 63 71 77 70 82 80 76 84 74 75 88 92 90 73 66 67 66 73 84 85 85 84
76 80 74 74 84 91 91 68 57 56 53 54 56 58 56 58 60 72 71 64 56 59 67 63 77 97 84 64 65 68 78 74 86 78 82 83 79 52 68 71 79 79 82 82 81
76 78 80 89 86 91 64 60 58 60 56 55 60 56 51 57 63 63 66 58 57 61 65 62 76 89 80 64 55 68 69 66 67 75 80 91 73 71 78 79 84 85 86 86 85
75 76 77 79 78 63 61 61 59 52 51 48 50 50 52 50 53 62 67 59 57 64 63 61 78 73 74 58 68 72 70 72 69 90 80 80 71 56 80 86 82 88 87 87 86
74 75 72 77 60 59 56 56 57 61 54 46 48 48 51 51 49 56 63 63 62 66 64 70 83 76 76 74 71 70 65 69 80 69 70 51 70 42 45 58 70 74 82 89 88
72 68 78 66 59 50 58 58 59 59 55 53 50 53 47 50 50 57 52 64 69 72 72 72 70 74 83 65 70 79 70 66 63 67 67 60 59 39 37 55 63 72 82 81 80
68 61 59 58 59 56 57 57 58 59 54 50 52 56 54 51 54 51 57 63 58 68 75 75 80 80 77 66 72 54 53 60 61 60 52 66 50 42 44 45 50 54 77 73 72

GFSSW_925_rhum_117.txt.gz
RH
78 77 68 72 86 95 87 98 85 86 86 78 82 85 88 94 88 74 68 62 56 47 53 41 40 40 42 44 39 34 50 49 43 42 40 32 32 27 27 24 24 22 24 22 21
78 78 74 81 84 74 72 83 79 83 84 91 89 97 96 95 85 77 74 66 66 52 41 43 46 41 50 41 40 46 57 47 44 39 38 31 29 28 24 26 25 21 20 20 20
86 84 73 77 78 91 83 78 85 86 86 81 70 77 93 100 88 74 94 75 68 48 41 42 43 35 44 36 37 41 51 49 46 37 32 30 29 29 28 25 23 22 21 21 25
90 92 92 91 88 79 77 79 75 83 85 68 64 62 91 90 90 86 78 98 71 46 35 35 36 41 43 43 36 45 44 44 44 36 32 31 28 24 27 24 24 22 20 26 32
89 88 88 88 88 76 74 77 76 78 76 65 87 76 92 82 97 92 90 79 53 42 37 35 33 42 43 39 39 46 46 45 41 34 34 29 29 29 30 26 25 22 28 36 50
88 87 88 89 92 68 65 72 78 87 80 67 71 89 77 86 99 94 62 50 44 39 35 30 31 37 44 42 41 44 48 42 32 32 35 29 33 34 22 24 24 26 45 65 76
88 88 90 92 91 81 73 73 78 84 74 62 71 78 84 96 100 73 58 40 40 38 34 33 31 34 38 43 37 39 42 36 37 33 41 40 28 37 27 25 26 43 66 85 87
94 95 96 90 78 81 71 68 72 74 78 75 72 72 99 98 97 80 44 36 32 29 30 30 29 40 39 37 41 37 41 35 37 35 43 27 15 25 33 28 26 48 78 87 85
96 96 90 78 74 70 69 70 76 76 71 69 65 70 98 89 93 86 60 59 38 26 28 25 30 42 44 51 62 50 54 40 42 38 46 40 25 33 31 33 41 43 79 89 87
72 87 89 73 72 81 76 70 68 62 60 60 64 71 81 96 94 89 59 54 42 31 36 46 52 53 62 50 56 45 67 44 45 45 45 49 56 47 44 41 46 49 73 88 86
69 91 93 62 83 78 70 61 78 87 85 92 92 83 85 89 79 87 76 65 40 41 50 61 61 65 50 48 49 50 50 50 52 48 53 59 62 57 50 51 55 57 78 88 86
69 94 87 84 73 69 66 93 96 80 96 84 79 82 87 91 74 75 75 65 46 56 50 64 67 48 50 48 49 50 55 64 61 53 59 67 70 62 59 59 60 68 86 86 85
71 89 82 76 74 70 87 96 80 77 97 92 90 90 96 90 83 73 74 51 57 64 60 67 54 51 52 56 62 66 65 66 63 63 62 70 50 54 56 59 71 73 80 83 85
72 79 75 69 65 77 87 86 80 86 92 99 95 95 80 84 73 54 54 50 53 64 64 66 52 60 65 66 61 65 58 65 68 71 58 66 57 50 59 65 68 89 91 89 85
69 71 64 58 62 69 75 80 82 79 90 92 94 90 85 79 77 54 46 51 60 66 48 67 58 66 71 63 59 67 58 65 66 79 77 68 86 66 65 69 74 86 92 91 87
70 72 73 68 69 74 75 74 77 79 95 100 92 94 92 69 68 55 52 49 51 66 67 63 50 60 60 59 58 59 69 72 82 80 79 66 82 72 69 61 56 82 91 91 91
64 67 65 65 65 70 66 69 84 94 92 96 98 93 79 82 61 60 63 68 73 73 90 75 73 61 57 69 62 67 78 83 63 86 70 74 87 75 52 58 63 74 91 90 89
58 58 58 64 68 67 62 79 89 89 98 82 82 70 79 65 61 61 61 73 67 72 92 86 73 69 58 64 72 79 73 78 43 94 92 77 92 67 59 73 77 77 80 85 87
55 59 62 64 68 70 74 96 88 82 79 90 84 73 70 62 62 63 66 70 63 66 72 93 88 65 64 58 60 71 88 72 89 87 95 89 71 61 79 81 85 86 86 86 88
66 72 75 64 66 69 86 90 79 62 67 67 71 61 73 67 68 64 67 61 63 58 60 72 94 68 62 57 60 65 72 84 88 90 93 86 80 77 73 70 77 89 92 88 87
67 73 77 70 77 79 93 78 63 55 56 62 66 56 63 64 63 64 68 62 61 61 61 70 73 69 64 80 82 81 83 77 79 84 91 88 64 63 64 63 60 75 85 87 88
76 78 80 76 83 91 91 67 57 58 56 57 59 57 60 59 62 73 68 66 57 59 69 66 80 96 82 65 67 70 78 77 86 76 86 84 77 49 69 62 72 70 75 82 85
79 80 81 87 85 91 66 60 57 58 56 55 60 56 53 59 67 67 68 62 60 65 68 63 75 88 74 67 66 76 76 72 71 78 84 90 60 60 77 77 78 79 77 83 84
72 75 74 81 79 66 63 62 59 54 51 49 51 51 50 53 59 67 68 61 61 67 63 59 79 69 65 49 69 79 74 75 72 92 83 84 72 53 52 77 75 79 84 83 86
76 75 74 75 63 62 58 56 60 58 52 49 48 49 52 52 53 65 67 67 65 66 67 69 74 82 79 78 71 70 69 77 83 70 76 56 69 44 43 42 44 61 76 83 86
69 64 76 70 64 52 58 58 58 60 54 52 48 52 48 51 51 59 61 64 64 74 70 76 70 74 86 68 80 82 77 74 72 74 73 69 70 44 39 46 54 61 72 80 78
75 68 54 63 63 57 56 55 55 58 54 51 52 55 56 51 52 52 57 63 60 77 79 80 82 80 78 62 72 56 62 58 63 67 59 72 51 43 46 47 45 48 56 64 64